ftp/pub/palmer/observations_modified/2017/November/AR171104_BASE.txt
Download
Sample DateTime Unit Id WS Avg 2min WD Avg 2min WGS 10min WGD 10min Air Temp Rel Humidity Dew Point Pyranometer Quantum Air Pressure Snow Level Rainfall PW Current Visibility CBase 1 CBase 2 CBase 3 Vert Vis
2017/11/04 00:00:00 BASE 7.31 215 10.34 211 -5.4 76 -8.9 26 52 994.3 NA 0.0000 9999 2130 0 0 0
2017/11/04 00:01:00 BASE 7.40 222 10.34 211 -5.4 76 -9.0 25 50 994.4 NA 0.0000 9999 0 0 0 0
2017/11/04 00:02:00 BASE 6.99 222 10.08 200 -5.4 76 -9.0 24 49 994.4 NA 0.0000 9999 0 0 0 0
2017/11/04 00:03:00 BASE 7.27 217 10.08 200 -5.4 76 -9.0 23 47 994.3 NA 0.0000 9999 0 0 0 0
2017/11/04 00:04:00 BASE 7.96 213 10.08 200 -5.4 76 -9.0 22 45 994.3 NA 0.0000 9999 0 0 0 0
2017/11/04 00:05:00 BASE 7.77 215 10.08 200 -5.5 76 -9.0 22 44 994.3 NA 0.0000 9999 0 0 0 0
2017/11/04 00:06:00 BASE 7.37 214 10.08 200 -5.5 76 -9.0 21 42 994.3 NA 0.0000 9999 0 0 0 0
2017/11/04 00:07:00 BASE 7.96 210 10.39 208 -5.5 76 -9.0 21 41 994.3 NA 0.0000 9999 0 0 0 0
2017/11/04 00:08:00 BASE 7.96 207 10.39 208 -5.5 76 -9.0 20 40 994.3 NA 0.0000 9999 0 0 0 0
2017/11/04 00:09:00 BASE 8.25 206 10.44 206 -5.5 76 -9.1 19 38 994.3 NA 0.0000 9999 0 0 0 0
2017/11/04 00:10:00 BASE 9.02 208 10.44 206 -5.5 76 -9.0 18 36 994.4 NA 0.0000 9999 0 0 0 0
2017/11/04 00:11:00 BASE 8.18 210 10.44 206 -5.5 76 -9.0 18 35 994.4 NA 0.0000 9999 0 0 0 0
2017/11/04 00:12:00 BASE 7.32 212 10.44 206 -5.5 76 -9.0 17 34 994.4 NA 0.0000 9999 0 0 0 0
2017/11/04 00:13:00 BASE 8.40 209 10.70 206 -5.5 76 -9.0 16 32 994.4 NA 0.0000 9999 0 0 0 0
2017/11/04 00:14:00 BASE 8.62 203 10.70 206 -5.5 76 -9.0 14 30 994.4 NA 0.0000 9999 0 0 0 0
2017/11/04 00:15:00 BASE 8.15 202 10.70 206 -5.5 76 -9.0 13 28 994.4 NA 0.0000 9999 0 0 0 0
2017/11/04 00:16:00 BASE 8.24 200 10.70 206 -5.5 76 -9.0 11 26 994.4 NA 0.0000 9999 0 0 0 0
2017/11/04 00:17:00 BASE 8.44 203 10.70 206 -5.5 76 -9.1 10 25 994.4 NA 0.0000 9999 0 0 0 0
2017/11/04 00:18:00 BASE 8.74 209 10.70 206 -5.5 76 -9.1 10 24 994.4 NA 0.0000 9999 0 0 0 0
2017/11/04 00:19:00 BASE 8.67 212 10.70 206 -5.4 75 -9.1 10 23 994.3 NA 0.0000 9999 0 0 0 0
2017/11/04 00:20:00 BASE 8.72 213 10.70 206 -5.5 75 -9.1 10 22 994.4 NA 0.0000 9999 0 0 0 0
2017/11/04 00:21:00 BASE 8.72 214 10.70 206 -5.5 75 -9.2 9 21 994.4 NA 0.0000 9999 0 0 0 0
2017/11/04 00:22:00 BASE 8.74 212 10.70 206 -5.5 75 -9.2 8 21 994.3 NA 0.0000 9999 0 0 0 0
2017/11/04 00:23:00 BASE 9.18 210 10.34 209 -5.5 75 -9.3 8 20 994.4 NA 0.0000 9999 0 0 0 0
2017/11/04 00:24:00 BASE 9.23 214 10.34 209 -5.6 75 -9.3 8 19 994.4 NA 0.0000 9999 0 0 0 0
2017/11/04 00:25:00 BASE 9.04 216 10.80 213 -5.6 75 -9.3 7 18 994.4 NA 0.0000 9999 0 0 0 0
2017/11/04 00:26:00 BASE 9.22 215 10.80 213 -5.6 75 -9.3 7 17 994.4 NA 0.0000 9999 0 0 0 0
2017/11/04 00:27:00 BASE 8.81 214 10.80 213 -5.6 75 -9.3 7 17 994.4 NA 0.0000 9999 0 0 0 0
2017/11/04 00:28:00 BASE 8.55 212 10.80 213 -5.6 75 -9.3 7 16 994.4 NA 0.0000 9999 0 0 0 0
2017/11/04 00:29:00 BASE 8.58 213 10.80 213 -5.7 75 -9.4 6 15 994.4 NA 0.0000 9999 0 0 0 0
2017/11/04 00:30:00 BASE 8.76 212 10.80 213 -5.7 75 -9.4 6 14 994.4 NA 0.0000 9999 0 0 0 0
2017/11/04 00:31:00 BASE 9.12 208 10.80 213 -5.7 75 -9.4 6 14 994.3 NA 0.0000 9999 0 0 0 0
2017/11/04 00:32:00 BASE 9.53 208 10.80 213 -5.7 75 -9.5 5 13 994.3 NA 0.0000 9999 0 0 0 0
2017/11/04 00:33:00 BASE 10.16 210 11.11 215 -5.8 75 -9.6 5 13 994.4 NA 0.0000 9999 0 0 0 0
2017/11/04 00:34:00 BASE 10.35 211 11.32 216 -5.8 74 -9.6 5 12 994.3 NA 0.0000 9999 0 0 0 0
2017/11/04 00:35:00 BASE 9.70 209 11.32 216 -5.8 74 -9.7 5 11 994.4 NA 0.0000 9999 0 0 0 0
2017/11/04 00:36:00 BASE 9.14 208 11.32 216 -5.8 73 -9.7 4 11 994.4 NA 0.0000 9999 0 0 0 0
2017/11/04 00:37:00 BASE 9.49 209 11.32 216 -5.7 73 -9.8 4 10 994.4 NA 0.0000 9999 0 0 0 0
2017/11/04 00:38:00 BASE 9.56 209 11.32 216 -5.7 73 -9.8 4 10 994.4 NA 0.0000 9999 0 0 0 0
2017/11/04 00:39:00 BASE 9.01 211 11.32 216 -5.7 73 -9.8 4 9 994.5 NA 0.0000 9999 0 0 0 0
2017/11/04 00:40:00 BASE 7.90 216 11.32 216 -5.7 73 -9.7 4 9 994.5 NA 0.0000 9999 0 0 0 0
2017/11/04 00:41:00 BASE 7.34 215 11.32 216 -5.7 73 -9.7 4 8 994.5 NA 0.0000 9999 0 0 0 0
2017/11/04 00:42:00 BASE 8.43 211 11.32 216 -5.7 74 -9.7 3 8 994.5 NA 0.0000 9999 0 0 0 0
2017/11/04 00:43:00 BASE 8.68 207 11.32 216 -5.7 74 -9.6 3 7 994.5 NA 0.0000 9999 0 0 0 0
2017/11/04 00:44:00 BASE 8.08 206 10.75 204 -5.8 74 -9.6 3 7 994.6 NA 0.0000 9999 0 0 0 0
2017/11/04 00:45:00 BASE 8.59 205 10.75 204 -5.8 74 -9.6 3 7 994.5 NA 0.0000 9999 0 0 0 0
2017/11/04 00:46:00 BASE 8.65 200 10.75 204 -5.8 74 -9.6 3 6 994.6 NA 0.0000 9999 0 0 0 0
2017/11/04 00:47:00 BASE 8.03 202 10.75 204 -5.7 74 -9.6 3 6 994.6 NA 0.0000 9999 0 0 0 0
2017/11/04 00:48:00 BASE 8.17 208 10.75 204 -5.7 74 -9.6 3 5 994.6 NA 0.0000 9999 0 0 0 0
2017/11/04 00:49:01 BASE 8.42 210 10.75 204 -5.7 74 -9.6 2 5 994.6 NA 0.0000 9999 0 0 0 0
2017/11/04 00:50:00 BASE 7.80 206 10.75 204 -5.7 74 -9.5 2 5 994.6 NA 0.0000 9999 0 0 0 0
2017/11/04 00:51:00 BASE 7.76 206 10.75 204 -5.7 75 -9.5 2 4 994.6 NA 0.0000 9999 0 0 0 0
2017/11/04 00:52:00 BASE 8.86 209 10.44 203 -5.7 75 -9.4 2 4 994.5 NA 0.0000 9999 0 0 0 0
2017/11/04 00:53:00 BASE 9.28 204 10.34 215 -5.7 75 -9.4 2 4 994.6 NA 0.0000 9999 0 0 0 0
2017/11/04 00:54:00 BASE 8.75 204 10.34 215 -5.7 75 -9.4 2 4 994.6 NA 0.0000 9999 0 0 0 0
2017/11/04 00:55:00 BASE 8.52 205 10.34 215 -5.7 75 -9.4 2 3 994.6 NA 0.0000 9999 0 0 0 0
2017/11/04 00:56:00 BASE 9.26 204 10.65 205 -5.7 75 -9.4 2 3 994.6 NA 0.0000 9999 0 0 0 0
2017/11/04 00:57:00 BASE 9.77 200 10.65 205 -5.7 75 -9.4 1 3 994.5 NA 0.0000 9999 0 0 0 0
2017/11/04 00:58:00 BASE 8.97 197 10.65 205 -5.6 75 -9.4 1 3 994.6 NA 0.0000 9999 0 0 0 0
2017/11/04 00:59:00 BASE 7.65 202 10.65 205 -5.6 75 -9.3 1 3 994.6 NA 0.0000 9999 1900 0 0 0
2017/11/04 01:00:00 BASE 7.73 208 10.65 205 -5.6 75 -9.3 1 2 994.6 NA 0.0000 9999 0 0 0 0
2017/11/04 01:01:00 BASE 8.69 210 10.65 205 -5.7 75 -9.3 1 2 994.6 NA 0.0000 9999 0 0 0 0
2017/11/04 01:02:00 BASE 8.78 207 10.65 205 -5.6 76 -9.3 1 2 994.6 NA 0.0000 9999 1770 0 0 0
2017/11/04 01:03:00 BASE 7.85 209 10.65 205 -5.6 76 -9.2 1 2 994.7 NA 0.0000 9999 1670 0 0 0
2017/11/04 01:04:00 BASE 7.01 214 10.65 205 -5.7 76 -9.2 1 2 994.7 NA 0.0000 9999 1800 0 0 0
2017/11/04 01:05:00 BASE 7.27 218 10.65 205 -5.6 77 -9.1 1 2 994.7 NA 0.0000 9999 1870 0 0 0
2017/11/04 01:06:00 BASE 7.31 220 10.49 198 -5.6 77 -9.0 1 2 994.7 NA 0.0000 9999 1740 0 0 0
2017/11/04 01:07:00 BASE 6.99 216 9.88 207 -5.6 77 -9.0 1 1 994.7 NA 0.0000 9999 0 0 0 0
2017/11/04 01:08:00 BASE 7.35 210 9.88 207 -5.6 78 -8.9 1 1 994.7 NA 0.0000 9999 0 0 0 0
2017/11/04 01:09:00 BASE 7.05 211 9.88 207 -5.6 78 -8.8 1 1 994.7 NA 0.0000 9999 1510 0 0 0
2017/11/04 01:10:00 BASE 6.54 214 9.88 207 -5.6 78 -8.7 1 1 994.7 NA 0.0000 9999 0 0 0 0
2017/11/04 01:11:00 BASE 6.69 216 9.11 213 -5.6 79 -8.7 1 1 994.7 NA 0.0000 9999 1440 0 0 0
2017/11/04 01:12:00 BASE 7.08 216 9.11 213 -5.6 79 -8.7 1 1 994.7 NA 0.0000 9999 1710 0 0 0
2017/11/04 01:13:00 BASE 6.54 218 9.11 213 -5.7 80 -8.6 0 1 994.8 NA 0.0000 9999 1770 0 0 0
2017/11/04 01:14:00 BASE 6.34 220 9.11 213 -5.7 80 -8.6 0 1 994.7 NA 0.0000 9999 1570 2030 0 0
2017/11/04 01:15:00 BASE 7.27 219 8.39 220 -5.7 80 -8.5 0 1 994.8 NA 0.0000 9999 1610 0 0 0
2017/11/04 01:16:00 BASE 7.46 221 9.11 216 -5.7 81 -8.5 0 1 994.8 NA 0.0000 9999 1510 0 0 0
2017/11/04 01:17:00 BASE 7.01 223 9.11 216 -5.7 81 -8.5 0 1 994.8 NA 0.0000 9999 1440 0 0 0
2017/11/04 01:18:00 BASE 6.63 223 9.11 216 -5.7 81 -8.4 0 1 994.8 NA 0.0000 9999 1510 0 0 0
2017/11/04 01:19:00 BASE 6.79 219 9.11 216 -5.7 81 -8.4 0 1 994.8 NA 0.0000 9999 1670 0 0 0
2017/11/04 01:20:00 BASE 6.75 213 9.11 216 -5.7 82 -8.3 0 1 994.8 NA 0.0000 9999 1510 0 0 0
2017/11/04 01:21:00 BASE 7.02 211 9.11 216 -5.7 82 -8.3 0 0 994.9 NA 0.0000 9999 1570 0 0 0
2017/11/04 01:22:00 BASE 6.79 216 9.11 216 -5.7 82 -8.3 0 0 994.9 NA 0.0000 9999 1970 0 0 0
2017/11/04 01:23:00 BASE 7.00 221 9.11 216 -5.7 82 -8.3 0 0 994.9 NA 0.0000 9999 1800 0 0 0
2017/11/04 01:24:00 BASE 7.81 222 9.21 221 -5.7 82 -8.3 0 0 994.9 NA 0.0000 9999 2030 0 0 0
2017/11/04 01:25:00 BASE 7.60 222 9.21 221 -5.7 82 -8.3 0 0 994.9 NA 0.0000 9999 1800 0 0 0
2017/11/04 01:26:00 BASE 7.63 220 9.21 221 -5.7 82 -8.3 0 0 994.9 NA 0.0000 9999 1800 0 0 0
2017/11/04 01:27:00 BASE 7.65 220 9.21 221 -5.7 82 -8.4 0 0 995.0 NA 0.0000 9999 2170 0 0 0
2017/11/04 01:28:00 BASE 7.86 217 10.39 212 -5.8 82 -8.4 0 0 995.0 NA 0.0000 9999 1970 0 0 0
2017/11/04 01:29:00 BASE 7.97 216 10.39 212 -5.8 81 -8.5 0 0 995.0 NA 0.0000 9999 2300 0 0 0
2017/11/04 01:30:00 BASE 7.50 219 10.39 212 -5.8 81 -8.5 0 0 995.1 NA 0.0000 9999 0 0 0 0
2017/11/04 01:31:00 BASE 7.17 219 10.39 212 -5.8 80 -8.7 0 0 995.1 NA 0.0000 9999 0 0 0 0
2017/11/04 01:32:00 BASE 7.01 218 10.39 212 -5.8 80 -8.7 0 0 995.1 NA 0.0000 9999 2230 0 0 0
2017/11/04 01:33:00 BASE 7.25 215 10.39 212 -5.8 79 -8.8 0 0 995.1 NA 0.0000 9999 0 0 0 0
2017/11/04 01:34:00 BASE 7.22 214 10.39 212 -5.8 79 -8.8 0 0 995.1 NA 0.0000 9999 0 0 0 0
2017/11/04 01:35:00 BASE 7.18 220 10.39 212 -5.8 79 -8.9 0 0 995.1 NA 0.0000 9999 0 0 0 0
2017/11/04 01:36:00 BASE 7.86 224 10.39 212 -5.8 79 -8.9 0 0 995.0 NA 0.0000 9999 2100 0 0 0
2017/11/04 01:37:00 BASE 8.60 223 10.39 212 -5.9 79 -8.9 0 0 995.1 NA 0.0000 9999 0 0 0 0
2017/11/04 01:38:00 BASE 8.55 220 9.93 225 -5.9 79 -9.0 0 0 995.1 NA 0.0000 9999 0 0 0 0
2017/11/04 01:39:00 BASE 7.90 217 9.93 225 -5.9 79 -9.0 0 0 995.1 NA 0.0000 9999 0 0 0 0
2017/11/04 01:40:00 BASE 7.73 218 9.93 225 -5.9 78 -9.0 0 0 995.1 NA 0.0000 9999 0 0 0 0
2017/11/04 01:41:00 BASE 8.28 221 9.93 225 -5.9 78 -9.1 0 0 995.1 NA 0.0000 9999 2130 0 0 0
2017/11/04 01:42:00 BASE 7.81 221 9.93 225 -5.9 78 -9.1 0 0 995.1 NA 0.0000 9999 0 0 0 0
2017/11/04 01:43:00 BASE 7.00 217 9.93 225 -5.9 78 -9.1 0 0 995.1 NA 0.0000 9999 0 0 0 0
2017/11/04 01:44:00 BASE 7.27 217 9.93 225 -5.9 78 -9.1 0 0 995.1 NA 0.0000 9999 0 0 0 0
2017/11/04 01:45:00 BASE 7.23 216 9.93 225 -5.9 78 -9.2 0 0 995.1 NA 0.0000 9999 0 0 0 0
2017/11/04 01:46:00 BASE 7.87 213 9.93 225 -6.0 78 -9.2 0 0 995.1 NA 0.0000 9999 0 0 0 0
2017/11/04 01:47:00 BASE 8.72 212 9.93 216 -6.0 78 -9.2 0 0 995.1 NA 0.0000 9999 0 0 0 0
2017/11/04 01:48:00 BASE 8.65 211 9.93 216 -6.0 78 -9.2 0 0 995.1 NA 0.0000 9999 0 0 0 0
2017/11/04 01:49:00 BASE 7.79 212 9.93 216 -6.0 78 -9.2 0 0 995.2 NA 0.0000 9999 0 0 0 0
2017/11/04 01:50:00 BASE 7.25 215 9.93 216 -5.9 78 -9.2 0 0 995.1 NA 0.0000 9999 0 0 0 0
2017/11/04 01:51:00 BASE 8.25 212 9.93 216 -5.9 78 -9.1 0 0 995.2 NA 0.0000 9999 0 0 0 0
2017/11/04 01:52:00 BASE 8.30 208 9.93 216 -5.9 78 -9.1 0 0 995.2 NA 0.0000 9999 0 0 0 0
2017/11/04 01:53:00 BASE 7.63 212 9.93 216 -5.9 78 -9.1 0 0 995.2 NA 0.0000 9999 0 0 0 0
2017/11/04 01:54:00 BASE 7.04 219 9.93 216 -5.9 78 -9.1 0 0 995.2 NA 0.0000 9999 0 0 0 0
2017/11/04 01:55:00 BASE 6.74 221 9.93 216 -5.9 78 -9.1 0 0 995.2 NA 0.0000 9999 2030 0 0 0
2017/11/04 01:56:00 BASE 6.92 221 9.93 216 -5.9 78 -9.1 0 0 995.3 NA 0.0000 9999 1870 0 0 0
2017/11/04 01:57:00 BASE 6.69 222 9.88 205 -5.9 78 -9.1 0 0 995.2 NA 0.0000 9999 1940 0 0 0
2017/11/04 01:58:00 BASE 7.19 225 9.88 205 -5.9 79 -9.0 0 0 995.2 NA 0.0000 9999 1640 2230 0 0
2017/11/04 01:59:00 BASE 7.58 227 9.88 205 -5.9 79 -8.9 0 0 995.2 NA 0.0000 9999 1740 0 0 0
2017/11/04 02:00:00 BASE 7.86 225 9.88 205 -5.9 80 -8.8 0 0 995.2 NA 0.0000 9999 1670 0 0 0
2017/11/04 02:01:00 BASE 8.27 228 9.72 231 -5.9 81 -8.7 0 0 995.2 NA 0.0000 9999 1350 0 0 0
2017/11/04 02:02:00 BASE 7.69 230 9.72 231 -5.9 81 -8.6 0 0 995.2 NA 0.0000 9999 1350 0 0 0
2017/11/04 02:03:00 BASE 7.92 229 9.72 231 -5.9 82 -8.5 0 0 995.2 NA 0.0000 9999 1380 0 0 0
2017/11/04 02:04:00 BASE 8.73 228 10.60 221 -5.9 82 -8.4 0 0 995.2 NA 0.0000 9999 1310 0 0 0
2017/11/04 02:05:00 BASE 8.67 224 10.60 221 -5.9 83 -8.4 0 0 995.2 NA 0.0000 9999 1280 0 0 0
2017/11/04 02:06:00 BASE 8.59 224 10.60 221 -5.9 83 -8.3 0 0 995.2 NA 0.0000 9999 1350 0 0 0
2017/11/04 02:07:00 BASE 8.58 227 10.60 221 -5.9 83 -8.3 0 0 995.2 NA 0.0000 9999 1350 0 0 0
2017/11/04 02:08:00 BASE 8.14 226 10.60 221 -5.9 84 -8.3 0 0 995.2 NA 0.0000 9999 1210 0 0 0
2017/11/04 02:09:00 BASE 8.14 224 10.60 221 -6.0 84 -8.2 0 0 995.3 NA 0.0000 9999 1440 0 0 0
2017/11/04 02:10:00 BASE 9.10 226 11.27 220 -6.0 84 -8.2 0 0 995.2 NA 0.0000 9999 1250 0 0 0
2017/11/04 02:11:00 BASE 9.32 227 11.27 220 -6.0 85 -8.2 0 0 995.2 NA 0.0000 9999 1280 0 0 0
2017/11/04 02:12:00 BASE 9.02 226 11.27 220 -6.0 85 -8.2 0 0 995.3 NA 0.0000 9999 1510 0 0 0
2017/11/04 02:13:00 BASE 9.01 224 11.27 220 -6.0 85 -8.1 0 0 995.3 NA 0.0000 9999 1510 0 0 0
2017/11/04 02:14:00 BASE 8.84 220 11.27 220 -6.1 85 -8.1 0 0 995.3 NA 0.0000 9999 1380 0 0 0
2017/11/04 02:15:00 BASE 9.32 222 11.27 220 -6.1 85 -8.1 0 0 995.3 NA 0.0000 9999 1410 0 0 0
2017/11/04 02:16:00 BASE 9.10 219 11.27 220 -6.1 86 -8.1 0 0 995.3 NA 0.0000 9999 1310 0 0 0
2017/11/04 02:17:00 BASE 8.66 215 11.27 220 -6.1 86 -8.1 0 0 995.3 NA 0.0000 9999 1310 0 0 0
2017/11/04 02:18:00 BASE 9.04 217 11.27 220 -6.1 86 -8.1 0 0 995.3 NA 0.0000 9999 0 0 0 0
2017/11/04 02:19:00 BASE 9.12 219 11.27 220 -6.1 86 -8.1 0 0 995.3 NA 0.0000 9999 1410 0 0 0
2017/11/04 02:20:00 BASE 9.41 223 11.11 220 -6.2 86 -8.1 0 0 995.3 NA 0.0000 9999 1480 0 0 0
2017/11/04 02:21:00 BASE 9.83 225 11.16 222 -6.2 86 -8.1 0 0 995.3 NA 0.0000 9999 1770 0 0 0
2017/11/04 02:22:00 BASE 9.49 226 11.16 222 -6.2 86 -8.2 0 0 995.3 NA 0.0000 9999 1570 0 0 0
2017/11/04 02:23:00 BASE 8.89 225 11.16 222 -6.2 86 -8.2 0 0 995.4 NA 0.0000 9999 0 0 0 0
2017/11/04 02:24:00 BASE 8.67 224 11.16 222 -6.2 86 -8.2 0 0 995.4 NA 0.0000 9999 1480 0 0 0
2017/11/04 02:25:00 BASE 8.74 226 11.16 222 -6.2 86 -8.2 0 0 995.3 NA 0.0000 9999 1250 0 0 0
2017/11/04 02:26:00 BASE 8.89 226 11.16 222 -6.3 86 -8.2 0 0 995.3 NA 0.0000 9999 1480 0 0 0
2017/11/04 02:27:00 BASE 8.23 227 11.16 222 -6.3 86 -8.2 0 0 995.4 NA 0.0000 9999 1280 0 0 0
2017/11/04 02:28:00 BASE 8.06 223 11.16 222 -6.3 86 -8.2 0 0 995.4 NA 0.0000 9999 1610 0 0 0
2017/11/04 02:29:00 BASE 9.00 218 11.16 222 -6.3 87 -8.1 0 0 995.4 NA 0.0000 9999 0 0 0 0
2017/11/04 02:30:00 BASE 9.43 219 11.16 222 -6.3 87 -8.1 0 0 995.4 NA 0.0000 9999 1540 0 0 0
2017/11/04 02:31:00 BASE 8.58 219 10.91 220 -6.3 87 -8.2 0 0 995.4 NA 0.0000 9999 0 0 0 0
2017/11/04 02:32:00 BASE 7.47 220 10.91 220 -6.3 87 -8.1 0 0 995.5 NA 0.0000 9999 1310 0 0 0
2017/11/04 02:33:00 BASE 7.99 226 10.91 220 -6.3 87 -8.1 0 0 995.4 NA 0.0000 9999 980 1640 0 0
2017/11/04 02:34:00 BASE 8.88 232 10.91 220 -6.3 87 -8.1 0 0 995.5 NA 0.0000 9999 920 1380 0 0
2017/11/04 02:35:00 BASE 9.36 231 10.91 220 -6.3 87 -8.0 0 0 995.5 NA 0.0000 9999 1150 0 0 0
2017/11/04 02:36:00 BASE 9.65 230 10.91 220 -6.3 88 -7.9 0 0 995.5 NA 0.0000 9999 1310 0 0 0
2017/11/04 02:37:00 BASE 9.59 230 10.91 220 -6.2 88 -7.9 0 0 995.5 NA 0.0000 9999 1120 0 0 0
2017/11/04 02:38:00 BASE 9.22 228 10.91 220 -6.2 89 -7.8 0 0 995.5 NA 0.0000 9999 1410 0 0 0
2017/11/04 02:39:00 BASE 8.97 229 10.91 220 -6.3 89 -7.8 0 0 995.5 NA 0.0000 9999 1020 2230 0 0
2017/11/04 02:40:00 BASE 9.38 228 11.11 225 -6.3 90 -7.7 0 0 995.5 NA 0.0000 9999 980 1710 0 0
2017/11/04 02:41:00 BASE 9.17 224 11.11 225 -6.3 90 -7.7 0 0 995.5 NA 0.0000 9999 1050 0 0 0
2017/11/04 02:42:00 BASE 8.23 225 11.11 225 -6.3 90 -7.7 0 0 995.6 NA 0.0000 9999 1150 0 0 0
2017/11/04 02:43:00 BASE 8.21 230 11.11 225 -6.3 90 -7.7 0 0 995.5 NA 0.0000 9999 1020 0 0 0
2017/11/04 02:44:00 BASE 8.71 233 11.11 225 -6.3 90 -7.6 0 0 995.5 NA 0.0000 9999 980 0 0 0
2017/11/04 02:45:00 BASE 9.00 232 11.11 225 -6.3 91 -7.6 0 0 995.5 NA 0.0000 9999 1080 0 0 0
2017/11/04 02:46:01 BASE 9.20 228 11.11 225 -6.4 91 -7.6 0 0 995.5 NA 0.0000 9999 1020 0 0 0
2017/11/04 02:47:01 BASE 9.27 227 11.11 225 -6.4 91 -7.6 0 0 995.5 NA 0.0000 9999 1020 0 0 0
2017/11/04 02:48:01 BASE 9.68 230 11.11 225 -6.4 91 -7.7 0 0 995.5 NA 0.0000 9999 1080 0 0 0
2017/11/04 02:49:01 BASE 10.13 230 11.57 230 -6.5 91 -7.7 0 0 995.5 NA 0.0000 9999 1050 0 0 0
2017/11/04 02:50:01 BASE 10.29 230 11.57 230 -6.6 91 -7.7 0 0 995.6 NA 0.0000 9999 1250 0 0 0
2017/11/04 02:51:01 BASE 10.27 233 11.57 230 -6.6 92 -7.7 0 0 995.6 NA 0.0000 9999 1280 0 0 0
2017/11/04 02:52:01 BASE 10.25 234 11.68 230 -6.7 92 -7.8 0 0 995.6 NA 0.0000 9999 1150 0 0 0
2017/11/04 02:53:01 BASE 10.09 233 11.78 228 -6.7 92 -7.8 0 0 995.6 NA 0.0000 9999 1120 0 0 0
2017/11/04 02:54:01 BASE 10.06 231 11.78 228 -6.7 92 -7.8 0 0 995.6 NA 0.0000 9999 1210 0 0 0
2017/11/04 02:55:01 BASE 9.55 229 11.78 228 -6.8 92 -7.9 0 0 995.7 NA 0.0000 9999 1480 0 0 0
2017/11/04 02:56:01 BASE 9.13 229 11.78 228 -6.8 92 -7.9 0 0 995.7 NA 0.0000 9999 1250 0 0 0
2017/11/04 02:57:01 BASE 9.19 231 11.78 228 -6.8 92 -7.9 0 0 995.7 NA 0.0000 9999 1050 0 0 0
2017/11/04 02:58:01 BASE 8.88 232 11.78 228 -6.9 92 -8.0 0 0 995.7 NA 0.0000 9999 980 0 0 0
2017/11/04 02:59:01 BASE 9.16 235 11.78 228 -6.9 92 -8.0 0 0 995.8 NA 0.0000 9999 1050 0 0 0
2017/11/04 03:00:01 BASE 9.29 236 11.78 228 -6.9 92 -8.0 0 0 995.8 NA 0.0000 9999 950 0 0 0
2017/11/04 03:01:01 BASE 8.45 236 11.78 228 -6.9 92 -8.0 0 0 995.8 NA 0.0000 9999 1150 0 0 0
2017/11/04 03:02:01 BASE 8.31 235 11.78 228 -7.0 92 -8.0 0 0 995.8 NA 0.0000 9999 1120 0 0 0
2017/11/04 03:03:01 BASE 8.75 238 10.80 236 -7.0 92 -8.1 0 0 995.8 NA 0.0000 9999 1020 0 0 0
2017/11/04 03:04:01 BASE 8.10 240 10.70 233 -7.0 92 -8.1 0 0 995.9 NA 0.0000 9999 920 0 0 0
2017/11/04 03:05:01 BASE 7.55 240 10.70 233 -7.0 92 -8.0 0 0 995.9 NA 0.0000 9999 920 0 0 0
2017/11/04 03:06:01 BASE 8.05 238 10.70 233 -7.0 93 -8.0 0 0 995.9 NA 0.0000 9999 980 0 0 0
2017/11/04 03:07:01 BASE 7.96 240 10.70 233 -7.0 93 -8.0 0 0 995.9 NA 0.0000 9999 890 0 0 0
2017/11/04 03:08:01 BASE 7.38 241 10.70 233 -7.0 93 -7.9 0 0 995.9 NA 0.0000 9999 950 0 0 0
2017/11/04 03:09:01 BASE 7.74 238 10.08 243 -7.0 93 -7.9 0 0 995.9 NA 0.0000 9999 950 0 0 0
2017/11/04 03:10:01 BASE 8.13 234 10.08 243 -7.0 93 -8.0 0 0 995.9 NA 0.0000 9999 950 0 0 0
2017/11/04 03:11:01 BASE 8.00 235 10.08 243 -7.0 93 -8.0 0 0 995.9 NA 0.0000 9999 890 0 0 0
2017/11/04 03:12:01 BASE 7.56 243 10.08 243 -7.1 93 -8.0 0 0 995.9 NA 0.0000 9999 850 0 0 0
2017/11/04 03:13:01 BASE 7.66 242 9.77 239 -7.1 94 -7.9 0 0 996.0 NA 0.0000 9999 920 0 0 0
2017/11/04 03:14:01 BASE 8.18 238 9.77 239 -7.1 94 -7.9 0 0 995.9 NA 0.0000 9999 1050 0 0 0
2017/11/04 03:15:01 BASE 7.91 238 9.77 239 -7.1 94 -7.9 0 0 995.9 NA 0.0000 9999 950 0 0 0
2017/11/04 03:16:01 BASE 8.00 237 9.52 233 -7.1 94 -7.9 0 0 995.9 NA 0.0000 9999 950 0 0 0
2017/11/04 03:17:01 BASE 8.31 237 9.98 243 -7.2 94 -8.0 0 0 996.0 NA 0.0000 9999 1020 0 0 0
2017/11/04 03:18:01 BASE 7.99 242 9.98 243 -7.2 94 -8.0 0 0 996.0 NA 0.0000 9999 980 0 0 0
2017/11/04 03:19:01 BASE 7.83 243 9.98 243 -7.2 94 -8.0 0 0 996.0 NA 0.0000 9999 1050 0 0 0
2017/11/04 03:20:01 BASE 7.88 237 9.98 243 -7.2 94 -8.0 0 0 996.0 NA 0.0000 9999 1050 0 0 0
2017/11/04 03:21:01 BASE 7.52 238 9.98 243 -7.2 94 -8.0 0 0 996.0 NA 0.0000 9999 950 0 0 0
2017/11/04 03:22:01 BASE 7.03 240 9.98 243 -7.2 94 -8.0 0 0 996.0 NA 0.0000 9999 1050 1510 0 0
2017/11/04 03:23:01 BASE 6.70 243 9.98 243 -7.2 94 -8.0 0 0 996.0 NA 0.0000 9999 1280 0 0 0
2017/11/04 03:24:01 BASE 7.58 242 9.98 243 -7.2 94 -8.0 0 0 996.0 NA 0.0000 9999 980 0 0 0
2017/11/04 03:25:01 BASE 8.24 240 9.98 243 -7.2 94 -8.0 0 0 996.0 NA 0.0000 9999 1180 0 0 0
2017/11/04 03:26:01 BASE 8.58 237 10.19 245 -7.2 94 -8.0 0 0 996.0 NA 0.0000 9999 1120 0 0 0
2017/11/04 03:27:01 BASE 8.63 231 10.19 245 -7.2 94 -8.0 0 0 996.0 NA 0.0000 9999 1150 0 0 0
2017/11/04 03:28:01 BASE 7.91 231 10.19 245 -7.2 94 -8.0 0 0 996.0 NA 0.0000 9999 1210 0 0 0
2017/11/04 03:29:01 BASE 7.70 234 10.19 245 -7.2 94 -8.0 0 0 996.0 NA 0.0000 9999 1050 0 0 0
2017/11/04 03:30:01 BASE 7.82 232 10.19 245 -7.2 94 -8.0 0 0 996.0 NA 0.0000 9999 1080 0 0 0
2017/11/04 03:31:01 BASE 7.88 228 10.19 245 -7.2 94 -8.0 0 0 996.0 NA 0.0000 9999 1120 0 0 0
2017/11/04 03:32:01 BASE 8.10 230 10.19 245 -7.2 94 -8.0 0 0 996.0 NA 0.0000 9999 1150 0 0 0
2017/11/04 03:33:01 BASE 8.67 231 10.19 245 -7.2 94 -8.0 0 0 996.0 NA 0.0000 9999 1280 0 0 0
2017/11/04 03:34:01 BASE 8.19 231 10.19 245 -7.2 94 -8.0 0 0 996.1 NA 0.0000 9999 1280 0 0 0
2017/11/04 03:35:01 BASE 7.39 232 10.19 245 -7.2 94 -8.0 0 0 996.1 NA 0.0000 9999 1540 0 0 0
2017/11/04 03:36:01 BASE 7.15 235 9.52 232 -7.2 94 -8.0 0 0 996.1 NA 0.0000 9999 980 0 0 0
2017/11/04 03:37:01 BASE 7.01 237 9.77 237 -7.2 94 -8.0 0 0 996.1 NA 0.0000 9999 1080 0 0 0
2017/11/04 03:38:01 BASE 7.77 235 9.83 245 -7.2 94 -8.0 0 0 996.0 NA 0.0000 9999 980 0 0 0
2017/11/04 03:39:01 BASE 7.63 235 9.83 245 -7.1 94 -8.0 0 0 996.0 NA 0.0000 9999 1210 0 0 0
2017/11/04 03:40:01 BASE 7.06 235 9.83 245 -7.1 94 -7.9 0 0 996.0 NA 0.0000 9999 1020 0 0 0
2017/11/04 03:41:01 BASE 6.97 235 9.83 245 -7.1 94 -7.9 0 0 996.0 NA 0.0000 9999 1020 0 0 0
2017/11/04 03:42:01 BASE 6.96 239 9.83 245 -7.1 94 -7.9 0 0 996.0 NA 0.0000 9999 1020 0 0 0
2017/11/04 03:43:01 BASE 7.73 239 9.83 245 -7.1 94 -7.9 0 0 996.0 NA 0.0000 9999 920 0 0 0
2017/11/04 03:44:01 BASE 8.10 235 9.83 245 -7.0 94 -7.8 0 0 996.0 NA 0.0000 9999 1150 0 0 0
2017/11/04 03:45:01 BASE 8.27 236 9.83 245 -7.0 94 -7.8 0 0 996.0 NA 0.0000 9999 1020 0 0 0
2017/11/04 03:46:01 BASE 7.99 236 9.83 245 -7.0 94 -7.8 0 0 996.0 NA 0.0000 9999 1050 0 0 0
2017/11/04 03:47:01 BASE 7.74 236 9.83 245 -7.0 94 -7.8 0 0 996.0 NA 0.0000 9999 1050 2030 0 0
2017/11/04 03:48:01 BASE 7.70 235 9.41 235 -7.0 94 -7.8 0 0 996.0 NA 0.0000 9999 1120 0 0 0
2017/11/04 03:49:01 BASE 7.76 235 9.41 235 -7.0 94 -7.8 0 0 996.0 NA 0.0000 9999 1050 0 0 0
2017/11/04 03:50:01 BASE 7.87 235 9.41 235 -7.0 94 -7.8 0 0 996.0 NA 0.0000 9999 1080 0 0 0
2017/11/04 03:51:01 BASE 7.78 236 9.41 235 -7.0 94 -7.8 0 0 996.0 NA 0.0000 9999 1020 0 0 0
2017/11/04 03:52:01 BASE 7.46 233 9.41 235 -7.0 94 -7.8 0 0 996.0 NA 0.0000 9999 950 0 0 0
2017/11/04 03:53:01 BASE 7.40 233 9.41 235 -7.0 94 -7.8 0 0 996.0 NA 0.0000 9999 1050 0 0 0
2017/11/04 03:54:01 BASE 7.97 236 9.41 235 -7.0 94 -7.8 0 0 996.0 NA 0.0000 9999 1050 0 0 0
2017/11/04 03:55:01 BASE 8.25 238 9.41 235 -7.0 94 -7.8 0 0 996.1 NA 0.0000 9999 1080 0 0 0
2017/11/04 03:56:01 BASE 7.88 237 9.41 235 -7.0 94 -7.8 0 0 996.1 NA 0.0000 9999 1050 0 0 0
2017/11/04 03:57:01 BASE 7.73 236 9.26 242 -7.0 94 -7.8 0 0 996.1 NA 0.0000 9999 1020 0 0 0
2017/11/04 03:58:01 BASE 7.94 236 9.26 242 -6.9 94 -7.7 0 0 996.1 NA 0.0000 9999 1080 0 0 0
2017/11/04 03:59:01 BASE 7.70 236 9.11 235 -6.9 94 -7.7 0 0 996.1 NA 0.0000 9999 1080 0 0 0
2017/11/04 04:00:01 BASE 7.62 233 9.52 236 -6.9 94 -7.7 0 0 996.1 NA 0.0000 9999 1020 0 0 0
2017/11/04 04:01:01 BASE 7.84 230 9.52 236 -6.9 94 -7.7 0 0 996.2 NA 0.0000 9999 1020 0 0 0
2017/11/04 04:02:01 BASE 7.50 227 9.52 236 -6.9 94 -7.7 0 0 996.2 NA 0.0000 9999 1020 0 0 0
2017/11/04 04:03:01 BASE 7.25 227 9.52 236 -6.9 94 -7.7 0 0 996.2 NA 0.0000 9999 920 0 0 0
2017/11/04 04:04:01 BASE 7.19 232 9.52 236 -6.9 94 -7.7 0 0 996.2 NA 0.0000 9999 890 0 0 0
2017/11/04 04:05:01 BASE 7.79 232 9.52 236 -6.9 94 -7.7 0 0 996.1 NA 0.0000 9999 950 0 0 0
2017/11/04 04:06:01 BASE 7.90 229 9.52 236 -6.9 94 -7.7 0 0 996.2 NA 0.0000 9999 1210 0 0 0
2017/11/04 04:07:01 BASE 7.21 227 9.52 236 -6.9 94 -7.7 0 0 996.3 NA 0.0000 9999 1080 0 0 0
2017/11/04 04:08:01 BASE 7.73 230 9.57 229 -6.9 94 -7.7 0 0 996.2 NA 0.0000 9999 1020 0 0 0
2017/11/04 04:09:01 BASE 8.45 231 9.57 229 -6.9 94 -7.7 0 0 996.2 NA 0.0000 9999 1080 1740 0 0
2017/11/04 04:10:01 BASE 8.59 227 9.62 228 -6.9 94 -7.7 0 0 996.3 NA 0.0000 9999 1180 0 0 0
2017/11/04 04:11:01 BASE 8.44 229 9.62 228 -6.9 94 -7.7 0 0 996.2 NA 0.0000 9999 1280 2330 0 0
2017/11/04 04:12:01 BASE 7.89 229 9.62 228 -6.9 94 -7.7 0 0 996.2 NA 0.0000 9999 1310 0 0 0
2017/11/04 04:13:01 BASE 7.24 228 9.62 228 -6.9 94 -7.7 0 0 996.2 NA 0.0000 9999 1150 0 0 0
2017/11/04 04:14:01 BASE 7.25 231 9.62 228 -6.9 94 -7.7 0 0 996.3 NA 0.0000 9999 1180 0 0 0
2017/11/04 04:15:01 BASE 7.99 229 9.62 228 -7.0 94 -7.8 0 0 996.2 NA 0.0000 9999 1080 2000 0 0
2017/11/04 04:16:01 BASE 7.73 229 9.62 228 -7.0 94 -7.8 0 0 996.2 NA 0.0000 9999 1250 0 0 0
2017/11/04 04:17:01 BASE 7.40 233 9.62 228 -6.9 94 -7.7 0 0 996.2 NA 0.0000 9999 1080 0 0 0
2017/11/04 04:18:01 BASE 7.90 236 9.62 228 -6.9 94 -7.7 0 0 996.2 NA 0.0000 9999 1080 0 0 0
2017/11/04 04:19:01 BASE 8.03 236 9.62 228 -6.9 94 -7.8 0 0 996.2 NA 0.0000 9999 1080 0 0 0
2017/11/04 04:20:01 BASE 7.88 234 9.31 226 -6.9 94 -7.8 0 0 996.2 NA 0.0000 9999 1150 0 0 0
2017/11/04 04:21:01 BASE 7.18 230 9.31 226 -6.9 94 -7.7 0 0 996.3 NA 0.0000 9999 1020 0 0 0
2017/11/04 04:22:01 BASE 6.81 230 9.31 226 -6.9 94 -7.7 0 0 996.3 NA 0.0000 9999 980 0 0 0
2017/11/04 04:23:01 BASE 7.42 231 9.31 226 -6.8 94 -7.7 0 0 996.3 NA 0.0000 9999 1120 2690 0 0
2017/11/04 04:24:01 BASE 7.65 228 9.31 226 -6.8 94 -7.6 0 0 996.3 NA 0.0000 9999 1120 0 0 0
2017/11/04 04:25:01 BASE 7.31 226 9.16 233 -6.8 94 -7.6 0 0 996.3 NA 0.0000 9999 1280 0 0 0
2017/11/04 04:26:01 BASE 6.92 230 9.16 233 -6.8 94 -7.6 0 0 996.3 NA 0.0000 9999 1210 0 0 0
2017/11/04 04:27:01 BASE 6.97 229 9.16 233 -6.8 94 -7.6 0 0 996.3 NA 0.0000 9999 1080 0 0 0
2017/11/04 04:28:01 BASE 7.04 227 9.16 233 -6.7 94 -7.5 0 0 996.3 NA 0.0000 9999 1870 0 0 0
2017/11/04 04:29:01 BASE 6.63 223 9.16 233 -6.7 94 -7.5 0 0 996.3 NA 0.0000 9999 1380 0 0 0
2017/11/04 04:30:01 BASE 6.16 220 8.49 231 -6.7 94 -7.5 0 0 996.3 NA 0.0000 9999 1150 0 0 0
2017/11/04 04:31:01 BASE 6.03 222 8.49 231 -6.7 94 -7.5 0 0 996.3 NA 0.0000 9999 1120 0 0 0
2017/11/04 04:32:01 BASE 6.12 227 8.49 231 -6.7 93 -7.6 0 0 996.3 NA 0.0000 9999 1080 0 0 0
2017/11/04 04:33:01 BASE 6.20 228 8.08 234 -6.7 93 -7.6 0 0 996.3 NA 0.0000 9999 1150 0 0 0
2017/11/04 04:34:01 BASE 6.47 229 8.08 234 -6.7 93 -7.6 0 0 996.3 NA 0.0000 9999 1210 0 0 0
2017/11/04 04:35:01 BASE 6.96 233 8.23 233 -6.6 93 -7.6 0 0 996.2 NA 0.0000 9999 1350 1970 0 0
2017/11/04 04:36:01 BASE 7.21 234 8.23 233 -6.6 93 -7.6 0 0 996.2 NA 0.0000 9999 1440 0 0 0
2017/11/04 04:37:01 BASE 7.03 225 8.23 233 -6.6 93 -7.6 0 0 996.2 NA 0.0000 9999 1380 0 0 0
2017/11/04 04:38:01 BASE 6.59 221 8.23 233 -6.6 93 -7.6 0 0 996.3 NA 0.0000 9999 1570 0 0 0
2017/11/04 04:39:01 BASE 6.38 228 8.23 233 -6.6 93 -7.5 0 0 996.3 NA 0.0000 9999 1380 1800 0 0
2017/11/04 04:40:01 BASE 6.07 226 8.23 233 -6.6 93 -7.5 0 0 996.3 NA 0.0000 9999 1510 0 0 0
2017/11/04 04:41:01 BASE 5.30 225 8.23 233 -6.6 93 -7.5 0 0 996.3 NA 0.0000 9999 1510 0 0 0
2017/11/04 04:42:01 BASE 5.35 231 8.23 233 -6.6 93 -7.5 0 0 996.3 NA 0.0000 9999 1050 0 0 0
2017/11/04 04:43:01 BASE 6.36 232 8.23 233 -6.6 93 -7.6 0 0 996.3 NA 0.0000 9999 1180 0 0 0
2017/11/04 04:44:01 BASE 7.69 229 9.00 222 -6.6 93 -7.6 0 0 996.2 NA 0.0000 9999 1080 1610 0 0
2017/11/04 04:45:01 BASE 8.52 227 9.41 226 -6.6 93 -7.6 0 0 996.2 NA 0.0000 9999 1180 0 0 0
2017/11/04 04:46:01 BASE 7.95 217 9.41 226 -6.6 93 -7.6 0 0 996.2 NA 0.0000 9999 1150 1940 0 0
2017/11/04 04:47:01 BASE 7.40 206 9.41 226 -6.7 93 -7.6 0 0 996.3 NA 0.0000 9999 1510 2130 0 0
2017/11/04 04:48:01 BASE 7.08 203 9.41 226 -6.7 93 -7.7 0 0 996.3 NA 0.0000 9999 1310 2170 2820 0
2017/11/04 04:49:01 BASE 6.56 205 9.41 226 -6.7 93 -7.7 0 0 996.3 NA 0.0000 9999 1310 0 0 0
2017/11/04 04:50:01 BASE 6.00 216 9.41 226 -6.7 92 -7.8 0 0 996.3 NA 0.0000 9999 1150 0 0 0
2017/11/04 04:51:01 BASE 6.08 225 9.41 226 -6.7 92 -7.8 0 0 996.3 NA 0.0000 9999 1250 0 0 0
2017/11/04 04:52:01 BASE 7.02 226 9.41 226 -6.7 91 -7.8 0 0 996.2 NA 0.0000 9999 1150 1670 0 0
2017/11/04 04:53:01 BASE 7.36 224 9.41 226 -6.6 91 -7.8 0 0 996.3 NA 0.0000 9999 1250 0 0 0
2017/11/04 04:54:01 BASE 6.94 225 9.41 226 -6.6 91 -7.9 0 0 996.3 NA 0.0000 9999 1210 0 0 0
2017/11/04 04:55:01 BASE 6.70 232 8.75 219 -6.6 91 -7.9 0 0 996.3 NA 0.0000 9999 1250 0 0 0
2017/11/04 04:56:01 BASE 6.79 236 8.75 219 -6.7 91 -7.9 0 0 996.3 NA 0.0000 9999 1180 0 0 0
2017/11/04 04:57:01 BASE 6.47 240 8.75 219 -6.7 91 -7.9 0 0 996.3 NA 0.0000 9999 1180 0 0 0
2017/11/04 04:58:01 BASE 5.94 242 8.75 219 -6.7 91 -7.9 0 0 996.3 NA 0.0000 9999 980 0 0 0
2017/11/04 04:59:01 BASE 6.38 231 8.75 219 -6.6 91 -7.8 0 0 996.3 NA 0.0000 9999 1150 0 0 0
2017/11/04 05:00:01 BASE 6.93 223 8.75 219 -6.6 91 -7.8 0 0 996.3 NA 0.0000 9999 1540 0 0 0
2017/11/04 05:01:01 BASE 6.33 225 8.75 219 -6.6 92 -7.7 0 0 996.3 NA 0.0000 9999 1080 0 0 0
2017/11/04 05:02:01 BASE 5.62 230 8.75 219 -6.5 92 -7.6 0 0 996.3 NA 0.0000 9999 1050 0 0 0
2017/11/04 05:03:01 BASE 6.15 232 8.08 214 -6.5 92 -7.6 0 0 996.3 NA 0.0000 9999 1020 0 0 0
2017/11/04 05:04:01 BASE 6.52 231 8.08 214 -6.5 92 -7.6 0 0 996.3 NA 0.0000 9999 1120 0 0 0
2017/11/04 05:05:01 BASE 6.39 220 8.28 213 -6.6 93 -7.6 0 0 996.3 NA 0.0000 9999 1120 0 0 0
2017/11/04 05:06:01 BASE 6.75 209 8.28 213 -6.6 93 -7.6 0 0 996.4 NA 0.0000 9999 2200 0 0 0
2017/11/04 05:07:01 BASE 7.16 216 9.77 229 -6.6 93 -7.6 0 0 996.3 NA 0.0000 9999 1310 0 0 0
2017/11/04 05:08:01 BASE 7.41 218 9.77 229 -6.7 93 -7.7 0 0 996.3 NA 0.0000 9999 1510 2130 0 0
2017/11/04 05:09:01 BASE 6.85 211 9.77 229 -6.7 92 -7.7 0 0 996.4 NA 0.0000 9999 1840 0 0 0
2017/11/04 05:10:01 BASE 7.06 216 9.77 229 -6.7 92 -7.8 0 0 996.4 NA 0.0000 9999 1350 0 0 0
2017/11/04 05:11:01 BASE 7.13 221 9.77 229 -6.7 91 -7.9 0 0 996.4 NA 0.0000 9999 1770 0 0 0
2017/11/04 05:12:01 BASE 6.66 220 9.77 229 -6.7 91 -7.9 0 0 996.4 NA 0.0000 9999 1640 0 0 0
2017/11/04 05:13:01 BASE 6.58 220 9.77 229 -6.7 91 -8.0 0 0 996.4 NA 0.0000 9999 1640 0 0 0
2017/11/04 05:14:01 BASE 6.93 216 9.77 229 -6.7 90 -8.1 0 0 996.3 NA 0.0000 9999 1440 0 0 0
2017/11/04 05:15:01 BASE 8.05 211 9.77 229 -6.7 90 -8.1 0 0 996.4 NA 0.0000 9999 1900 0 0 0
2017/11/04 05:16:01 BASE 8.41 213 9.77 229 -6.7 89 -8.2 0 0 996.3 NA 0.0000 9999 1610 0 0 0
2017/11/04 05:17:01 BASE 7.61 215 9.31 209 -6.7 89 -8.2 0 0 996.4 NA 0.0000 9999 1770 0 0 0
2017/11/04 05:18:01 BASE 6.79 215 9.31 209 -6.7 89 -8.3 0 0 996.4 NA 0.0000 9999 1740 0 0 0
2017/11/04 05:19:01 BASE 6.91 214 9.31 209 -6.7 88 -8.3 0 0 996.4 NA 0.0000 9999 1800 0 0 0
2017/11/04 05:20:01 BASE 6.82 214 9.31 209 -6.7 88 -8.3 0 0 996.4 NA 0.0000 9999 1210 1870 0 0
2017/11/04 05:21:01 BASE 6.40 215 9.31 209 -6.7 88 -8.4 0 0 996.4 NA 0.0000 9999 1480 0 0 0
2017/11/04 05:22:01 BASE 6.35 224 9.31 209 -6.7 88 -8.3 0 0 996.4 NA 0.0000 9999 1080 0 0 0
2017/11/04 05:23:01 BASE 6.87 228 9.31 209 -6.6 88 -8.2 0 0 996.3 NA 0.0000 9999 1540 0 0 0
2017/11/04 05:24:01 BASE 6.89 215 9.31 209 -6.6 89 -8.2 0 0 996.4 NA 0.0000 9999 1570 0 0 0
2017/11/04 05:25:01 BASE 6.62 206 9.11 213 -6.7 89 -8.2 0 0 996.4 NA 0.0000 9999 1210 0 0 0
2017/11/04 05:26:01 BASE 6.69 212 8.64 214 -6.6 89 -8.2 0 0 996.4 NA 0.0000 9999 1250 0 0 0
2017/11/04 05:27:01 BASE 6.86 222 8.39 227 -6.6 89 -8.1 0 0 996.4 NA 0.0000 9999 1380 0 0 0
2017/11/04 05:28:01 BASE 7.23 225 8.69 225 -6.7 89 -8.1 0 0 996.4 NA 0.0000 9999 1510 0 0 0
2017/11/04 05:29:01 BASE 7.05 222 8.69 225 -6.7 90 -8.1 0 0 996.4 NA 0.0000 9999 1410 0 0 0
2017/11/04 05:30:01 BASE 7.16 214 9.21 211 -6.7 90 -8.1 0 0 996.4 NA 0.0000 9999 1480 0 0 0
2017/11/04 05:31:01 BASE 7.53 209 9.21 211 -6.7 90 -8.1 0 0 996.4 NA 0.0000 9999 1670 0 0 0
2017/11/04 05:32:01 BASE 7.17 213 9.21 211 -6.8 90 -8.1 0 0 996.4 NA 0.0000 9999 1840 0 0 0
2017/11/04 05:33:01 BASE 7.08 216 9.21 211 -6.8 90 -8.2 0 0 996.4 NA 0.0000 9999 1770 0 0 0
2017/11/04 05:34:01 BASE 6.89 213 9.21 211 -6.8 89 -8.3 0 0 996.4 NA 0.0000 9999 1970 0 0 0
2017/11/04 05:35:01 BASE 5.88 216 9.21 211 -6.8 89 -8.3 0 0 996.5 NA 0.0000 9999 1410 0 0 0
2017/11/04 05:36:01 BASE 5.53 223 9.21 211 -6.8 88 -8.4 0 0 996.5 NA 0.0000 9999 1180 0 0 0
2017/11/04 05:37:01 BASE 6.03 221 9.21 211 -6.8 88 -8.5 0 0 996.4 NA 0.0000 9999 1180 0 0 0
2017/11/04 05:38:01 BASE 6.37 219 9.21 211 -6.8 87 -8.5 0 0 996.4 NA 0.0000 9999 1350 0 0 0
2017/11/04 05:39:01 BASE 6.04 227 9.21 211 -6.8 87 -8.6 0 0 996.4 NA 0.0000 9999 1510 0 0 0
2017/11/04 05:40:01 BASE 6.54 234 8.59 212 -6.8 87 -8.6 0 0 996.4 NA 0.0000 9999 1480 0 0 0
2017/11/04 05:41:01 BASE 7.41 236 8.85 234 -6.8 87 -8.5 0 0 996.4 NA 0.0000 9999 1350 0 0 0
2017/11/04 05:42:01 BASE 7.80 231 9.11 243 -6.8 88 -8.5 0 0 996.4 NA 0.0000 9999 1540 0 0 0
2017/11/04 05:43:01 BASE 7.07 221 9.11 243 -6.8 88 -8.5 0 0 996.4 NA 0.0000 9999 1380 1940 0 0
2017/11/04 05:44:01 BASE 6.26 222 9.11 243 -6.8 88 -8.4 0 0 996.4 NA 0.0000 9999 950 0 0 0
2017/11/04 05:45:01 BASE 6.52 231 9.11 243 -6.8 89 -8.4 0 0 996.4 NA 0.0000 9999 1570 0 0 0
2017/11/04 05:46:01 BASE 6.26 234 9.11 243 -6.8 89 -8.3 0 0 996.4 NA 0.0000 9999 1510 0 0 0
2017/11/04 05:47:01 BASE 6.08 234 9.11 243 -6.8 89 -8.3 0 0 996.4 NA 0.0000 9999 1080 1640 0 0
2017/11/04 05:48:01 BASE 6.11 238 9.11 243 -6.8 89 -8.3 0 0 996.4 NA 0.0000 9999 1020 1940 0 0
2017/11/04 05:49:01 BASE 6.21 242 9.11 243 -6.8 89 -8.3 0 0 996.4 NA 0.0000 9999 920 1540 0 0
2017/11/04 05:50:01 BASE 6.64 241 9.11 243 -6.8 89 -8.2 0 0 996.4 NA 0.0000 9999 1480 0 0 0
2017/11/04 05:51:01 BASE 6.61 240 9.11 243 -6.8 90 -8.2 0 0 996.4 NA 0.0000 9999 1670 0 0 0
2017/11/04 05:52:01 BASE 6.94 240 8.80 239 -6.8 90 -8.1 0 0 996.4 NA 0.0000 9999 1840 0 0 0
2017/11/04 05:53:01 BASE 7.48 239 8.80 239 -6.8 91 -8.0 0 0 996.4 NA 0.0000 9999 1770 0 0 0
2017/11/04 05:54:01 BASE 7.04 239 8.80 239 -6.8 91 -8.0 0 0 996.4 NA 0.0000 9999 1250 0 0 0
2017/11/04 05:55:01 BASE 6.98 241 8.80 239 -6.9 92 -8.0 0 0 996.4 NA 0.0000 9999 1020 0 0 0
2017/11/04 05:56:01 BASE 6.91 245 8.80 239 -6.9 92 -7.9 0 0 996.4 NA 0.0000 9999 1080 0 0 0
2017/11/04 05:57:01 BASE 6.87 246 8.80 239 -7.0 93 -7.9 0 0 996.5 NA 0.0000 9999 950 0 0 0
2017/11/04 05:58:01 BASE 7.42 244 8.80 239 -7.0 93 -7.9 0 0 996.4 NA 0.0000 9999 1480 0 0 0
2017/11/04 05:59:01 BASE 7.00 246 8.80 239 -7.0 93 -7.9 0 0 996.4 NA 0.0000 9999 1020 0 0 0
2017/11/04 06:00:01 BASE 6.22 252 8.80 239 -7.0 93 -7.9 0 0 996.5 NA 0.0000 9999 920 1570 0 0
2017/11/04 06:01:01 BASE 6.44 250 8.80 239 -7.0 94 -7.9 0 0 996.5 NA 0.0000 9999 1210 0 0 0
2017/11/04 06:02:01 BASE 6.88 244 8.59 243 -7.0 94 -7.8 0 0 996.5 NA 0.0000 9999 1350 0 0 0
2017/11/04 06:03:01 BASE 7.19 243 8.59 243 -7.0 94 -7.8 0 0 996.5 NA 0.0000 9999 950 0 0 0
2017/11/04 06:04:01 BASE 6.49 247 8.59 243 -7.0 94 -7.8 0 0 996.5 NA 0.0000 9999 1120 1870 0 0
2017/11/04 06:05:01 BASE 6.77 245 8.90 238 -7.0 94 -7.8 0 0 996.5 NA 0.0000 9999 980 0 0 0
2017/11/04 06:06:01 BASE 7.38 243 8.90 238 -7.0 94 -7.8 0 0 996.5 NA 0.0000 9999 1080 0 0 0
2017/11/04 06:07:01 BASE 7.42 242 9.52 237 -7.0 94 -7.7 0 0 996.5 NA 0.0000 9999 1280 0 0 0
2017/11/04 06:08:01 BASE 7.78 242 9.52 237 -7.0 95 -7.7 0 0 996.5 NA 0.0000 9999 1120 0 0 0
2017/11/04 06:09:01 BASE 6.32 246 9.52 237 -7.0 95 -7.7 0 0 996.5 NA 0.0000 9999 1020 0 0 0
2017/11/04 06:10:01 BASE 6.02 245 9.52 237 -7.0 95 -7.7 0 0 996.5 NA 0.0000 9999 1210 0 0 0
2017/11/04 06:11:01 BASE 7.22 238 9.52 237 -7.0 95 -7.7 0 0 996.5 NA 0.0000 9999 1080 0 0 0
2017/11/04 06:12:00 BASE 8.29 231 9.62 223 -7.0 95 -7.7 0 0 996.5 NA 0.0000 9999 1120 1570 0 0
2017/11/04 06:13:00 BASE 8.44 228 9.62 223 -7.0 95 -7.7 0 0 996.5 NA 0.0000 9999 1380 1900 0 0
2017/11/04 06:14:00 BASE 7.79 230 9.62 223 -6.9 95 -7.6 0 0 996.6 NA 0.0000 9999 1080 0 0 0
2017/11/04 06:15:00 BASE 7.09 235 9.62 223 -6.9 95 -7.6 0 0 996.6 NA 0.0000 9999 1150 0 0 0
2017/11/04 06:16:00 BASE 6.43 239 9.62 223 -6.9 94 -7.7 0 0 996.6 NA 0.0000 9999 1150 0 0 0
2017/11/04 06:17:00 BASE 7.45 240 9.62 223 -6.9 94 -7.7 0 0 996.5 NA 0.0000 9999 1080 0 0 0
2017/11/04 06:18:00 BASE 7.89 237 9.62 223 -6.9 94 -7.7 0 0 996.6 NA 0.0000 9999 1280 0 0 0
2017/11/04 06:19:00 BASE 7.77 236 9.62 223 -6.9 94 -7.7 0 0 996.5 NA 0.0000 9999 1280 0 0 0
2017/11/04 06:20:00 BASE 7.77 233 9.62 223 -6.9 94 -7.7 0 0 996.6 NA 0.0000 9999 1280 2030 0 0
2017/11/04 06:21:00 BASE 7.44 231 9.62 223 -6.9 94 -7.8 0 0 996.6 NA 0.0000 9999 1440 0 0 0
2017/11/04 06:22:00 BASE 8.44 230 10.44 225 -6.9 94 -7.8 0 0 996.5 NA 0.0000 9999 1180 1640 0 0
2017/11/04 06:23:00 BASE 8.97 223 10.44 225 -6.9 93 -7.8 0 0 996.6 NA 0.0000 9999 1670 0 0 0
2017/11/04 06:24:00 BASE 7.82 221 10.44 225 -6.9 93 -7.8 0 0 996.6 NA 0.0000 9999 1540 0 0 0
2017/11/04 06:25:00 BASE 6.27 226 10.44 225 -6.9 93 -7.9 0 0 996.6 NA 0.0000 9999 1310 0 0 0
2017/11/04 06:26:00 BASE 5.56 224 10.44 225 -6.9 92 -7.9 0 0 996.7 NA 0.0000 9999 1250 0 0 0
2017/11/04 06:27:00 BASE 6.61 221 10.44 225 -6.9 92 -8.0 0 0 996.6 NA 0.0000 9999 1440 0 0 0
2017/11/04 06:28:00 BASE 7.86 222 10.44 225 -6.9 92 -8.1 0 0 996.6 NA 0.0000 9999 1570 0 0 0
2017/11/04 06:29:00 BASE 7.54 220 10.44 225 -6.9 91 -8.2 0 0 996.6 NA 0.0000 9999 1640 0 0 0
2017/11/04 06:30:00 BASE 6.69 224 10.44 225 -7.0 91 -8.2 0 0 996.7 NA 0.0000 9999 1310 0 0 0
2017/11/04 06:31:00 BASE 6.14 227 10.44 225 -7.0 90 -8.3 0 0 996.7 NA 0.0000 9999 1280 0 0 0
2017/11/04 06:32:00 BASE 6.27 219 9.67 219 -7.0 90 -8.4 0 0 996.7 NA 0.0000 9999 1510 0 0 0
2017/11/04 06:33:00 BASE 6.49 209 9.52 221 -7.0 89 -8.4 0 0 996.7 NA 0.0000 9999 1380 0 0 0
2017/11/04 06:34:00 BASE 6.50 213 9.52 221 -7.0 89 -8.4 0 0 996.7 NA 0.0000 9999 1310 0 0 0
2017/11/04 06:35:00 BASE 6.83 224 9.52 221 -6.9 89 -8.4 0 0 996.7 NA 0.0000 9999 1120 2330 0 0
2017/11/04 06:36:00 BASE 6.77 229 9.52 221 -6.9 89 -8.4 0 0 996.7 NA 0.0000 9999 1120 0 0 0
2017/11/04 06:37:00 BASE 6.71 231 9.52 221 -6.9 89 -8.4 0 0 996.7 NA 0.0000 9999 1150 0 0 0
2017/11/04 06:38:00 BASE 7.51 231 9.36 229 -6.9 89 -8.4 0 0 996.7 NA 0.0000 9999 1210 0 0 0
2017/11/04 06:39:00 BASE 8.71 224 10.19 212 -6.9 90 -8.3 0 0 996.6 NA 0.0000 9999 1250 1740 0 0
2017/11/04 06:40:00 BASE 8.60 214 10.19 212 -7.0 90 -8.3 0 0 996.7 NA 0.0000 9999 1210 0 0 0
2017/11/04 06:41:00 BASE 7.39 215 10.19 212 -7.0 90 -8.3 0 0 996.8 NA 0.0000 9999 1080 1510 1900 0
2017/11/04 06:42:00 BASE 6.65 225 10.19 212 -7.0 90 -8.3 0 0 996.8 NA 0.0000 9999 1020 1870 0 0
2017/11/04 06:43:00 BASE 6.74 232 10.19 212 -7.0 90 -8.3 0 0 996.8 NA 0.0000 9999 1120 0 0 0
2017/11/04 06:44:00 BASE 7.03 230 10.19 212 -7.0 90 -8.3 0 0 996.8 NA 0.0000 9999 1250 0 0 0
2017/11/04 06:45:00 BASE 6.93 225 10.19 212 -7.0 90 -8.3 0 0 996.8 NA 0.0000 9999 1310 1940 0 0
2017/11/04 06:46:00 BASE 6.16 232 10.19 212 -7.0 91 -8.3 0 0 996.8 NA 0.0000 9999 1080 0 0 0
2017/11/04 06:47:00 BASE 6.00 240 10.19 212 -7.0 91 -8.3 0 1 996.8 NA 0.0000 9999 1050 0 0 0
2017/11/04 06:48:00 BASE 6.32 240 10.19 212 -7.0 91 -8.3 0 1 996.9 NA 0.0000 9999 1080 0 0 0
2017/11/04 06:49:00 BASE 5.83 242 8.75 210 -7.1 91 -8.3 0 1 996.9 NA 0.0000 9999 1120 0 0 0
2017/11/04 06:50:00 BASE 5.81 243 8.33 243 -7.1 91 -8.2 0 1 996.8 NA 0.0000 9999 1150 0 0 0
2017/11/04 06:51:00 BASE 6.76 239 8.33 243 -7.1 91 -8.2 0 1 996.8 NA 0.0000 9999 1080 0 0 0
2017/11/04 06:52:00 BASE 6.18 240 8.33 243 -7.1 92 -8.2 0 1 996.9 NA 0.0000 9999 950 0 0 0
2017/11/04 06:53:00 BASE 5.59 240 8.33 243 -7.1 92 -8.2 0 1 996.9 NA 0.0000 9999 1180 0 0 0
2017/11/04 06:54:00 BASE 6.60 240 9.16 242 -7.1 92 -8.1 0 1 996.9 NA 0.0000 9999 1310 1840 0 0
2017/11/04 06:55:00 BASE 7.17 242 9.16 242 -7.1 93 -8.1 0 1 996.8 NA 0.0000 9999 1150 1840 0 0
2017/11/04 06:56:00 BASE 6.76 246 9.16 242 -7.1 93 -8.1 0 1 996.9 NA 0.0000 9999 1020 0 0 0
2017/11/04 06:57:00 BASE 6.10 249 9.16 242 -7.1 93 -8.0 1 1 996.9 NA 0.0000 9999 950 1570 0 0
2017/11/04 06:58:00 BASE 6.60 237 9.16 242 -7.1 93 -8.0 1 1 996.9 NA 0.0000 9999 1080 0 0 0
2017/11/04 06:59:00 BASE 7.27 228 9.16 242 -7.1 93 -8.0 1 1 996.9 NA 0.0000 9999 1080 0 0 0
2017/11/04 07:00:00 BASE 7.10 227 9.16 242 -7.0 93 -8.0 1 2 996.9 NA 0.0000 9999 1080 0 0 0
2017/11/04 07:01:00 BASE 7.00 226 9.16 242 -7.0 93 -8.0 1 2 996.9 NA 0.0000 9999 1020 2000 0 0
2017/11/04 07:02:00 BASE 6.93 216 9.16 242 -7.0 93 -7.9 1 2 996.9 NA 0.0000 9999 1410 0 0 0
2017/11/04 07:03:00 BASE 6.66 213 9.16 242 -7.0 93 -7.9 1 2 997.0 NA 0.0000 9999 1350 0 0 0
2017/11/04 07:04:00 BASE 6.85 223 8.39 237 -7.0 93 -8.0 1 2 997.0 NA 0.0000 9999 1770 0 0 0
2017/11/04 07:05:00 BASE 7.20 225 8.80 219 -7.1 93 -8.0 1 2 996.9 NA 0.0000 9999 1540 0 0 0
2017/11/04 07:06:00 BASE 6.75 218 8.80 219 -7.1 93 -8.1 1 3 997.0 NA 0.0000 9999 1480 0 0 0
2017/11/04 07:07:00 BASE 6.11 219 8.80 219 -7.1 92 -8.1 1 3 997.0 NA 0.0000 9999 1410 0 0 0
2017/11/04 07:08:00 BASE 5.62 227 8.80 219 -7.1 92 -8.2 1 3 997.0 NA 0.0000 9999 1050 0 0 0
2017/11/04 07:09:00 BASE 5.67 231 8.80 219 -7.1 92 -8.2 1 3 997.0 NA 0.0000 9999 1210 0 0 0
2017/11/04 07:10:00 BASE 5.96 231 8.80 219 -7.1 92 -8.2 1 3 997.0 NA 0.0000 9999 1250 0 0 0
2017/11/04 07:11:00 BASE 6.12 228 8.80 219 -7.1 92 -8.2 1 4 997.0 NA 0.0000 9999 1440 0 0 0
2017/11/04 07:12:00 BASE 6.26 226 8.80 219 -7.1 92 -8.2 1 4 997.0 NA 0.0000 9999 1310 0 0 0
2017/11/04 07:13:00 BASE 6.11 227 8.80 219 -7.1 92 -8.2 1 4 997.0 NA 0.0000 9999 1180 0 0 0
2017/11/04 07:14:00 BASE 6.27 232 8.80 219 -7.1 92 -8.2 2 4 997.0 NA 0.0000 9999 1150 0 0 0
2017/11/04 07:15:00 BASE 6.71 236 7.97 237 -7.1 92 -8.1 2 5 997.0 NA 0.0000 9999 1210 2100 0 0
2017/11/04 07:16:00 BASE 6.92 232 7.97 237 -7.0 92 -8.1 2 5 996.9 NA 0.0000 9999 1310 0 0 0
2017/11/04 07:17:00 BASE 6.33 223 7.97 237 -7.0 92 -8.1 2 6 997.0 NA 0.0000 9999 1210 1900 0 0
2017/11/04 07:18:00 BASE 6.32 221 7.97 225 -7.0 92 -8.1 2 6 997.0 NA 0.0000 9999 1480 2560 0 0
2017/11/04 07:19:00 BASE 6.88 223 7.97 225 -7.0 92 -8.1 2 6 997.0 NA 0.0000 9999 1670 2720 0 0
2017/11/04 07:20:00 BASE 7.02 214 7.97 225 -7.0 92 -8.2 2 7 997.0 NA 0.0000 9999 1710 0 0 0
2017/11/04 07:21:00 BASE 7.04 204 7.97 225 -7.1 91 -8.3 2 7 997.0 NA 0.0000 9999 1740 2430 0 0
2017/11/04 07:22:00 BASE 6.89 200 7.97 225 -7.1 91 -8.3 2 7 997.0 NA 0.0000 9999 1570 0 0 0
2017/11/04 07:23:00 BASE 6.77 199 7.97 225 -7.0 90 -8.4 3 8 997.0 NA 0.0000 9999 1410 0 0 0
2017/11/04 07:24:00 BASE 7.05 204 9.05 213 -7.0 90 -8.4 3 8 997.0 NA 0.0000 9999 1380 0 0 0
2017/11/04 07:25:00 BASE 7.23 214 9.05 213 -7.0 90 -8.5 3 8 997.0 NA 0.0000 9999 1770 0 0 0
2017/11/04 07:26:00 BASE 7.48 221 9.05 213 -7.0 89 -8.5 3 8 997.0 NA 0.0000 9999 1540 2070 0 0
2017/11/04 07:27:00 BASE 7.44 221 9.05 213 -7.0 89 -8.5 3 8 997.0 NA 0.0000 9999 1150 0 0 0
2017/11/04 07:28:00 BASE 7.54 218 9.05 221 -7.0 89 -8.5 3 9 997.0 NA 0.0000 9999 1380 0 0 0
2017/11/04 07:29:00 BASE 7.98 217 9.05 221 -7.1 89 -8.5 3 10 997.0 NA 0.0000 9999 1180 1770 0 0
2017/11/04 07:30:00 BASE 7.92 216 9.11 209 -7.1 90 -8.5 3 10 997.1 NA 0.0000 9999 1670 0 0 0
2017/11/04 07:31:00 BASE 7.79 214 9.11 209 -7.2 90 -8.6 3 11 997.1 NA 0.0000 9999 1380 0 0 0
2017/11/04 07:32:00 BASE 7.94 215 9.11 209 -7.2 90 -8.6 4 12 997.1 NA 0.0000 9999 1410 0 0 0
2017/11/04 07:33:00 BASE 7.63 221 9.11 209 -7.2 89 -8.7 4 12 997.2 NA 0.0000 9999 1210 1870 0 0
2017/11/04 07:34:00 BASE 6.64 229 9.11 209 -7.3 89 -8.7 4 12 997.2 NA 0.0000 9999 1280 0 0 0
2017/11/04 07:35:00 BASE 7.06 233 9.62 240 -7.3 89 -8.8 4 13 997.1 NA 0.0000 9999 1120 0 0 0
2017/11/04 07:36:00 BASE 7.72 232 9.62 240 -7.3 89 -8.8 4 13 997.2 NA 0.0000 9999 1120 2200 0 0
2017/11/04 07:37:00 BASE 7.44 233 9.62 240 -7.3 89 -8.8 4 13 997.2 NA 0.0000 9999 1150 0 0 0
2017/11/04 07:38:00 BASE 7.01 237 9.62 240 -7.3 89 -8.7 4 14 997.2 NA 0.0000 9999 1180 0 0 0
2017/11/04 07:39:00 BASE 7.26 237 9.62 240 -7.3 90 -8.7 4 14 997.2 NA 0.0000 9999 1670 0 0 0
2017/11/04 07:40:00 BASE 7.36 233 9.62 240 -7.3 90 -8.7 4 15 997.2 NA 0.0000 9999 1120 0 0 0
2017/11/04 07:41:00 BASE 7.08 232 9.62 240 -7.3 90 -8.7 5 16 997.2 NA 0.0000 9999 1250 0 0 0
2017/11/04 07:42:00 BASE 7.11 233 9.62 240 -7.3 90 -8.6 5 16 997.2 NA 0.0000 9999 1440 0 0 0
2017/11/04 07:43:00 BASE 7.10 224 9.62 240 -7.3 91 -8.6 5 17 997.2 NA 0.0000 9999 1250 0 0 0
2017/11/04 07:44:00 BASE 6.18 223 9.62 240 -7.3 91 -8.5 6 18 997.2 NA 0.0000 9999 1020 0 0 0
2017/11/04 07:45:00 BASE 5.62 231 8.59 238 -7.3 91 -8.5 7 19 997.2 NA 0.0000 9999 1250 0 0 0
2017/11/04 07:46:00 BASE 6.66 224 8.59 238 -7.3 91 -8.4 7 20 997.2 NA 0.0000 9999 1250 0 0 0
2017/11/04 07:47:00 BASE 6.72 209 8.59 238 -7.3 92 -8.4 8 20 997.2 NA 0.0000 9999 1180 1670 2170 0
2017/11/04 07:48:00 BASE 5.72 206 8.59 238 -7.2 92 -8.3 9 21 997.2 NA 0.0000 9999 1050 0 0 0
2017/11/04 07:49:00 BASE 5.46 217 8.03 208 -7.2 92 -8.3 8 22 997.2 NA 0.0000 9999 1250 0 0 0
2017/11/04 07:50:00 BASE 6.42 227 8.08 234 -7.2 92 -8.3 8 22 997.2 NA 0.0000 9999 1120 0 0 0
2017/11/04 07:51:00 BASE 7.50 229 9.05 227 -7.2 91 -8.3 8 23 997.2 NA 0.0000 9999 1440 0 0 0
2017/11/04 07:52:00 BASE 7.03 225 9.05 227 -7.2 91 -8.3 8 24 997.2 NA 0.0000 9999 1570 0 0 0
2017/11/04 07:53:00 BASE 6.33 225 9.05 227 -7.1 91 -8.4 8 24 997.2 NA 0.0000 9999 1280 0 0 0
2017/11/04 07:54:00 BASE 6.31 230 9.05 227 -7.2 91 -8.4 8 24 997.2 NA 0.0000 9999 1080 1840 0 0
2017/11/04 07:55:00 BASE 6.73 233 9.41 240 -7.1 91 -8.3 8 25 997.2 NA 0.0000 9999 1150 1610 0 0
2017/11/04 07:56:00 BASE 7.44 232 9.41 240 -7.2 91 -8.3 8 26 997.2 NA 0.0000 9999 1280 0 0 0
2017/11/04 07:57:00 BASE 7.38 230 9.41 240 -7.2 92 -8.3 9 27 997.2 NA 0.0000 9999 1350 0 0 0
2017/11/04 07:58:00 BASE 6.48 232 9.41 240 -7.2 92 -8.3 10 27 997.2 NA 0.0000 9999 1210 0 0 0
2017/11/04 07:59:00 BASE 5.53 237 9.41 240 -7.2 92 -8.2 10 27 997.3 NA 0.0000 9999 1150 1800 0 0
2017/11/04 08:00:00 BASE 4.56 241 9.41 240 -7.2 92 -8.2 9 27 997.3 NA 0.0000 9999 1120 1740 0 0
2017/11/04 08:01:00 BASE 4.74 240 9.41 240 -7.1 92 -8.2 9 28 997.2 NA 0.0000 9999 1210 0 0 0
2017/11/04 08:02:00 BASE 5.61 239 9.41 240 -7.1 92 -8.2 10 28 997.2 NA 0.0000 9999 1310 1800 0 0
2017/11/04 08:03:00 BASE 5.73 237 9.41 240 -7.1 92 -8.2 9 28 997.2 NA 0.0000 9999 1180 0 0 0
2017/11/04 08:04:00 BASE 5.45 242 9.41 240 -7.1 92 -8.2 9 27 997.2 NA 0.0000 9999 1080 0 0 0
2017/11/04 08:05:00 BASE 5.03 252 9.16 240 -7.1 92 -8.2 8 27 997.2 NA 0.0000 9999 1150 0 0 0
2017/11/04 08:06:00 BASE 4.63 256 8.23 231 -7.2 92 -8.2 8 27 997.2 NA 0.0000 9999 1050 0 0 0
2017/11/04 08:07:00 BASE 4.36 257 6.64 237 -7.2 92 -8.2 9 28 997.2 NA 0.0000 9999 1050 0 0 0
2017/11/04 08:08:00 BASE 4.81 256 6.64 237 -7.2 92 -8.2 10 30 997.2 NA 0.0000 9999 1310 0 0 0
2017/11/04 08:09:00 BASE 5.15 254 6.64 237 -7.2 93 -8.2 10 31 997.2 NA 0.0000 9999 1510 0 0 0
2017/11/04 08:10:00 BASE 4.95 248 6.64 237 -7.2 93 -8.2 11 32 997.2 NA 0.0000 9999 1410 0 0 0
2017/11/04 08:11:00 BASE 4.40 249 6.64 237 -7.2 93 -8.1 12 34 997.2 NA 0.0000 9999 1380 0 0 0
2017/11/04 08:12:00 BASE 4.16 245 6.58 214 -7.2 93 -8.1 12 35 997.2 NA 0.0000 9999 1410 0 0 0
2017/11/04 08:13:00 BASE 5.02 225 6.58 214 -7.2 93 -8.1 13 36 997.2 NA 0.0000 9999 1440 0 0 0
2017/11/04 08:14:00 BASE 5.93 217 6.58 214 -7.1 93 -8.1 13 37 997.2 NA 0.0000 9999 1440 0 0 0
2017/11/04 08:15:00 BASE 6.20 224 7.31 229 -7.1 93 -8.1 13 38 997.2 NA 0.0000 9999 1480 0 0 0
2017/11/04 08:16:00 BASE 7.05 230 8.69 227 -7.1 93 -8.0 13 38 997.2 NA 0.0000 9999 1410 0 0 0
2017/11/04 08:17:00 BASE 7.79 230 8.69 227 -7.0 92 -8.1 14 39 997.2 NA 0.0000 9999 1310 0 0 0
2017/11/04 08:18:00 BASE 7.82 227 9.16 221 -7.0 92 -8.1 14 40 997.2 NA 0.0000 9999 1310 0 0 0
2017/11/04 08:19:00 BASE 7.80 228 9.16 221 -7.0 92 -8.2 15 42 997.2 NA 0.0000 9999 1350 0 0 0
2017/11/04 08:20:00 BASE 8.00 231 9.98 236 -7.1 91 -8.2 15 43 997.2 NA 0.0000 9999 1350 0 0 0
2017/11/04 08:21:00 BASE 8.68 225 10.80 228 -7.1 91 -8.3 15 43 997.2 NA 0.0000 9999 1380 2130 0 0
2017/11/04 08:22:00 BASE 7.77 215 10.80 228 -7.1 91 -8.3 15 44 997.2 NA 0.0000 9999 1480 0 0 0
2017/11/04 08:23:00 BASE 6.69 218 10.80 228 -7.1 91 -8.3 15 45 997.2 NA 0.0000 9999 1310 0 0 0
2017/11/04 08:24:00 BASE 7.27 225 10.80 228 -7.1 91 -8.3 15 45 997.2 NA 0.0000 9999 1410 0 0 0
2017/11/04 08:25:00 BASE 7.89 227 10.80 228 -7.1 90 -8.4 16 47 997.2 NA 0.0000 9999 1280 0 0 0
2017/11/04 08:26:00 BASE 8.34 229 10.80 228 -7.1 90 -8.4 16 48 997.2 NA 0.0000 9999 1310 0 0 0
2017/11/04 08:27:00 BASE 8.29 223 10.80 228 -7.1 90 -8.5 17 50 997.2 NA 0.0000 9999 1440 0 0 0
2017/11/04 08:28:00 BASE 7.76 217 10.80 228 -7.1 90 -8.5 18 52 997.2 NA 0.0000 9999 1670 0 0 0
2017/11/04 08:29:00 BASE 7.59 216 10.80 228 -7.2 90 -8.5 19 54 997.2 NA 0.0000 9999 1610 0 0 0
2017/11/04 08:30:00 BASE 8.09 213 10.80 228 -7.2 90 -8.6 20 57 997.2 NA 0.0000 9999 1640 0 0 0
2017/11/04 08:31:00 BASE 7.93 214 9.36 209 -7.2 89 -8.6 22 60 997.3 NA 0.0000 9999 1610 0 0 0
2017/11/04 08:32:00 BASE 6.99 218 9.36 209 -7.2 89 -8.7 23 62 997.3 NA 0.0000 9999 1540 0 0 0
2017/11/04 08:33:00 BASE 6.27 220 9.36 209 -7.2 88 -8.8 24 64 997.3 NA 0.0000 9999 1310 0 0 0
2017/11/04 08:34:00 BASE 6.08 226 9.36 209 -7.2 88 -8.8 24 64 997.4 NA 0.0000 9999 1510 0 0 0
2017/11/04 08:35:00 BASE 7.09 232 9.36 209 -7.2 88 -8.9 25 66 997.3 NA 0.0000 9999 1350 0 0 0
2017/11/04 08:36:00 BASE 7.92 232 9.36 209 -7.2 87 -8.9 26 68 997.3 NA 0.0000 9999 1250 0 0 0
2017/11/04 08:37:00 BASE 7.90 226 9.31 229 -7.2 87 -9.0 26 69 997.3 NA 0.0000 9999 1310 0 0 0
2017/11/04 08:38:00 BASE 7.45 221 9.31 229 -7.2 87 -9.0 27 70 997.3 NA 0.0000 9999 1410 0 0 0
2017/11/04 08:39:00 BASE 7.11 226 9.31 229 -7.2 87 -8.9 28 73 997.3 NA 0.0000 9999 1350 0 0 0
2017/11/04 08:40:00 BASE 7.56 227 9.31 229 -7.2 88 -8.9 29 76 997.3 NA 0.0000 9999 1610 2130 0 0
2017/11/04 08:41:00 BASE 8.00 224 9.31 229 -7.2 88 -8.9 31 79 997.3 NA 0.0000 9999 1510 0 0 0
2017/11/04 08:42:00 BASE 8.34 224 9.31 229 -7.2 88 -8.9 32 82 997.4 NA 0.0000 9999 1710 0 0 0
2017/11/04 08:43:00 BASE 7.99 223 9.31 229 -7.3 88 -9.0 33 84 997.4 NA 0.0000 9999 1670 0 0 0
2017/11/04 08:44:00 BASE 7.07 222 9.31 229 -7.3 88 -9.0 32 83 997.5 NA 0.0000 9999 1640 0 0 0
2017/11/04 08:45:00 BASE 6.76 224 9.31 229 -7.3 87 -9.0 32 83 997.5 NA 0.0000 9999 1350 0 0 0
2017/11/04 08:46:00 BASE 6.65 226 9.31 229 -7.3 87 -9.1 34 86 997.5 NA 0.0000 9999 1670 0 0 0
2017/11/04 08:47:00 BASE 6.43 224 9.21 222 -7.3 86 -9.2 35 88 997.5 NA 0.0000 9999 1540 0 0 0
2017/11/04 08:48:00 BASE 6.51 223 9.21 222 -7.3 86 -9.2 36 91 997.5 NA 0.0000 9999 1540 0 0 0
2017/11/04 08:49:00 BASE 6.07 223 9.21 222 -7.3 86 -9.2 38 94 997.5 NA 0.0000 9999 1480 0 0 0
2017/11/04 08:50:00 BASE 6.64 221 9.21 222 -7.3 86 -9.2 40 97 997.5 NA 0.0000 9999 1410 0 0 0
2017/11/04 08:51:00 BASE 7.56 221 9.05 224 -7.2 86 -9.2 41 100 997.4 NA 0.0000 9999 1540 0 0 0
2017/11/04 08:52:00 BASE 7.99 217 9.52 211 -7.2 86 -9.2 43 104 997.4 NA 0.0000 9999 1610 0 0 0
2017/11/04 08:53:00 BASE 7.81 214 9.52 211 -7.2 86 -9.1 46 108 997.5 NA 0.0000 9999 1640 0 0 0
2017/11/04 08:54:00 BASE 6.51 212 9.52 211 -7.2 86 -9.1 46 109 997.5 NA 0.0000 9999 1540 0 0 0
2017/11/04 08:55:00 BASE 6.10 211 9.52 211 -7.2 86 -9.1 43 106 997.5 NA 0.0000 9999 1540 0 0 0
2017/11/04 08:56:00 BASE 6.85 214 9.52 211 -7.1 86 -9.0 41 103 997.5 NA 0.0000 9999 1540 20010 0 0
2017/11/04 08:57:00 BASE 7.32 222 9.52 211 -7.2 87 -9.0 41 105 997.5 NA 0.0000 9999 1570 0 0 0
2017/11/04 08:58:00 BASE 6.88 227 9.52 211 -7.2 87 -9.0 44 110 997.5 NA 0.0000 9999 1570 0 0 0
2017/11/04 08:59:00 BASE 5.90 220 9.52 211 -7.2 87 -9.0 47 115 997.5 NA 0.0000 9999 1540 0 0 0
2017/11/04 09:00:00 BASE 5.65 220 9.52 211 -7.2 87 -9.0 48 117 997.5 NA 0.0000 9999 1610 0 0 0
2017/11/04 09:01:00 BASE 7.15 219 9.52 211 -7.2 86 -9.1 49 117 997.5 NA 0.0000 9999 1610 0 0 0
2017/11/04 09:02:00 BASE 7.83 213 8.80 215 -7.2 86 -9.1 48 118 997.5 NA 0.0000 9999 1610 0 0 0
2017/11/04 09:03:00 BASE 6.85 211 8.75 225 -7.2 86 -9.1 47 116 997.6 NA 0.0000 9999 1740 0 0 0
2017/11/04 09:04:00 BASE 6.44 210 8.75 225 -7.1 86 -9.1 45 114 997.6 NA 0.0000 9999 1610 0 0 0
2017/11/04 09:05:00 BASE 6.04 213 8.75 225 -7.1 86 -9.1 44 113 997.6 NA 0.0000 9999 1610 0 0 0
2017/11/04 09:06:00 BASE 5.53 216 8.75 225 -7.1 86 -9.1 44 113 997.6 NA 0.0000 9999 1570 0 0 0
2017/11/04 09:07:00 BASE 5.73 220 8.75 225 -7.1 86 -9.0 44 114 997.6 NA 0.0000 9999 1670 0 0 0
2017/11/04 09:08:00 BASE 5.83 224 8.75 225 -7.1 86 -9.0 43 113 997.6 NA 0.0000 9999 1510 0 0 0
2017/11/04 09:09:00 BASE 6.26 228 8.75 225 -7.1 86 -9.0 42 112 997.6 NA 0.0000 9999 1510 0 0 0
2017/11/04 09:10:00 BASE 6.86 229 8.75 225 -7.1 86 -9.0 42 113 997.6 NA 0.0000 9999 1480 0 0 0
2017/11/04 09:11:00 BASE 6.95 230 8.54 215 -7.1 86 -9.0 42 114 997.6 NA 0.0000 9999 1480 0 0 0
2017/11/04 09:12:00 BASE 6.28 229 7.87 233 -7.1 86 -9.0 43 117 997.6 NA 0.0000 9999 1540 0 0 0
2017/11/04 09:13:00 BASE 6.45 227 8.64 236 -7.1 86 -9.0 45 122 997.6 NA 0.0000 9999 1570 0 0 0
2017/11/04 09:14:00 BASE 7.58 223 9.11 213 -7.1 86 -9.0 49 130 997.6 NA 0.0000 9999 1610 0 0 0
2017/11/04 09:15:00 BASE 8.08 216 9.41 217 -7.1 86 -9.0 54 139 997.6 NA 0.0000 9999 1740 0 0 0
2017/11/04 09:16:00 BASE 8.13 210 9.41 217 -7.1 86 -9.0 59 148 997.6 NA 0.0000 9999 1770 0 0 0
2017/11/04 09:17:00 BASE 7.76 203 9.41 217 -7.1 86 -9.1 67 159 997.7 NA 0.0000 9999 1740 0 0 0
2017/11/04 09:18:00 BASE 7.19 201 9.41 217 -7.1 86 -9.1 82 185 997.7 NA 0.0000 9999 1840 0 0 0
2017/11/04 09:19:00 BASE 6.85 201 9.41 217 -7.2 85 -9.2 92 204 997.7 NA 0.0000 9999 1740 0 0 0
2017/11/04 09:20:00 BASE 6.35 200 9.41 217 -7.2 85 -9.3 83 190 997.7 NA 0.0000 9999 1710 0 0 0
2017/11/04 09:21:00 BASE 6.39 202 9.41 217 -7.2 84 -9.4 69 169 997.7 NA 0.0000 9999 2030 22840 0 0
2017/11/04 09:22:00 BASE 7.16 203 9.41 217 -7.2 84 -9.4 60 155 997.7 NA 0.0000 9999 1640 0 0 0
2017/11/04 09:23:00 BASE 7.74 205 9.62 200 -7.2 84 -9.4 55 145 997.7 NA 0.0000 9999 1740 0 0 0
2017/11/04 09:24:00 BASE 8.45 209 9.62 200 -7.2 84 -9.4 56 146 997.7 NA 0.0000 9999 1870 0 0 0
2017/11/04 09:25:00 BASE 7.98 210 9.62 200 -7.2 84 -9.4 68 167 997.7 NA 0.0000 9999 2460 0 0 0
2017/11/04 09:26:00 BASE 6.98 212 9.62 200 -7.2 84 -9.5 80 190 997.7 NA 0.0000 9999 1900 0 0 0
2017/11/04 09:27:00 BASE 6.79 209 9.62 200 -7.2 84 -9.5 85 200 997.7 NA 0.0000 9999 1710 0 0 0
2017/11/04 09:28:00 BASE 7.19 199 9.62 200 -7.2 83 -9.6 87 204 997.7 NA 0.0000 9999 2100 0 0 0
2017/11/04 09:29:00 BASE 8.48 197 10.13 203 -7.2 83 -9.6 87 204 997.7 NA 0.0000 9999 1770 2400 0 0
2017/11/04 09:30:00 BASE 8.80 202 10.13 203 -7.2 83 -9.6 86 204 997.7 NA 0.0000 9999 1710 2850 0 0
2017/11/04 09:31:00 BASE 8.28 203 10.13 203 -7.2 83 -9.6 97 221 997.7 NA 0.0000 9999 1800 2360 0 0
2017/11/04 09:32:00 BASE 7.78 201 10.13 203 -7.2 83 -9.6 94 217 997.7 NA 0.0000 9999 1870 0 0 0
2017/11/04 09:33:00 BASE 7.05 199 10.13 203 -7.2 83 -9.7 79 192 997.7 NA 0.0000 9999 1900 0 0 0
2017/11/04 09:34:00 BASE 6.78 203 10.13 203 -7.2 82 -9.7 67 171 997.7 NA 0.0000 9999 1800 0 0 0
2017/11/04 09:35:00 BASE 7.69 208 10.13 203 -7.2 82 -9.7 61 160 997.7 NA 0.0000 9999 1940 0 0 0
2017/11/04 09:36:00 BASE 7.79 207 10.13 203 -7.2 82 -9.8 62 160 997.7 NA 0.0000 9999 0 0 0 0
2017/11/04 09:37:00 BASE 7.08 207 10.13 203 -7.2 82 -9.8 68 174 997.7 NA 0.0000 9999 1940 0 0 0
2017/11/04 09:38:00 BASE 7.08 204 10.13 203 -7.3 82 -9.8 81 198 997.7 NA 0.0000 9999 1840 0 0 0
2017/11/04 09:39:00 BASE 7.21 202 9.41 210 -7.3 82 -9.8 81 198 997.7 NA 0.0000 9999 1770 0 0 0
2017/11/04 09:40:00 BASE 7.21 205 9.41 210 -7.3 82 -9.8 74 185 997.7 NA 0.0000 9999 2590 0 0 0
2017/11/04 09:41:00 BASE 7.41 208 9.41 210 -7.3 82 -9.8 70 179 997.7 NA 0.0000 9999 1970 0 0 0
2017/11/04 09:42:00 BASE 7.44 206 9.41 210 -7.2 82 -9.8 70 182 997.7 NA 0.0000 9999 2200 0 0 0
2017/11/04 09:43:00 BASE 6.99 205 9.41 210 -7.2 82 -9.8 73 187 997.7 NA 0.0000 9999 2360 0 0 0
2017/11/04 09:44:00 BASE 7.59 207 9.62 204 -7.2 82 -9.7 80 200 997.7 NA 0.0000 9999 2200 0 0 0
2017/11/04 09:45:00 BASE 8.15 206 9.62 204 -7.2 82 -9.7 87 212 997.7 NA 0.0000 9999 2170 0 0 0
2017/11/04 09:46:00 BASE 7.61 204 9.62 204 -7.2 82 -9.8 98 232 997.8 NA 0.0000 9999 2170 0 0 0
2017/11/04 09:47:00 BASE 7.11 206 9.62 204 -7.2 82 -9.8 109 255 997.8 NA 0.0000 9999 0 0 0 0
2017/11/04 09:48:00 BASE 6.89 210 9.62 204 -7.2 82 -9.8 111 260 997.8 NA 0.0000 9999 1770 0 0 0
2017/11/04 09:49:00 BASE 6.65 207 9.62 204 -7.2 82 -9.7 114 269 997.8 NA 0.0000 9999 1800 0 0 0
2017/11/04 09:50:00 BASE 7.01 207 9.62 204 -7.2 82 -9.7 97 240 997.8 NA 0.0000 9999 1770 2820 0 0
2017/11/04 09:51:00 BASE 7.49 209 9.62 204 -7.1 82 -9.6 86 218 997.8 NA 0.0000 9999 1710 0 0 0
2017/11/04 09:52:00 BASE 7.73 208 9.62 204 -7.1 83 -9.5 90 222 997.8 NA 0.0000 9999 1900 0 0 0
2017/11/04 09:53:00 BASE 7.14 205 9.62 204 -7.1 83 -9.5 101 242 997.8 NA 0.0000 9999 1940 2690 0 0
2017/11/04 09:54:00 BASE 6.51 204 9.36 206 -7.1 83 -9.5 95 233 997.8 NA 0.0000 9999 1970 2690 0 0
2017/11/04 09:55:00 BASE 6.31 207 9.36 206 -7.1 83 -9.6 92 231 997.8 NA 0.0000 9999 2300 0 0 0
2017/11/04 09:56:00 BASE 6.18 205 9.36 206 -7.1 83 -9.6 88 222 997.8 NA 0.0000 9999 2070 22180 0 0
2017/11/04 09:57:00 BASE 6.30 198 9.36 206 -7.2 83 -9.6 97 240 997.8 NA 0.0000 9999 1940 0 0 0
2017/11/04 09:58:00 BASE 6.49 196 9.36 206 -7.2 83 -9.6 109 262 997.8 NA 0.0000 9999 1870 0 0 0
2017/11/04 09:59:00 BASE 7.01 203 9.36 206 -7.2 83 -9.6 113 272 997.8 NA 0.0000 9999 2200 0 0 0
2017/11/04 10:00:00 BASE 7.26 207 9.36 206 -7.2 83 -9.6 112 273 997.8 NA 0.0000 9999 1800 0 0 0
2017/11/04 10:01:00 BASE 6.38 204 9.36 206 -7.2 83 -9.6 111 274 997.8 NA 0.0000 9999 1800 0 0 0
2017/11/04 10:02:00 BASE 5.69 199 8.49 201 -7.1 83 -9.5 109 269 997.8 NA 0.0000 9999 1770 0 0 0
2017/11/04 10:03:00 BASE 6.02 198 8.49 201 -7.1 83 -9.5 120 289 997.9 NA 0.0000 9999 1710 0 0 0
2017/11/04 10:04:00 BASE 5.66 199 8.49 201 -7.0 83 -9.5 131 310 997.9 NA 0.0000 9999 1740 0 0 0
2017/11/04 10:05:00 BASE 5.05 199 8.49 201 -7.0 83 -9.4 127 303 997.8 NA 0.0000 9999 1710 19850 0 0
2017/11/04 10:06:00 BASE 6.02 200 8.49 201 -7.0 83 -9.4 126 302 997.8 NA 0.0000 9999 1610 0 0 0
2017/11/04 10:07:00 BASE 7.24 203 8.49 201 -7.0 83 -9.4 104 262 997.8 NA 0.0000 9999 1570 0 0 0
2017/11/04 10:08:00 BASE 7.18 205 8.39 200 -7.0 83 -9.4 88 234 997.8 NA 0.0000 9999 1710 0 0 0
2017/11/04 10:09:00 BASE 6.96 202 8.39 200 -7.0 83 -9.3 81 221 997.8 NA 0.0000 9999 1670 0 0 0
2017/11/04 10:10:00 BASE 6.47 202 8.39 200 -7.0 84 -9.3 81 218 997.8 NA 0.0000 9999 1610 2430 0 0
2017/11/04 10:11:00 BASE 5.45 199 8.39 200 -7.0 84 -9.3 83 222 997.8 NA 0.0000 9999 1640 0 0 0
2017/11/04 10:12:00 BASE 5.30 193 8.39 200 -7.0 84 -9.3 84 223 997.8 NA 0.0000 9999 1740 2400 0 0
2017/11/04 10:13:00 BASE 6.03 196 8.39 200 -7.1 84 -9.3 89 230 997.8 NA 0.0000 9999 1610 0 0 0
2017/11/04 10:14:00 BASE 6.74 202 8.39 200 -7.1 84 -9.3 101 253 997.8 NA 0.0000 9999 1640 0 0 0
2017/11/04 10:15:00 BASE 7.06 206 8.39 200 -7.1 84 -9.4 120 288 997.8 NA 0.0000 9999 1870 20210 0 0
2017/11/04 10:16:00 BASE 6.48 204 8.39 200 -7.1 84 -9.4 143 333 997.8 NA 0.0000 9999 1770 0 0 0
2017/11/04 10:17:00 BASE 5.84 197 8.39 200 -7.1 84 -9.4 151 354 997.8 NA 0.0000 9999 1840 2360 0 0
2017/11/04 10:18:00 BASE 6.04 195 7.82 206 -7.1 84 -9.4 132 320 997.8 NA 0.0000 9999 1670 0 0 0
2017/11/04 10:19:00 BASE 6.88 196 7.97 195 -7.1 83 -9.4 121 300 997.8 NA 0.0000 9999 1670 2170 0 0
2017/11/04 10:20:00 BASE 7.10 203 7.97 195 -7.0 83 -9.4 122 304 997.8 NA 0.0000 9999 1840 0 0 0
2017/11/04 10:21:00 BASE 6.43 208 7.97 195 -7.0 83 -9.4 131 322 997.8 NA 0.0000 9999 1640 0 0 0
2017/11/04 10:22:00 BASE 5.68 201 7.97 195 -7.0 83 -9.4 139 336 997.8 NA 0.0000 9999 1710 0 0 0
2017/11/04 10:23:00 BASE 5.56 196 7.97 195 -7.0 83 -9.3 142 342 997.8 NA 0.0000 9999 1570 0 0 0
2017/11/04 10:24:00 BASE 6.19 197 7.97 195 -6.9 83 -9.3 149 352 997.8 NA 0.0000 9999 1570 0 0 0
2017/11/04 10:25:00 BASE 7.06 195 8.08 192 -6.9 84 -9.2 147 350 997.8 NA 0.0000 9999 1610 0 0 0
2017/11/04 10:26:00 BASE 7.34 194 8.08 192 -6.9 84 -9.3 156 370 997.8 NA 0.0000 9999 1670 0 0 0
2017/11/04 10:27:00 BASE 7.28 193 8.08 192 -7.0 84 -9.3 165 389 997.8 NA 0.0000 9999 1640 2330 0 0
2017/11/04 10:28:00 BASE 6.97 190 8.08 192 -7.0 83 -9.3 165 389 997.8 NA 0.0000 9999 1770 2460 0 0
2017/11/04 10:29:00 BASE 6.64 192 8.08 192 -7.0 83 -9.4 157 372 997.8 NA 0.0000 9999 1640 0 0 0
2017/11/04 10:30:00 BASE 6.38 191 8.08 192 -7.1 83 -9.5 159 375 997.8 NA 0.0000 9999 1540 0 0 0
2017/11/04 10:31:00 BASE 6.38 190 8.08 192 -7.0 82 -9.5 184 421 997.8 NA 0.0000 9999 1540 0 0 0
2017/11/04 10:32:00 BASE 6.71 192 8.08 192 -7.0 82 -9.6 209 471 997.8 NA 0.0000 9999 2230 0 0 0
2017/11/04 10:33:00 BASE 6.63 193 8.08 192 -7.0 82 -9.6 207 470 997.8 NA 0.0000 9999 1740 0 0 0
2017/11/04 10:34:00 BASE 6.22 192 8.08 192 -7.0 82 -9.6 199 457 997.8 NA 0.0000 9999 1670 0 0 0
2017/11/04 10:35:00 BASE 5.59 192 7.97 200 -7.0 82 -9.6 198 456 997.8 NA 0.0000 9999 1610 0 0 0
2017/11/04 10:36:00 BASE 5.83 191 7.92 191 -7.0 82 -9.5 200 461 997.8 NA 0.0000 9999 1670 20080 0 0
2017/11/04 10:37:00 BASE 6.38 188 7.87 193 -7.0 82 -9.5 219 495 997.8 NA 0.0000 9999 1640 0 0 0
2017/11/04 10:38:00 BASE 6.40 186 7.87 193 -7.0 82 -9.5 227 511 997.8 NA 0.0000 9999 1710 0 0 0
2017/11/04 10:39:00 BASE 5.91 189 7.87 193 -6.9 82 -9.5 207 478 997.9 NA 0.0000 9999 1640 0 0 0
2017/11/04 10:40:00 BASE 5.51 197 7.87 193 -6.9 82 -9.4 177 423 997.9 NA 0.0000 9999 1670 0 0 0
2017/11/04 10:41:00 BASE 6.39 195 7.92 193 -6.9 82 -9.4 150 372 997.9 NA 0.0000 9999 1800 17320 22050 0
2017/11/04 10:42:00 BASE 6.84 192 7.92 193 -6.8 83 -9.3 133 334 997.9 NA 0.0000 9999 1710 0 0 0
2017/11/04 10:43:00 BASE 6.94 193 8.03 194 -6.9 83 -9.3 121 307 997.9 NA 0.0000 9999 1670 0 0 0
2017/11/04 10:44:00 BASE 6.96 196 8.03 194 -6.9 83 -9.3 117 299 997.9 NA 0.0000 9999 2000 2590 0 0
2017/11/04 10:45:00 BASE 6.14 200 8.03 194 -7.0 83 -9.4 130 324 997.9 NA 0.0000 9999 2230 0 0 0
2017/11/04 10:46:00 BASE 5.31 200 8.03 194 -7.0 82 -9.5 155 375 997.9 NA 0.0000 9999 1900 0 0 0
2017/11/04 10:47:00 BASE 4.84 197 8.03 194 -7.1 82 -9.6 168 401 997.9 NA 0.0000 9999 1640 0 0 0
2017/11/04 10:48:00 BASE 5.13 190 8.03 194 -7.1 82 -9.7 174 410 997.9 NA 0.0000 9999 1570 0 0 0
2017/11/04 10:49:00 BASE 5.73 186 8.03 194 -7.0 81 -9.7 182 426 997.9 NA 0.0000 9999 1570 23100 0 0
2017/11/04 10:50:00 BASE 6.19 190 8.03 194 -7.0 81 -9.7 194 451 997.9 NA 0.0000 9999 1540 0 0 0
2017/11/04 10:51:00 BASE 6.58 192 8.03 194 -7.0 81 -9.6 198 457 997.9 NA 0.0000 9999 2200 0 0 0
2017/11/04 10:52:00 BASE 6.42 189 8.03 194 -6.9 82 -9.5 198 460 997.9 NA 0.0000 9999 1740 0 0 0
2017/11/04 10:53:00 BASE 5.95 186 7.25 195 -6.9 82 -9.5 212 487 997.9 NA 0.0000 9999 1870 0 0 0
2017/11/04 10:54:00 BASE 5.62 184 7.25 195 -6.9 82 -9.4 218 499 997.9 NA 0.0000 9999 1710 0 0 0
2017/11/04 10:55:00 BASE 5.68 185 7.25 195 -7.0 83 -9.4 198 461 998.0 NA 0.0000 9999 1670 0 0 0
2017/11/04 10:56:00 BASE 5.49 195 7.25 195 -7.0 83 -9.4 204 472 998.0 NA 0.0000 9999 1840 0 0 0
2017/11/04 10:57:00 BASE 5.33 207 7.25 195 -7.0 83 -9.4 216 501 998.0 NA 0.0000 9999 1800 22340 23160 0
2017/11/04 10:58:00 BASE 5.68 212 7.25 195 -7.0 83 -9.4 197 468 998.0 NA 0.0000 9999 1770 0 0 0
2017/11/04 10:59:00 BASE 5.57 203 7.25 195 -7.0 83 -9.4 181 433 998.0 NA 0.0000 9999 1670 0 0 0
2017/11/04 11:00:00 BASE 5.42 197 7.25 195 -7.0 83 -9.5 195 461 998.0 NA 0.0000 9999 1610 2660 0 0
2017/11/04 11:01:00 BASE 5.66 199 7.20 185 -7.0 82 -9.5 203 482 998.0 NA 0.0000 9999 2000 0 0 0
2017/11/04 11:02:00 BASE 5.72 197 7.05 187 -7.0 82 -9.5 191 460 998.0 NA 0.0000 9999 1670 0 0 0
2017/11/04 11:03:00 BASE 5.79 201 7.05 187 -7.0 82 -9.5 182 443 998.1 NA 0.0000 9999 1670 0 0 0
2017/11/04 11:04:00 BASE 6.30 210 7.51 206 -7.0 83 -9.4 178 434 998.0 NA 0.0000 9999 1740 0 0 0
2017/11/04 11:05:00 BASE 6.86 207 7.51 206 -7.0 83 -9.4 181 441 998.0 NA 0.0000 9999 1710 0 0 0
2017/11/04 11:06:00 BASE 6.42 198 7.51 206 -7.0 83 -9.4 185 451 998.0 NA 0.0000 9999 1740 0 0 0
2017/11/04 11:07:00 BASE 5.71 190 7.51 206 -7.0 83 -9.5 186 453 998.0 NA 0.0000 9999 1770 0 0 0
2017/11/04 11:08:00 BASE 5.80 194 7.51 206 -7.0 82 -9.5 181 447 998.0 NA 0.0000 9999 1740 0 0 0
2017/11/04 11:09:00 BASE 6.13 199 7.51 206 -7.0 82 -9.5 175 436 998.0 NA 0.0000 9999 1710 0 0 0
2017/11/04 11:10:00 BASE 6.09 195 7.51 206 -7.0 82 -9.6 171 430 998.0 NA 0.0000 9999 1610 0 0 0
2017/11/04 11:11:00 BASE 5.78 194 7.51 206 -7.0 82 -9.6 168 425 998.0 NA 0.0000 9999 1740 0 0 0
2017/11/04 11:12:00 BASE 6.06 193 7.51 206 -7.0 82 -9.5 169 427 998.0 NA 0.0000 9999 1740 22970 0 0
2017/11/04 11:13:00 BASE 5.94 195 7.51 206 -7.0 82 -9.5 171 430 998.1 NA 0.0000 9999 1670 0 0 0
2017/11/04 11:14:00 BASE 5.38 197 7.41 211 -7.0 82 -9.5 173 433 998.1 NA 0.0000 9999 1640 0 0 0
2017/11/04 11:15:00 BASE 5.82 195 8.69 196 -7.0 82 -9.5 179 443 998.0 NA 0.0000 9999 1740 0 0 0
2017/11/04 11:16:00 BASE 6.59 196 8.69 196 -7.0 83 -9.4 182 450 998.0 NA 0.0000 9999 1800 0 0 0
2017/11/04 11:17:00 BASE 6.17 197 8.69 196 -7.0 83 -9.4 181 448 998.0 NA 0.0000 9999 1610 0 0 0
2017/11/04 11:18:00 BASE 5.86 193 8.69 196 -7.0 83 -9.4 181 449 998.0 NA 0.0000 9999 1640 0 0 0
2017/11/04 11:19:00 BASE 6.47 186 8.69 196 -7.0 83 -9.4 183 449 998.0 NA 0.0000 9999 1610 0 0 0
2017/11/04 11:20:00 BASE 6.62 185 8.69 196 -7.0 83 -9.4 191 463 998.1 NA 0.0000 9999 1670 0 0 0
2017/11/04 11:21:00 BASE 6.53 185 8.69 196 -7.0 83 -9.4 207 490 998.1 NA 0.0000 9999 1800 0 0 0
2017/11/04 11:22:00 BASE 6.88 190 8.69 196 -7.0 83 -9.5 233 542 998.1 NA 0.0000 9999 2100 0 0 0
2017/11/04 11:23:00 BASE 6.17 195 8.69 196 -7.0 82 -9.5 253 585 998.2 NA 0.0000 9999 2000 0 0 0
2017/11/04 11:24:00 BASE 4.95 192 8.69 196 -7.0 82 -9.6 253 589 998.2 NA 0.0000 9999 1870 23200 0 0
2017/11/04 11:25:00 BASE 5.02 186 8.13 198 -7.0 81 -9.7 236 560 998.2 NA 0.0000 9999 1770 0 0 0
2017/11/04 11:26:00 BASE 5.42 186 7.92 194 -7.0 81 -9.7 224 537 998.2 NA 0.0000 9999 1800 0 0 0
2017/11/04 11:27:00 BASE 5.92 187 7.92 194 -7.0 81 -9.7 205 502 998.2 NA 0.0000 9999 1740 0 0 0
2017/11/04 11:28:00 BASE 5.82 180 7.92 194 -7.0 81 -9.7 190 470 998.2 NA 0.0000 9999 1800 0 0 0
2017/11/04 11:29:00 BASE 4.94 180 7.92 194 -7.0 81 -9.7 181 452 998.2 NA 0.0000 9999 1770 0 0 0
2017/11/04 11:30:00 BASE 4.23 185 7.92 194 -7.0 81 -9.7 170 431 998.2 NA 0.0000 9999 1800 0 0 0
2017/11/04 11:31:00 BASE 4.61 190 7.92 194 -7.0 81 -9.7 164 421 998.2 NA 0.0000 9999 1740 0 0 0
2017/11/04 11:32:00 BASE 5.53 199 6.94 185 -7.0 81 -9.7 161 415 998.2 NA 0.0000 9999 1800 0 0 0
2017/11/04 11:33:00 BASE 5.51 201 6.94 185 -7.0 81 -9.6 167 424 998.2 NA 0.0000 9999 1710 0 0 0
2017/11/04 11:34:00 BASE 5.60 200 6.94 207 -7.0 81 -9.6 188 466 998.2 NA 0.0000 9999 1800 0 0 0
2017/11/04 11:35:00 BASE 5.96 204 6.94 207 -7.0 81 -9.6 194 481 998.2 NA 0.0000 9999 2030 22770 0 0
2017/11/04 11:36:00 BASE 5.49 205 6.94 207 -6.9 81 -9.6 193 479 998.2 NA 0.0000 9999 1840 0 0 0
2017/11/04 11:37:00 BASE 5.18 203 6.94 207 -6.9 81 -9.7 196 486 998.2 NA 0.0000 9999 1800 0 0 0
2017/11/04 11:38:00 BASE 5.56 199 6.94 207 -6.9 81 -9.7 201 497 998.2 NA 0.0000 9999 1770 0 0 0
2017/11/04 11:39:00 BASE 6.10 196 7.05 197 -6.9 81 -9.7 205 504 998.2 NA 0.0000 9999 1870 0 0 0
2017/11/04 11:40:00 BASE 6.37 197 7.10 199 -6.9 81 -9.7 214 521 998.2 NA 0.0000 9999 1940 0 0 0
2017/11/04 11:41:00 BASE 5.84 197 7.10 199 -6.9 81 -9.7 219 531 998.2 NA 0.0000 9999 1870 0 0 0
2017/11/04 11:42:00 BASE 5.12 191 7.10 199 -6.9 80 -9.7 214 523 998.2 NA 0.0000 9999 1940 0 0 0
2017/11/04 11:43:00 BASE 4.93 192 7.10 199 -6.9 80 -9.7 203 502 998.3 NA 0.0000 9999 2070 0 0 0
2017/11/04 11:44:00 BASE 5.07 204 7.10 199 -6.8 80 -9.8 192 479 998.3 NA 0.0000 9999 1840 0 0 0
2017/11/04 11:45:00 BASE 5.35 212 7.10 199 -6.8 80 -9.8 192 475 998.2 NA 0.0000 9999 1970 0 0 0
2017/11/04 11:46:00 BASE 5.97 205 7.10 199 -6.8 79 -9.8 202 494 998.2 NA 0.0000 9999 1710 2170 0 0
2017/11/04 11:47:00 BASE 5.98 194 7.10 199 -6.8 79 -9.8 222 534 998.2 NA 0.0000 9999 2100 0 0 0
2017/11/04 11:48:00 BASE 5.41 190 7.10 199 -6.8 79 -9.8 231 553 998.2 NA 0.0000 9999 1940 0 0 0
2017/11/04 11:49:00 BASE 4.82 189 7.10 199 -6.8 79 -9.9 245 582 998.3 NA 0.0000 9999 1900 0 0 0
2017/11/04 11:50:00 BASE 4.33 188 7.00 208 -6.8 79 -9.9 248 592 998.3 NA 0.0000 9999 1870 2330 0 0
2017/11/04 11:51:00 BASE 4.11 191 7.00 208 -6.8 79 -9.9 248 595 998.3 NA 0.0000 9999 1770 0 0 0
2017/11/04 11:52:00 BASE 4.80 189 7.00 208 -6.8 79 -9.9 240 580 998.2 NA 0.0000 9999 1800 0 0 0
2017/11/04 11:53:00 BASE 5.83 188 7.15 192 -6.8 79 -9.8 240 580 998.2 NA 0.0000 9999 1800 2230 0 0
2017/11/04 11:54:00 BASE 5.69 192 7.15 192 -6.8 79 -9.8 239 579 998.3 NA 0.0000 9999 1840 0 0 0
2017/11/04 11:55:00 BASE 5.49 199 7.15 192 -6.7 79 -9.7 234 570 998.3 NA 0.0000 9999 2130 24280 0 0
2017/11/04 11:56:00 BASE 5.10 205 7.15 192 -6.7 79 -9.7 225 554 998.3 NA 0.0000 9999 2030 22970 0 0
2017/11/04 11:57:00 BASE 5.31 201 7.15 192 -6.7 80 -9.7 220 545 998.3 NA 0.0000 9999 2070 0 0 0
2017/11/04 11:58:00 BASE 6.50 201 7.20 202 -6.7 80 -9.6 221 545 998.3 NA 0.0000 9999 1940 0 0 0
2017/11/04 11:59:00 BASE 6.63 202 7.20 202 -6.8 80 -9.7 227 555 998.4 NA 0.0000 9999 2000 0 0 0
2017/11/04 12:00:00 BASE 5.56 202 7.20 202 -6.8 80 -9.7 245 590 998.4 NA 0.0000 9999 1840 0 0 0
2017/11/04 12:01:00 BASE 5.27 201 7.20 202 -6.8 79 -9.7 254 609 998.3 NA 0.0000 9999 1900 0 0 0
2017/11/04 12:02:00 BASE 5.85 199 7.20 202 -6.8 79 -9.7 247 597 998.4 NA 0.0000 9999 2070 0 0 0
2017/11/04 12:03:00 BASE 5.94 200 7.20 202 -6.8 79 -9.7 244 590 998.4 NA 0.0000 9999 1870 0 0 0
2017/11/04 12:04:00 BASE 5.96 200 7.31 200 -6.8 79 -9.7 248 598 998.4 NA 0.0000 9999 1970 0 0 0
2017/11/04 12:05:00 BASE 5.92 196 7.31 200 -6.8 79 -9.8 254 611 998.4 NA 0.0000 9999 1940 0 0 0
2017/11/04 12:06:00 BASE 5.62 192 7.31 200 -6.8 79 -9.8 264 630 998.4 NA 0.0000 9999 1940 0 0 0
2017/11/04 12:07:00 BASE 5.47 192 7.31 200 -6.8 79 -9.9 285 673 998.3 NA 0.0000 9999 2070 0 0 0
2017/11/04 12:08:00 BASE 5.50 192 7.31 200 -6.8 78 -10.0 282 671 998.3 NA 0.0000 9999 1940 0 0 0
2017/11/04 12:09:00 BASE 5.81 192 7.31 200 -6.8 78 -10.0 270 649 998.3 NA 0.0000 9999 1900 0 0 0
2017/11/04 12:10:00 BASE 6.22 190 7.31 200 -6.8 78 -10.0 275 660 998.3 NA 0.0000 9999 1900 0 0 0
2017/11/04 12:11:00 BASE 5.45 192 7.31 200 -6.8 78 -9.9 283 677 998.3 NA 0.0000 9999 1840 0 0 0
2017/11/04 12:12:00 BASE 5.13 197 7.31 200 -6.7 78 -9.9 286 683 998.3 NA 0.0000 9999 1800 0 0 0
2017/11/04 12:13:00 BASE 5.93 199 7.31 200 -6.7 78 -9.9 284 678 998.3 NA 0.0000 9999 1870 0 0 0
2017/11/04 12:14:00 BASE 5.87 199 6.94 189 -6.8 78 -9.9 278 667 998.3 NA 0.0000 9999 1900 0 0 0
2017/11/04 12:15:00 BASE 5.26 197 6.94 189 -6.8 78 -9.9 272 653 998.3 NA 0.0000 9999 1870 0 0 0
2017/11/04 12:16:00 BASE 5.40 195 6.94 189 -6.8 78 -9.9 272 651 998.3 NA 0.0000 9999 1900 0 0 0
2017/11/04 12:17:00 BASE 5.69 199 6.94 189 -6.8 78 -10.0 275 653 998.3 NA 0.0000 9999 1940 0 0 0
2017/11/04 12:18:00 BASE 5.42 200 6.94 189 -6.8 78 -10.0 276 654 998.3 NA 0.0000 9999 2070 0 0 0
2017/11/04 12:19:00 BASE 5.08 197 6.94 189 -6.8 78 -10.1 267 630 998.3 NA 0.0000 9999 2000 0 0 0
2017/11/04 12:20:00 BASE 5.09 203 6.89 195 -6.8 78 -10.1 271 638 998.3 NA 0.0000 9999 1970 0 0 0
2017/11/04 12:21:00 BASE 5.56 211 7.15 218 -6.8 77 -10.1 384 865 998.3 NA 0.0000 9999 2100 0 0 0
2017/11/04 12:22:00 BASE 5.58 211 7.15 218 -6.8 77 -10.2 352 792 998.3 NA 0.0000 9999 2200 0 0 0
2017/11/04 12:23:00 BASE 5.37 209 7.15 218 -6.8 77 -10.3 556 1168 998.3 NA 0.0000 9999 2230 0 0 0
2017/11/04 12:24:00 BASE 5.27 210 7.15 218 -6.8 76 -10.2 274 642 998.3 NA 0.0000 9999 2230 0 0 0
2017/11/04 12:25:00 BASE 5.09 211 7.15 218 -6.8 76 -10.3 273 644 998.3 NA 0.0000 9999 2070 0 0 0
2017/11/04 12:26:00 BASE 4.30 214 7.15 218 -6.8 76 -10.3 315 731 998.3 NA 0.0000 9999 2130 0 0 0
2017/11/04 12:27:00 BASE 3.55 212 7.15 218 -6.8 76 -10.3 360 826 998.3 NA 0.0000 9999 2130 0 0 0
2017/11/04 12:28:00 BASE 3.61 205 7.15 218 -6.8 76 -10.3 388 889 998.3 NA 0.0000 9999 2030 0 0 0
2017/11/04 12:29:00 BASE 3.98 204 7.15 218 -6.8 77 -10.3 388 895 998.3 NA 0.0000 9999 1940 0 0 0
2017/11/04 12:30:00 BASE 4.62 208 7.15 218 -6.8 77 -10.2 365 856 998.3 NA 0.0000 9999 1870 23660 0 0
2017/11/04 12:31:00 BASE 5.05 207 6.38 212 -6.8 77 -10.1 337 802 998.3 NA 0.0000 9999 1840 17850 0 0
2017/11/04 12:32:00 BASE 4.95 202 6.22 208 -6.8 77 -10.1 319 766 998.4 NA 0.0000 9999 1710 0 0 0
2017/11/04 12:33:00 BASE 4.34 200 6.02 197 -6.8 78 -10.0 319 764 998.4 NA 0.0000 9999 1670 0 0 0
2017/11/04 12:34:00 BASE 4.25 200 6.02 197 -6.8 78 -10.0 330 786 998.4 NA 0.0000 9999 2030 0 0 0
2017/11/04 12:35:00 BASE 4.55 201 6.02 197 -6.8 78 -10.0 330 790 998.4 NA 0.0000 9999 1970 0 0 0
2017/11/04 12:36:00 BASE 4.86 203 6.02 197 -6.8 78 -10.0 314 762 998.4 NA 0.0000 9999 1740 0 0 0
2017/11/04 12:37:00 BASE 4.37 199 6.02 197 -6.8 78 -9.9 296 727 998.4 NA 0.0000 9999 1640 0 0 0
2017/11/04 12:38:00 BASE 3.77 191 6.02 197 -6.8 79 -9.9 286 707 998.4 NA 0.0000 9999 1740 0 0 0
2017/11/04 12:39:00 BASE 4.16 195 6.02 197 -6.8 79 -9.9 285 705 998.4 NA 0.0000 9999 1710 0 0 0
2017/11/04 12:40:00 BASE 4.26 199 6.02 197 -6.8 79 -9.9 283 702 998.4 NA 0.0000 9999 1740 0 0 0
2017/11/04 12:41:00 BASE 4.07 193 5.71 214 -6.9 79 -9.9 277 692 998.4 NA 0.0000 9999 1740 21330 0 0
2017/11/04 12:42:00 BASE 3.51 188 5.71 214 -6.9 79 -9.9 274 684 998.4 NA 0.0000 9999 1740 0 0 0
2017/11/04 12:43:00 BASE 3.42 190 5.71 214 -6.9 79 -9.9 273 683 998.4 NA 0.0000 9999 1740 0 0 0
2017/11/04 12:44:00 BASE 4.53 190 5.92 196 -6.9 79 -9.9 276 688 998.4 NA 0.0000 9999 1770 0 0 0
2017/11/04 12:45:00 BASE 4.85 189 5.92 196 -6.9 79 -9.9 281 697 998.4 NA 0.0000 9999 1800 21000 0 0
2017/11/04 12:46:00 BASE 4.63 191 5.92 196 -6.8 79 -9.9 287 708 998.4 NA 0.0000 9999 1870 0 0 0
2017/11/04 12:47:00 BASE 4.99 200 5.92 196 -6.8 79 -9.8 295 724 998.4 NA 0.0000 9999 1670 0 0 0
2017/11/04 12:48:00 BASE 5.13 207 5.92 213 -6.8 79 -9.8 301 737 998.5 NA 0.0000 9999 1900 0 0 0
2017/11/04 12:49:00 BASE 5.19 210 5.92 213 -6.8 79 -9.8 301 739 998.5 NA 0.0000 9999 1710 0 0 0
2017/11/04 12:50:00 BASE 4.77 206 5.92 213 -6.8 79 -9.8 298 736 998.5 NA 0.0000 9999 1770 0 0 0
2017/11/04 12:51:00 BASE 3.76 203 5.92 213 -6.8 79 -9.8 297 733 998.5 NA 0.0000 9999 1740 0 0 0
2017/11/04 12:52:00 BASE 3.77 206 5.92 213 -6.8 79 -9.8 300 738 998.5 NA 0.0000 9999 1770 0 0 0
2017/11/04 12:53:00 BASE 3.83 201 5.92 213 -6.8 79 -9.8 305 749 998.5 NA 0.0000 9999 1800 0 0 0
2017/11/04 12:54:00 BASE 4.02 205 5.92 214 -6.9 79 -9.9 310 761 998.5 NA 0.0000 9999 1740 0 0 0
2017/11/04 12:55:00 BASE 4.46 217 5.92 214 -6.8 79 -9.9 312 766 998.5 NA 0.0000 9999 1670 0 0 0
2017/11/04 12:56:00 BASE 4.18 210 5.92 214 -6.8 79 -9.9 309 761 998.5 NA 0.0000 9999 1710 18370 0 0
2017/11/04 12:57:00 BASE 4.12 209 5.92 214 -6.8 79 -9.9 303 752 998.5 NA 0.0000 9999 1670 0 0 0
2017/11/04 12:58:00 BASE 3.66 225 5.92 214 -6.8 79 -9.9 298 744 998.5 NA 0.0000 9999 1640 0 0 0
2017/11/04 12:59:00 BASE 3.13 226 5.92 214 -6.8 79 -9.8 294 738 998.5 NA 0.0000 9999 1640 0 0 0
2017/11/04 13:00:00 BASE 3.12 215 5.92 214 -6.8 79 -9.8 291 732 998.5 NA 0.0000 9999 1670 0 0 0
2017/11/04 13:01:00 BASE 3.07 202 5.92 214 -6.8 79 -9.8 287 725 998.5 NA 0.0000 9999 1610 0 0 0
2017/11/04 13:02:00 BASE 2.98 195 5.92 214 -6.8 80 -9.7 285 723 998.5 NA 0.0000 9999 1670 0 0 0
2017/11/04 13:03:00 BASE 3.39 202 5.92 214 -6.8 80 -9.7 286 724 998.5 NA 0.0000 9999 1640 0 0 0
2017/11/04 13:04:00 BASE 4.75 209 6.48 217 -6.8 80 -9.6 289 731 998.5 NA 0.0000 9999 1640 0 0 0
2017/11/04 13:05:00 BASE 4.90 211 6.48 217 -6.8 80 -9.6 294 740 998.5 NA 0.0000 9999 1610 0 0 0
2017/11/04 13:06:00 BASE 3.90 207 6.48 217 -6.8 81 -9.6 299 750 998.5 NA 0.0000 9999 1540 0 0 0
2017/11/04 13:07:00 BASE 4.04 203 6.48 217 -6.8 81 -9.5 301 756 998.5 NA 0.0000 9999 1610 0 0 0
2017/11/04 13:08:00 BASE 4.37 200 6.48 217 -6.8 81 -9.5 300 755 998.5 NA 0.0000 9999 1610 0 0 0
2017/11/04 13:09:00 BASE 4.19 200 6.48 217 -6.8 81 -9.5 297 749 998.5 NA 0.0000 9999 1570 0 0 0
2017/11/04 13:10:00 BASE 3.82 208 6.48 217 -6.8 81 -9.5 296 746 998.5 NA 0.0000 9999 1570 22930 0 0
2017/11/04 13:11:00 BASE 3.93 215 6.48 217 -6.8 81 -9.5 295 744 998.5 NA 0.0000 9999 1570 0 0 0
2017/11/04 13:12:00 BASE 3.57 212 6.48 217 -6.8 81 -9.5 294 743 998.5 NA 0.0000 9999 1570 0 0 0
2017/11/04 13:13:00 BASE 3.09 209 6.48 217 -6.8 81 -9.5 295 745 998.5 NA 0.0000 9999 1640 0 0 0
2017/11/04 13:14:00 BASE 4.30 206 6.22 185 -6.8 82 -9.4 297 749 998.5 NA 0.0000 9999 1640 19980 0 0
2017/11/04 13:15:00 BASE 5.38 200 6.22 185 -6.8 82 -9.3 300 754 998.6 NA 0.0000 9999 1670 0 0 0
2017/11/04 13:16:00 BASE 4.69 198 6.22 185 -6.8 82 -9.3 303 759 998.6 NA 0.0000 9999 1740 0 0 0
2017/11/04 13:17:00 BASE 4.13 198 6.22 185 -6.8 82 -9.3 306 763 998.6 NA 0.0000 9999 1710 0 0 0
2017/11/04 13:18:00 BASE 4.39 199 6.22 185 -6.8 82 -9.4 309 769 998.6 NA 0.0000 9999 1710 0 0 0
2017/11/04 13:19:00 BASE 4.24 198 6.22 185 -6.8 82 -9.5 317 782 998.6 NA 0.0000 9999 1740 0 0 0
2017/11/04 13:20:00 BASE 3.90 201 6.22 185 -6.8 81 -9.5 326 800 998.6 NA 0.0000 9999 1740 0 0 0
2017/11/04 13:21:00 BASE 4.07 206 6.22 185 -6.8 81 -9.5 335 820 998.6 NA 0.0000 9999 1900 0 0 0
2017/11/04 13:22:00 BASE 4.29 208 6.22 185 -6.8 81 -9.5 337 828 998.6 NA 0.0000 9999 1800 0 0 0
2017/11/04 13:23:00 BASE 4.30 211 6.22 185 -6.8 81 -9.4 335 825 998.6 NA 0.0000 9999 1710 0 0 0
2017/11/04 13:24:00 BASE 4.28 220 6.02 208 -6.7 82 -9.4 330 817 998.6 NA 0.0000 9999 1670 0 0 0
2017/11/04 13:25:00 BASE 3.96 226 5.09 217 -6.7 82 -9.4 325 808 998.6 NA 0.0000 9999 1670 0 0 0
2017/11/04 13:26:00 BASE 4.12 230 5.09 217 -6.8 82 -9.4 322 801 998.6 NA 0.0000 9999 1710 0 0 0
2017/11/04 13:27:00 BASE 4.46 231 5.56 218 -6.8 81 -9.4 322 802 998.6 NA 0.0000 9999 1740 0 0 0
2017/11/04 13:28:00 BASE 4.59 223 5.92 203 -6.8 81 -9.5 327 810 998.7 NA 0.0000 9999 1710 0 0 0
2017/11/04 13:29:00 BASE 4.31 216 5.92 203 -6.8 81 -9.5 333 821 998.7 NA 0.0000 9999 1740 0 0 0
2017/11/04 13:30:00 BASE 3.80 217 5.92 203 -6.8 81 -9.5 342 840 998.8 NA 0.0000 9999 1710 0 0 0
2017/11/04 13:31:00 BASE 3.68 217 5.92 203 -6.7 81 -9.5 353 863 998.8 NA 0.0000 9999 1740 0 0 0
2017/11/04 13:32:00 BASE 3.69 213 5.92 203 -6.7 81 -9.5 361 882 998.8 NA 0.0000 9999 1800 0 0 0
2017/11/04 13:33:00 BASE 3.41 213 5.92 203 -6.8 81 -9.5 363 890 998.9 NA 0.0000 9999 1740 23030 23750 0
2017/11/04 13:34:00 BASE 2.64 218 5.92 203 -6.8 81 -9.5 357 881 998.9 NA 0.0000 9999 1640 0 0 0
2017/11/04 13:35:00 BASE 2.16 222 5.92 203 -6.8 81 -9.5 347 863 998.9 NA 0.0000 9999 1640 22280 0 0
2017/11/04 13:36:00 BASE 1.79 219 5.92 203 -6.8 81 -9.5 339 848 998.9 NA 0.0000 9999 1640 0 0 0
2017/11/04 13:37:00 BASE 1.87 221 5.92 203 -6.8 81 -9.5 334 837 998.9 NA 0.0000 9999 1640 0 0 0
2017/11/04 13:38:00 BASE 3.11 231 4.42 211 -6.8 81 -9.5 334 837 998.9 NA 0.0000 9999 1640 0 0 0
2017/11/04 13:39:00 BASE 3.62 231 4.42 211 -6.8 81 -9.4 337 843 998.9 NA 0.0000 9999 1610 20340 0 0
2017/11/04 13:40:00 BASE 3.38 231 4.42 211 -6.8 82 -9.4 340 848 998.9 NA 0.0000 9999 1610 0 0 0
2017/11/04 13:41:00 BASE 3.55 235 4.32 231 -6.8 82 -9.3 343 856 998.9 NA 0.0000 9999 1640 0 0 0
2017/11/04 13:42:00 BASE 3.55 233 4.32 231 -6.7 82 -9.3 348 865 998.9 NA 0.0000 9999 1640 16960 17750 0
2017/11/04 13:43:00 BASE 3.82 231 4.48 238 -6.7 82 -9.3 353 875 998.9 NA 0.0000 9999 1610 22930 0 0
2017/11/04 13:44:00 BASE 3.78 233 4.48 238 -6.7 82 -9.3 356 882 998.8 NA 0.0000 9999 1610 0 0 0
2017/11/04 13:45:00 BASE 2.88 230 4.48 238 -6.8 82 -9.3 356 882 998.8 NA 0.0000 9999 1640 22150 0 0
2017/11/04 13:46:00 BASE 2.87 221 4.48 238 -6.8 82 -9.3 353 877 998.9 NA 0.0000 9999 1670 0 0 0
2017/11/04 13:47:00 BASE 3.78 218 4.89 218 -6.8 82 -9.3 351 873 998.9 NA 0.0000 9999 1640 0 0 0
2017/11/04 13:48:00 BASE 3.95 221 4.89 218 -6.8 82 -9.3 351 874 998.9 NA 0.0000 9999 1670 0 0 0
2017/11/04 13:49:00 BASE 4.12 228 5.92 245 -6.8 82 -9.3 352 877 998.8 NA 0.0000 9999 1570 0 0 0
2017/11/04 13:50:00 BASE 4.55 237 5.92 245 -6.8 82 -9.3 353 879 998.8 NA 0.0000 9999 1540 0 0 0
2017/11/04 13:51:00 BASE 4.48 238 5.92 245 -6.7 82 -9.3 352 879 998.8 NA 0.0000 9999 1570 0 0 0
2017/11/04 13:52:00 BASE 4.33 235 5.92 245 -6.7 82 -9.3 352 879 998.8 NA 0.0000 9999 1570 0 0 0
2017/11/04 13:53:00 BASE 3.99 236 5.92 245 -6.7 81 -9.4 353 882 998.8 NA 0.0000 9999 1640 0 0 0
2017/11/04 13:54:00 BASE 3.66 232 5.92 245 -6.7 81 -9.4 355 886 998.9 NA 0.0000 9999 1510 0 0 0
2017/11/04 13:55:00 BASE 3.05 225 5.92 245 -6.7 81 -9.4 356 887 998.9 NA 0.0000 9999 1440 0 0 0
2017/11/04 13:56:00 BASE 2.45 223 5.92 245 -6.7 81 -9.4 355 886 998.9 NA 0.0000 9999 1570 20310 21260 0
2017/11/04 13:57:00 BASE 2.63 228 5.92 245 -6.7 81 -9.4 354 884 998.9 NA 0.0000 9999 1570 0 0 0
2017/11/04 13:58:00 BASE 2.85 234 5.92 245 -6.7 81 -9.4 353 881 998.9 NA 0.0000 9999 1610 0 0 0
2017/11/04 13:59:00 BASE 2.70 233 5.61 248 -6.7 81 -9.5 353 881 998.9 NA 0.0000 9999 1670 0 0 0
2017/11/04 14:00:00 BASE 2.35 231 5.25 233 -6.8 81 -9.5 354 883 998.9 NA 0.0000 9999 1640 0 0 0
2017/11/04 14:01:00 BASE 2.42 236 4.84 234 -6.7 81 -9.5 354 882 998.9 NA 0.0000 9999 1640 0 0 0
2017/11/04 14:02:00 BASE 2.42 240 4.37 235 -6.7 81 -9.4 355 884 998.9 NA 0.0000 9999 1640 0 0 0
2017/11/04 14:03:00 BASE 2.72 234 4.12 227 -6.7 81 -9.4 357 887 998.9 NA 0.0000 9999 1670 0 0 0
2017/11/04 14:04:00 BASE 3.21 226 3.81 225 -6.7 81 -9.3 359 892 998.9 NA 0.0000 9999 1640 0 0 0
2017/11/04 14:05:00 BASE 2.87 228 3.81 225 -6.7 81 -9.3 361 896 998.9 NA 0.0000 9999 1610 18240 19850 0
2017/11/04 14:06:00 BASE 2.75 232 3.81 225 -6.6 82 -9.3 363 900 998.9 NA 0.0000 9999 1610 0 0 0
2017/11/04 14:07:00 BASE 2.86 230 3.81 225 -6.6 82 -9.2 368 910 998.9 NA 0.0000 9999 1640 23520 0 0
2017/11/04 14:08:00 BASE 2.49 233 3.81 225 -6.6 82 -9.3 375 922 998.9 NA 0.0000 9999 1640 0 0 0
2017/11/04 14:09:00 BASE 1.94 243 3.81 225 -6.7 81 -9.3 381 935 999.0 NA 0.0000 9999 1640 0 0 0
2017/11/04 14:10:00 BASE 0.99 242 3.81 225 -6.7 81 -9.3 385 943 999.0 NA 0.0000 9999 1710 20380 0 0
2017/11/04 14:11:00 BASE 0.73 237 3.81 225 -6.7 81 -9.4 383 942 999.0 NA 0.0000 9999 1740 20510 0 0
2017/11/04 14:12:00 BASE 1.51 238 3.81 225 -6.7 81 -9.4 378 935 999.0 NA 0.0000 9999 1740 0 0 0
2017/11/04 14:13:00 BASE 2.44 235 3.70 229 -6.7 81 -9.4 373 926 999.0 NA 0.0000 9999 1740 0 0 0
2017/11/04 14:14:00 BASE 2.96 235 3.70 229 -6.6 81 -9.3 369 919 999.0 NA 0.0000 9999 1740 0 0 0
2017/11/04 14:15:00 BASE 2.88 235 3.76 234 -6.6 81 -9.3 369 917 999.0 NA 0.0000 9999 1740 0 0 0
2017/11/04 14:16:00 BASE 3.36 235 4.78 220 -6.5 81 -9.2 376 930 999.0 NA 0.0000 9999 1640 0 0 0
2017/11/04 14:17:00 BASE 3.65 231 4.78 220 -6.5 81 -9.1 383 945 999.0 NA 0.0000 9999 1610 0 0 0
2017/11/04 14:18:00 BASE 3.15 225 4.78 220 -6.5 81 -9.1 387 952 999.0 NA 0.0000 9999 1670 0 0 0
2017/11/04 14:19:00 BASE 3.29 224 4.78 220 -6.4 82 -9.1 384 947 999.0 NA 0.0000 9999 1710 21920 0 0
2017/11/04 14:20:00 BASE 3.29 221 4.78 220 -6.4 82 -9.0 376 930 999.0 NA 0.0000 9999 1610 0 0 0
2017/11/04 14:21:00 BASE 2.64 216 4.78 220 -6.4 82 -9.0 370 916 999.0 NA 0.0000 9999 1610 0 0 0
2017/11/04 14:22:00 BASE 2.89 217 4.78 220 -6.4 82 -9.0 370 913 999.1 NA 0.0000 9999 1640 0 0 0
2017/11/04 14:23:00 BASE 3.29 215 4.78 220 -6.4 82 -8.9 375 920 999.1 NA 0.0000 9999 1670 0 0 0
2017/11/04 14:24:00 BASE 3.72 206 4.99 207 -6.4 82 -8.9 382 933 999.1 NA 0.0000 9999 1770 0 0 0
2017/11/04 14:25:00 BASE 3.67 202 4.99 207 -6.4 82 -8.9 390 948 999.1 NA 0.0000 9999 1800 0 0 0
2017/11/04 14:26:00 BASE 3.33 202 4.99 207 -6.4 82 -8.9 395 958 999.1 NA 0.0000 9999 1770 0 0 0
2017/11/04 14:27:00 BASE 3.50 198 4.99 207 -6.4 82 -8.9 394 957 999.1 NA 0.0000 9999 1710 0 0 0
2017/11/04 14:28:00 BASE 3.93 199 4.99 207 -6.4 82 -9.0 390 946 999.1 NA 0.0000 9999 1740 0 0 0
2017/11/04 14:29:00 BASE 3.73 213 4.99 207 -6.4 81 -9.1 381 922 999.1 NA 0.0000 9999 1740 20740 0 0
2017/11/04 14:30:00 BASE 3.36 219 4.99 207 -6.4 81 -9.0 365 886 999.1 NA 0.0000 9999 2000 0 0 0
2017/11/04 14:31:00 BASE 3.81 209 4.99 207 -6.3 81 -9.0 354 859 999.1 NA 0.0000 9999 2070 0 0 0
2017/11/04 14:32:00 BASE 3.82 199 4.99 207 -6.3 81 -9.0 360 867 999.1 NA 0.0000 9999 1940 0 0 0
2017/11/04 14:33:00 BASE 3.40 194 4.99 207 -6.4 81 -9.1 410 963 999.1 NA 0.0000 9999 2260 0 0 0
2017/11/04 14:34:00 BASE 3.29 200 4.89 211 -6.4 81 -9.2 471 1084 999.1 NA 0.0000 9999 1970 0 0 0
2017/11/04 14:35:00 BASE 3.34 213 4.89 211 -6.4 80 -9.2 509 1167 999.1 NA 0.0000 9999 1940 0 0 0
2017/11/04 14:36:00 BASE 3.54 213 4.89 202 -6.3 79 -9.3 472 1097 999.1 NA 0.0000 9999 2200 0 0 0
2017/11/04 14:37:00 BASE 4.20 206 4.89 202 -6.3 79 -9.3 461 1080 999.1 NA 0.0000 9999 2000 0 0 0
2017/11/04 14:38:00 BASE 4.20 199 4.89 202 -6.2 79 -9.4 445 1052 999.1 NA 0.0000 9999 2070 0 0 0
2017/11/04 14:39:00 BASE 3.92 197 4.89 202 -6.2 78 -9.4 438 1038 999.1 NA 0.0000 9999 2030 0 0 0
2017/11/04 14:40:00 BASE 3.88 199 4.89 202 -6.2 78 -9.5 429 1023 999.1 NA 0.0000 9999 1970 0 0 0
2017/11/04 14:41:00 BASE 3.70 207 4.89 202 -6.3 77 -9.6 410 986 999.1 NA 0.0000 9999 1940 0 0 0
2017/11/04 14:42:00 BASE 3.95 220 4.89 202 -6.3 77 -9.6 389 940 999.1 NA 0.0000 9999 1870 0 0 0
2017/11/04 14:43:00 BASE 4.07 224 4.89 202 -6.3 77 -9.6 375 908 999.1 NA 0.0000 9999 1770 0 0 0
2017/11/04 14:44:00 BASE 3.74 221 4.89 202 -6.3 78 -9.5 371 897 999.1 NA 0.0000 9999 1900 0 0 0
2017/11/04 14:45:00 BASE 3.69 217 4.89 202 -6.3 78 -9.5 372 895 999.1 NA 0.0000 9999 1970 0 0 0
2017/11/04 14:46:00 BASE 4.34 205 5.25 193 -6.3 78 -9.5 365 876 999.1 NA 0.0000 9999 2230 2890 0 0
2017/11/04 14:47:00 BASE 5.23 191 6.07 191 -6.3 78 -9.5 343 831 999.1 NA 0.0000 9999 2200 0 0 0
2017/11/04 14:48:00 BASE 5.30 186 6.07 191 -6.3 78 -9.6 321 785 999.1 NA 0.0000 9999 2000 0 0 0
2017/11/04 14:49:00 BASE 4.93 190 6.07 191 -6.3 77 -9.6 319 779 999.1 NA 0.0000 9999 2130 0 0 0
2017/11/04 14:50:00 BASE 4.56 201 6.07 191 -6.3 77 -9.7 357 856 999.1 NA 0.0000 9999 2100 0 0 0
2017/11/04 14:51:00 BASE 4.02 204 6.07 191 -6.3 77 -9.7 437 1020 999.1 NA 0.0000 9999 2300 23430 0 0
2017/11/04 14:52:00 BASE 3.87 192 6.07 191 -6.3 77 -9.7 563 1273 999.1 NA 0.0000 9999 2030 0 0 0
2017/11/04 14:53:00 BASE 4.36 184 6.07 191 -6.3 77 -9.7 855 1515 999.1 NA 0.0000 9999 1940 0 0 0
2017/11/04 14:54:00 BASE 4.93 188 6.07 191 -6.2 77 -9.7 613 1389 999.1 NA 0.0000 9999 1870 0 0 0
2017/11/04 14:55:00 BASE 5.37 193 6.28 193 -6.1 76 -9.6 452 1060 999.1 NA 0.0000 9999 1900 0 0 0
2017/11/04 14:56:00 BASE 5.37 194 6.28 193 -6.1 76 -9.6 456 1069 999.1 NA 0.0000 9999 1800 0 0 0
2017/11/04 14:57:00 BASE 5.08 190 6.28 193 -6.1 76 -9.6 462 1080 999.1 NA 0.0000 9999 2130 0 0 0
2017/11/04 14:58:00 BASE 5.40 190 6.79 194 -6.1 76 -9.6 432 1020 999.1 NA 0.0000 9999 2000 0 0 0
2017/11/04 14:59:00 BASE 5.68 191 6.79 194 -6.1 76 -9.7 369 889 999.1 NA 0.0000 9999 1970 0 0 0
2017/11/04 15:00:00 BASE 5.16 191 6.79 194 -6.2 76 -9.7 308 759 999.1 NA 0.0000 9999 1900 0 0 0
2017/11/04 15:01:00 BASE 4.87 195 6.79 194 -6.2 76 -9.7 255 648 999.1 NA 0.0000 9999 1870 0 0 0
2017/11/04 15:02:00 BASE 4.78 196 6.79 194 -6.2 77 -9.7 234 597 999.2 NA 0.0000 9999 2070 0 0 0
2017/11/04 15:03:00 BASE 4.32 203 6.79 194 -6.2 77 -9.6 945 1515 999.2 NA 0.0000 9999 2260 0 0 0
2017/11/04 15:04:00 BASE 4.50 211 6.79 194 -6.2 77 -9.6 911 1515 999.2 NA 0.0000 9999 2400 0 0 0
2017/11/04 15:05:00 BASE 4.64 209 6.79 194 -6.2 77 -9.5 700 1515 999.2 NA 0.0000 9999 0 0 0 0
2017/11/04 15:06:00 BASE 4.03 201 6.79 194 -6.2 77 -9.5 913 1515 999.2 NA 0.0000 9999 0 0 0 0
2017/11/04 15:07:00 BASE 3.58 199 6.79 194 -6.1 77 -9.5 769 1515 999.2 NA 0.0000 9999 2000 0 0 0
2017/11/04 15:08:00 BASE 3.58 204 5.92 184 -6.0 76 -9.5 1085 1515 999.2 NA 0.0000 9999 1970 0 0 0
2017/11/04 15:09:00 BASE 3.69 207 5.71 189 -5.9 76 -9.4 452 1054 999.2 NA 0.0000 9999 2000 0 0 0
2017/11/04 15:10:00 BASE 3.71 200 5.71 189 -5.9 76 -9.4 354 854 999.2 NA 0.0000 9999 1870 0 0 0
2017/11/04 15:11:00 BASE 3.65 186 5.30 204 -5.9 76 -9.4 336 809 999.2 NA 0.0000 9999 1800 0 0 0
2017/11/04 15:12:00 BASE 3.65 173 5.30 204 -6.0 77 -9.4 403 934 999.2 NA 0.0000 9999 1970 0 0 0
2017/11/04 15:13:00 BASE 3.51 180 5.30 204 -6.0 77 -9.4 993 1515 999.3 NA 0.0000 9999 2000 0 0 0
2017/11/04 15:14:00 BASE 3.58 196 5.30 204 -6.0 77 -9.4 494 1111 999.2 NA 0.0000 9999 2200 0 0 0
2017/11/04 15:15:00 BASE 3.75 203 4.58 200 -6.0 77 -9.4 840 1515 999.2 NA 0.0000 9999 2070 20280 0 0
2017/11/04 15:16:00 BASE 3.71 201 4.58 200 -6.0 77 -9.4 551 1236 999.2 NA 0.0000 9999 1900 0 0 0
2017/11/04 15:17:00 BASE 3.91 193 4.58 200 -6.0 77 -9.4 494 1118 999.2 NA 0.0000 9999 1940 0 0 0
2017/11/04 15:18:00 BASE 4.11 193 4.58 200 -5.9 76 -9.4 836 1515 999.3 NA 0.0000 9999 2070 0 0 0
2017/11/04 15:19:00 BASE 4.21 198 4.58 200 -5.9 76 -9.4 531 1197 999.3 NA 0.0000 9999 2070 0 0 0
2017/11/04 15:20:00 BASE 3.94 194 4.58 200 -5.9 76 -9.4 452 1041 999.3 NA 0.0000 9999 1970 0 0 0
2017/11/04 15:21:00 BASE 3.68 183 4.58 200 -5.9 76 -9.4 507 1148 999.3 NA 0.0000 9999 1970 0 0 0
2017/11/04 15:22:00 BASE 3.53 175 4.58 200 -5.9 77 -9.3 513 1164 999.3 NA 0.0000 9999 1870 0 0 0
2017/11/04 15:23:00 BASE 3.05 176 4.58 200 -5.9 77 -9.3 463 1074 999.4 NA 0.0000 9999 1970 0 0 0
2017/11/04 15:24:00 BASE 2.59 182 4.58 200 -5.9 77 -9.3 424 987 999.4 NA 0.0000 9999 2000 0 0 0
2017/11/04 15:25:00 BASE 2.45 187 4.48 202 -5.9 77 -9.3 498 1136 999.4 NA 0.0000 9999 1900 0 0 0
2017/11/04 15:26:00 BASE 3.01 181 4.48 202 -5.9 78 -9.2 626 1390 999.4 NA 0.0000 9999 1970 0 0 0
2017/11/04 15:27:00 BASE 3.87 173 4.63 171 -5.9 78 -9.2 553 1245 999.4 NA 0.0000 9999 1940 0 0 0
2017/11/04 15:28:00 BASE 4.39 175 4.99 177 -5.9 78 -9.1 455 1057 999.4 NA 0.0000 9999 1770 0 0 0
2017/11/04 15:29:00 BASE 4.49 181 4.99 177 -5.9 78 -9.1 429 1001 999.4 NA 0.0000 9999 1800 18080 20180 0
2017/11/04 15:30:00 BASE 4.05 186 4.99 177 -5.9 78 -9.1 469 1078 999.4 NA 0.0000 9999 1740 0 0 0
2017/11/04 15:31:00 BASE 3.64 185 4.99 177 -5.9 78 -9.1 723 1515 999.4 NA 0.0000 9999 1770 0 0 0
2017/11/04 15:32:00 BASE 3.28 176 4.99 177 -5.9 78 -9.1 577 1312 999.4 NA 0.0000 9999 1840 0 0 0
2017/11/04 15:33:00 BASE 3.09 167 4.99 177 -5.9 78 -9.0 527 1202 999.4 NA 0.0000 9999 1710 0 0 0
2017/11/04 15:34:00 BASE 3.34 171 4.99 177 -5.8 79 -9.0 476 1106 999.4 NA 0.0000 9999 1940 0 0 0
2017/11/04 15:35:00 BASE 3.42 186 4.99 177 -5.8 79 -8.9 424 992 999.4 NA 0.0000 9999 1970 0 0 0
2017/11/04 15:36:00 BASE 3.47 192 4.99 177 -5.8 79 -8.8 421 983 999.4 NA 0.0000 9999 1900 0 0 0
2017/11/04 15:37:00 BASE 3.69 190 4.99 177 -5.8 79 -8.8 454 1044 999.4 NA 0.0000 9999 2000 22770 0 0
2017/11/04 15:38:00 BASE 3.81 193 4.73 183 -5.8 79 -8.8 507 1153 999.4 NA 0.0000 9999 1900 0 0 0
2017/11/04 15:39:00 BASE 4.08 206 4.68 216 -5.8 80 -8.7 584 1309 999.4 NA 0.0000 9999 2030 0 0 0
2017/11/04 15:40:00 BASE 4.51 207 5.35 201 -5.8 80 -8.7 661 1461 999.4 NA 0.0000 9999 2000 0 0 0
2017/11/04 15:41:00 BASE 4.33 197 5.35 201 -5.8 80 -8.6 621 1387 999.4 NA 0.0000 9999 1800 0 0 0
2017/11/04 15:42:00 BASE 4.44 193 5.76 178 -5.8 80 -8.7 441 1019 999.3 NA 0.0000 9999 2000 0 0 0
2017/11/04 15:43:00 BASE 4.84 193 5.76 178 -5.8 80 -8.7 472 1088 999.4 NA 0.0000 9999 2030 0 0 0
2017/11/04 15:44:00 BASE 4.92 195 5.76 178 -5.8 80 -8.7 458 1052 999.4 NA 0.0000 9999 2130 0 0 0
2017/11/04 15:45:00 BASE 4.95 196 5.76 178 -5.8 79 -8.8 453 1046 999.4 NA 0.0000 9999 2170 0 0 0
2017/11/04 15:46:00 BASE 4.68 195 5.76 178 -5.8 79 -8.9 483 1106 999.4 NA 0.0000 9999 2070 0 0 0
2017/11/04 15:47:00 BASE 4.12 196 5.76 178 -5.8 79 -8.9 570 1291 999.5 NA 0.0000 9999 2000 0 0 0
2017/11/04 15:48:00 BASE 3.49 190 5.76 178 -5.9 78 -9.1 549 1245 999.5 NA 0.0000 9999 1970 0 0 0
2017/11/04 15:49:00 BASE 3.10 184 5.76 178 -5.8 78 -9.1 548 1248 999.5 NA 0.0000 9999 1900 23520 0 0
2017/11/04 15:50:00 BASE 3.10 183 5.76 178 -5.8 78 -9.1 536 1228 999.5 NA 0.0000 9999 1870 0 0 0
2017/11/04 15:51:00 BASE 3.73 182 5.76 178 -5.7 78 -9.0 524 1202 999.5 NA 0.0000 9999 1900 0 0 0
2017/11/04 15:52:00 BASE 4.59 182 5.76 178 -5.7 78 -9.0 539 1231 999.4 NA 0.0000 9999 1900 0 0 0
2017/11/04 15:53:00 BASE 5.23 180 6.48 183 -5.6 78 -8.9 559 1271 999.4 NA 0.0000 9999 1870 0 0 0
2017/11/04 15:54:00 BASE 5.31 187 6.48 183 -5.6 78 -8.9 595 1352 999.4 NA 0.0000 9999 1840 17420 0 0
2017/11/04 15:55:00 BASE 4.90 198 6.48 183 -5.6 77 -9.0 582 1331 999.4 NA 0.0000 9999 1900 0 0 0
2017/11/04 15:56:00 BASE 4.26 199 6.48 183 -5.7 77 -9.0 509 1175 999.4 NA 0.0000 9999 1840 0 0 0
2017/11/04 15:57:00 BASE 3.83 200 6.48 183 -5.7 77 -9.1 497 1150 999.5 NA 0.0000 9999 1940 0 0 0
2017/11/04 15:58:00 BASE 3.62 196 6.48 183 -5.7 77 -9.1 481 1117 999.5 NA 0.0000 9999 1940 0 0 0
2017/11/04 15:59:00 BASE 3.46 185 6.48 183 -5.8 77 -9.1 490 1137 999.5 NA 0.0000 9999 1940 0 0 0
2017/11/04 16:00:00 BASE 3.91 184 6.48 183 -5.7 78 -9.0 499 1158 999.5 NA 0.0000 9999 1870 0 0 0
2017/11/04 16:01:00 BASE 4.34 190 6.48 183 -5.7 78 -9.0 503 1171 999.5 NA 0.0000 9999 1770 0 0 0
2017/11/04 16:02:00 BASE 4.38 195 6.48 183 -5.7 78 -8.9 499 1166 999.5 NA 0.0000 9999 1740 21360 0 0
2017/11/04 16:03:00 BASE 4.73 191 6.07 188 -5.7 78 -8.9 501 1170 999.5 NA 0.0000 9999 1740 0 0 0
2017/11/04 16:04:00 BASE 5.00 181 5.35 178 -5.7 78 -8.9 488 1143 999.6 NA 0.0000 9999 1770 0 0 0
2017/11/04 16:05:00 BASE 4.77 179 5.35 178 -5.7 78 -8.9 484 1136 999.6 NA 0.0000 9999 1710 0 0 0
2017/11/04 16:06:00 BASE 4.35 183 5.35 178 -5.7 78 -8.9 467 1102 999.6 NA 0.0000 9999 1770 22900 0 0
2017/11/04 16:07:00 BASE 3.98 191 5.35 178 -5.7 78 -8.8 454 1075 999.6 NA 0.0000 9999 1900 0 0 0
2017/11/04 16:08:00 BASE 3.73 197 5.35 178 -5.7 79 -8.8 449 1064 999.6 NA 0.0000 9999 1800 0 0 0
2017/11/04 16:09:00 BASE 3.26 197 5.35 178 -5.7 79 -8.8 464 1092 999.6 NA 0.0000 9999 1840 0 0 0
2017/11/04 16:10:00 BASE 2.88 195 5.35 178 -5.7 79 -8.8 506 1173 999.6 NA 0.0000 9999 1800 0 0 0
2017/11/04 16:11:00 BASE 3.42 193 5.35 178 -5.7 79 -8.8 589 1344 999.6 NA 0.0000 9999 2030 0 0 0
2017/11/04 16:12:00 BASE 4.06 189 5.35 178 -5.7 79 -8.8 670 1505 999.6 NA 0.0000 9999 1900 0 0 0
2017/11/04 16:13:00 BASE 3.58 185 5.35 178 -5.7 79 -8.8 531 1229 999.6 NA 0.0000 9999 1800 0 0 0
2017/11/04 16:14:00 BASE 3.01 186 4.94 182 -5.7 79 -8.7 483 1134 999.6 NA 0.0000 9999 1770 0 0 0
2017/11/04 16:15:00 BASE 3.25 184 4.78 183 -5.6 79 -8.7 474 1116 999.6 NA 0.0000 9999 1770 0 0 0
2017/11/04 16:16:00 BASE 3.81 184 4.89 180 -5.6 79 -8.7 481 1128 999.6 NA 0.0000 9999 1870 2530 0 0
2017/11/04 16:17:00 BASE 4.23 187 4.89 180 -5.6 79 -8.7 470 1108 999.6 NA 0.0000 9999 1870 0 0 0
2017/11/04 16:18:00 BASE 4.26 187 4.89 177 -5.6 79 -8.6 442 1050 999.6 NA 0.0000 9999 1840 0 0 0
2017/11/04 16:19:00 BASE 4.48 185 5.40 179 -5.6 79 -8.6 430 1023 999.6 NA 0.0000 9999 1900 0 0 0
2017/11/04 16:20:00 BASE 4.44 185 5.40 179 -5.6 79 -8.6 441 1042 999.7 NA 0.0000 9999 1840 22700 0 0
2017/11/04 16:21:00 BASE 3.66 185 5.40 179 -5.6 79 -8.6 471 1100 999.7 NA 0.0000 9999 2070 0 0 0
2017/11/04 16:22:00 BASE 3.17 181 5.40 179 -5.6 79 -8.6 494 1147 999.7 NA 0.0000 9999 2070 0 0 0
2017/11/04 16:23:00 BASE 3.24 177 5.40 179 -5.6 79 -8.6 502 1168 999.7 NA 0.0000 9999 2030 0 0 0
2017/11/04 16:24:00 BASE 3.16 173 5.40 179 -5.6 79 -8.7 506 1183 999.7 NA 0.0000 9999 2070 0 0 0
2017/11/04 16:25:00 BASE 3.22 171 5.40 179 -5.6 79 -8.7 500 1177 999.7 NA 0.0000 9999 1840 0 0 0
2017/11/04 16:26:00 BASE 3.34 177 5.40 179 -5.6 79 -8.7 483 1146 999.7 NA 0.0000 9999 1770 0 0 0
2017/11/04 16:27:00 BASE 3.14 174 5.40 179 -5.6 79 -8.7 467 1116 999.7 NA 0.0000 9999 1770 0 0 0
2017/11/04 16:28:00 BASE 3.07 173 5.40 179 -5.6 78 -8.7 455 1091 999.7 NA 0.0000 9999 1740 0 0 0
2017/11/04 16:29:00 BASE 3.86 179 5.45 178 -5.6 78 -8.8 446 1068 999.7 NA 0.0000 9999 1770 0 0 0
2017/11/04 16:30:00 BASE 4.59 184 5.45 178 -5.6 78 -8.8 447 1067 999.7 NA 0.0000 9999 1770 0 0 0
2017/11/04 16:31:00 BASE 4.41 183 5.45 178 -5.6 78 -8.8 455 1075 999.7 NA 0.0000 9999 1740 0 0 0
2017/11/04 16:32:00 BASE 4.29 178 5.45 178 -5.6 78 -8.8 428 1015 999.7 NA 0.0000 9999 1970 0 0 0
2017/11/04 16:33:00 BASE 4.33 179 5.45 178 -5.6 79 -8.7 390 932 999.7 NA 0.0000 9999 2130 0 0 0
2017/11/04 16:34:00 BASE 4.22 178 5.45 178 -5.6 79 -8.7 347 843 999.7 NA 0.0000 9999 2100 0 0 0
2017/11/04 16:35:00 BASE 4.42 177 5.66 171 -5.6 79 -8.7 311 762 999.6 NA 0.0000 9999 1970 0 0 0
2017/11/04 16:36:00 BASE 4.50 180 5.66 171 -5.7 79 -8.7 281 700 999.7 NA 0.0000 9999 2430 0 0 0
2017/11/04 16:37:00 BASE 3.72 179 5.66 171 -5.7 79 -8.8 259 656 999.7 NA 0.0000 9999 2200 0 0 0
2017/11/04 16:38:00 BASE 3.23 175 5.66 171 -5.8 78 -8.9 264 665 999.7 NA 0.0000 9999 2690 0 0 0
2017/11/04 16:39:00 BASE 3.24 173 5.66 171 -5.8 78 -9.0 300 740 999.7 NA 0.0000 9999 2360 2820 0 0
2017/11/04 16:40:00 BASE 3.16 167 5.66 171 -5.8 77 -9.1 518 1206 999.7 NA 0.0000 9999 2300 0 0 0
2017/11/04 16:41:00 BASE 3.27 171 5.66 171 -5.8 77 -9.2 975 1515 999.7 NA 0.0000 9999 2100 0 0 0
2017/11/04 16:42:00 BASE 3.51 178 5.66 171 -5.7 76 -9.2 838 1515 999.7 NA 0.0000 9999 2030 0 0 0
2017/11/04 16:43:00 BASE 3.27 178 5.66 171 -5.6 76 -9.3 320 785 999.7 NA 0.0000 9999 2070 0 0 0
2017/11/04 16:44:00 BASE 2.98 181 5.66 171 -5.6 75 -9.3 279 693 999.7 NA 0.0000 9999 2260 23980 0 0
2017/11/04 16:45:00 BASE 2.96 185 5.35 185 -5.6 75 -9.4 265 662 999.7 NA 0.0000 9999 1940 2400 0 0
2017/11/04 16:46:00 BASE 2.84 190 4.17 179 -5.7 75 -9.5 441 1044 999.7 NA 0.0000 9999 1840 0 0 0
2017/11/04 16:47:00 BASE 2.61 188 4.17 179 -5.8 75 -9.5 285 701 999.7 NA 0.0000 9999 1840 0 0 0
2017/11/04 16:48:00 BASE 2.65 180 4.17 179 -5.8 75 -9.5 601 1339 999.7 NA 0.0000 9999 1840 0 0 0
2017/11/04 16:49:00 BASE 3.05 188 4.17 179 -5.8 76 -9.4 349 848 999.7 NA 0.0000 9999 1800 0 0 0
2017/11/04 16:50:00 BASE 3.16 200 4.17 179 -5.9 76 -9.3 247 619 999.7 NA 0.0000 9999 0 0 0 0
2017/11/04 16:51:00 BASE 2.83 200 4.17 179 -5.8 77 -9.3 940 1515 999.7 NA 0.0000 9999 2400 0 0 0
2017/11/04 16:52:00 BASE 2.78 193 3.50 201 -5.8 77 -9.3 974 1515 999.7 NA 0.0000 9999 2200 0 0 0
2017/11/04 16:53:00 BASE 2.80 187 3.50 201 -5.8 76 -9.3 339 809 999.7 NA 0.0000 9999 2070 0 0 0
2017/11/04 16:54:00 BASE 2.58 189 3.50 201 -5.8 76 -9.3 400 919 999.7 NA 0.0000 9999 2400 0 0 0
2017/11/04 16:55:00 BASE 2.94 193 3.86 201 -5.8 76 -9.4 397 936 999.7 NA 0.0000 9999 2330 0 0 0
2017/11/04 16:56:00 BASE 3.16 193 3.86 201 -5.8 75 -9.4 514 1173 999.7 NA 0.0000 9999 2300 0 0 0
2017/11/04 16:57:00 BASE 3.41 196 4.42 197 -5.8 75 -9.6 516 1183 999.7 NA 0.0000 9999 2230 0 0 0
2017/11/04 16:58:00 BASE 3.77 198 4.42 197 -5.8 74 -9.6 407 939 999.7 NA 0.0000 9999 2030 21790 0 0
2017/11/04 16:59:00 BASE 3.65 199 4.42 197 -5.8 74 -9.7 411 947 999.8 NA 0.0000 9999 2130 0 0 0
2017/11/04 17:00:00 BASE 3.16 199 4.42 197 -5.8 74 -9.7 518 1172 999.8 NA 0.0000 9999 2330 0 0 0
2017/11/04 17:01:00 BASE 2.65 200 4.42 197 -5.8 74 -9.7 511 1167 999.8 NA 0.0000 9999 2070 0 0 0
2017/11/04 17:02:00 BASE 2.64 206 4.42 197 -5.8 74 -9.6 408 945 999.8 NA 0.0000 9999 1970 0 0 0
2017/11/04 17:03:00 BASE 2.82 195 4.42 197 -5.7 74 -9.6 397 920 999.8 NA 0.0000 9999 2230 0 0 0
2017/11/04 17:04:00 BASE 2.74 178 4.42 197 -5.7 75 -9.5 607 1344 999.8 NA 0.0000 9999 2200 0 0 0
2017/11/04 17:05:00 BASE 2.55 177 4.42 197 -5.7 75 -9.5 586 1301 999.8 NA 0.0000 9999 2170 0 0 0
2017/11/04 17:06:00 BASE 2.41 180 4.42 197 -5.6 75 -9.4 558 1255 999.8 NA 0.0000 9999 2070 18470 0 0
2017/11/04 17:07:00 BASE 2.55 175 4.32 190 -5.6 74 -9.4 851 1515 999.8 NA 0.0000 9999 2070 0 0 0
2017/11/04 17:08:00 BASE 2.82 175 3.86 204 -5.6 74 -9.4 469 1080 999.8 NA 0.0000 9999 2030 0 0 0
2017/11/04 17:09:01 BASE 2.87 177 3.81 169 -5.5 74 -9.4 389 923 999.8 NA 0.0000 9999 2000 0 0 0
2017/11/04 17:10:00 BASE 2.99 168 3.81 169 -5.5 74 -9.4 341 822 999.8 NA 0.0000 9999 2000 18600 0 0
2017/11/04 17:11:00 BASE 2.77 167 3.81 169 -5.6 74 -9.4 325 790 999.8 NA 0.0000 9999 2100 0 0 0
2017/11/04 17:12:00 BASE 2.69 182 3.81 169 -5.6 74 -9.4 317 767 999.8 NA 0.0000 9999 1970 0 0 0
2017/11/04 17:13:00 BASE 3.08 198 3.81 169 -5.7 75 -9.5 336 806 999.8 NA 0.0000 9999 2330 0 0 0
2017/11/04 17:14:00 BASE 3.11 201 3.81 169 -5.7 75 -9.5 351 837 999.9 NA 0.0000 9999 2100 0 0 0
2017/11/04 17:15:00 BASE 2.72 199 3.81 169 -5.8 75 -9.5 375 881 999.9 NA 0.0000 9999 2200 0 0 0
2017/11/04 17:16:00 BASE 2.52 204 3.81 169 -5.8 75 -9.5 432 1004 999.9 NA 0.0000 9999 2170 0 0 0
2017/11/04 17:17:00 BASE 2.50 208 3.81 169 -5.8 75 -9.5 471 1074 999.9 NA 0.0000 9999 2070 0 0 0
2017/11/04 17:18:00 BASE 2.34 200 3.76 162 -5.8 75 -9.4 1085 1515 999.9 NA 0.0000 9999 1940 0 0 0
2017/11/04 17:19:00 BASE 2.04 185 3.76 162 -5.7 75 -9.4 469 1077 999.9 NA 0.0000 9999 1970 0 0 0
2017/11/04 17:20:00 BASE 1.63 180 3.55 207 -5.7 75 -9.3 401 947 999.9 NA 0.0000 9999 2030 0 0 0
2017/11/04 17:21:00 BASE 1.24 185 3.55 207 -5.7 76 -9.3 371 885 999.9 NA 0.0000 9999 2000 0 0 0
2017/11/04 17:22:00 BASE 1.36 188 3.55 207 -5.6 76 -9.2 360 863 999.9 NA 0.0000 9999 1940 0 0 0
2017/11/04 17:23:00 BASE 1.59 181 3.24 202 -5.6 76 -9.2 374 888 999.9 NA 0.0000 9999 1940 2530 22570 0
2017/11/04 17:24:00 BASE 1.57 168 3.04 200 -5.6 76 -9.1 400 943 999.9 NA 0.0000 9999 2100 0 0 0
2017/11/04 17:25:00 BASE 1.68 169 3.04 200 -5.5 77 -9.0 425 1000 999.9 NA 0.0000 9999 1900 2400 0 0
2017/11/04 17:26:00 BASE 2.16 165 2.98 159 -5.4 77 -8.8 432 1021 999.9 NA 0.0000 9999 1770 0 0 0
2017/11/04 17:27:00 BASE 2.44 156 2.98 159 -5.4 77 -8.7 414 988 999.9 NA 0.0000 9999 1870 0 0 0
2017/11/04 17:28:00 BASE 2.27 161 2.98 159 -5.3 78 -8.6 390 943 999.9 NA 0.0000 9999 1840 0 0 0
2017/11/04 17:29:00 BASE 2.64 170 3.91 181 -5.3 78 -8.6 372 907 999.9 NA 0.0000 9999 1870 0 0 0
2017/11/04 17:30:00 BASE 3.32 180 3.96 179 -5.4 77 -8.7 359 882 1000.0 NA 0.0000 9999 1800 22250 0 0
2017/11/04 17:31:00 BASE 3.31 189 3.96 179 -5.4 77 -8.8 352 867 1000.1 NA 0.0000 9999 1840 0 0 0
2017/11/04 17:32:00 BASE 2.89 195 3.96 179 -5.5 77 -8.9 351 863 1000.1 NA 0.0000 9999 1800 0 0 0
2017/11/04 17:33:00 BASE 2.72 199 3.96 179 -5.5 77 -8.9 351 863 1000.1 NA 0.0000 9999 1840 0 0 0
2017/11/04 17:34:00 BASE 2.63 205 3.96 179 -5.6 77 -9.0 347 857 1000.1 NA 0.0000 9999 1710 0 0 0
2017/11/04 17:35:00 BASE 2.52 208 3.96 179 -5.6 77 -9.0 337 838 1000.1 NA 0.0000 9999 1710 0 0 0
2017/11/04 17:36:00 BASE 2.36 208 3.96 179 -5.6 77 -8.9 326 818 1000.2 NA 0.0000 9999 1670 0 0 0
2017/11/04 17:37:00 BASE 2.59 210 3.96 179 -5.6 78 -8.9 318 804 1000.2 NA 0.0000 9999 1670 0 0 0
2017/11/04 17:38:00 BASE 2.68 215 3.96 179 -5.6 78 -8.8 312 792 1000.2 NA 0.0000 9999 1710 0 0 0
2017/11/04 17:39:00 BASE 2.17 213 3.96 179 -5.6 79 -8.8 307 781 1000.2 NA 0.0000 9999 1740 0 0 0
2017/11/04 17:40:00 BASE 1.83 212 3.45 193 -5.7 79 -8.7 305 774 1000.2 NA 0.0000 9999 1770 0 0 0
2017/11/04 17:41:00 BASE 1.72 215 3.14 193 -5.7 79 -8.7 306 776 1000.2 NA 0.0000 9999 1740 0 0 0
2017/11/04 17:42:00 BASE 1.92 207 3.09 211 -5.7 79 -8.7 312 789 1000.2 NA 0.0000 9999 1770 0 0 0
2017/11/04 17:43:00 BASE 1.89 198 3.09 211 -5.7 80 -8.7 314 799 1000.2 NA 0.0000 9999 1740 0 0 0
2017/11/04 17:44:00 BASE 1.75 196 3.09 211 -5.7 80 -8.6 314 803 1000.2 NA 0.0000 9999 1640 0 0 0
2017/11/04 17:45:00 BASE 1.91 194 3.09 211 -5.7 80 -8.6 311 801 1000.2 NA 0.0000 9999 1540 22250 0 0
2017/11/04 17:46:00 BASE 1.74 189 3.09 211 -5.7 80 -8.6 307 795 1000.2 NA 0.0000 9999 1480 0 0 0
2017/11/04 17:47:00 BASE 1.58 177 2.78 219 -5.7 80 -8.6 306 795 1000.3 NA 0.0000 9999 1480 0 0 0
2017/11/04 17:48:00 BASE 1.91 172 2.52 174 -5.7 80 -8.6 310 804 1000.3 NA 0.0000 9999 1380 0 0 0
2017/11/04 17:49:00 BASE 2.42 178 2.78 184 -5.7 80 -8.6 315 815 1000.3 NA 0.0000 9999 1510 0 0 0
2017/11/04 17:50:00 BASE 2.60 182 2.98 189 -5.6 80 -8.6 320 825 1000.3 NA 0.0000 9999 1440 0 0 0
2017/11/04 17:51:00 BASE 2.69 185 3.29 191 -5.6 80 -8.6 321 828 1000.3 NA 0.0000 9999 1180 1770 0 0
2017/11/04 17:52:00 BASE 3.06 189 3.60 191 -5.6 80 -8.5 317 821 1000.2 NA 0.0000 9999 1080 0 0 0
2017/11/04 17:53:00 BASE 3.71 193 5.30 196 -5.6 81 -8.4 310 807 1000.2 NA 0.0000 9999 1050 0 0 0
2017/11/04 17:54:00 BASE 3.96 203 5.30 196 -5.5 81 -8.3 305 795 1000.2 NA 0.0000 9999 1050 0 0 0
2017/11/04 17:55:00 BASE 3.55 221 5.30 196 -5.5 82 -8.1 301 786 1000.2 NA 0.0000 9999 1120 0 0 0
2017/11/04 17:56:00 BASE 3.74 233 5.30 196 -5.5 83 -7.9 297 777 1000.2 NA 0.0000 9999 1080 0 0 0
2017/11/04 17:57:00 BASE 4.01 241 5.30 196 -5.5 85 -7.7 295 772 1000.2 NA 0.0000 9999 1120 0 0 0
2017/11/04 17:58:00 BASE 3.65 255 5.30 196 -5.5 86 -7.6 299 777 1000.2 NA 0.0000 9999 1080 22440 0 0
2017/11/04 17:59:00 BASE 3.75 261 6.07 230 -5.5 87 -7.4 305 786 1000.1 NA 0.0000 9999 1210 0 0 0
2017/11/04 18:00:00 BASE 4.09 249 6.07 230 -5.5 87 -7.3 312 795 1000.1 NA 0.0000 9999 1180 0 0 0
2017/11/04 18:01:00 BASE 3.60 236 6.07 230 -5.5 88 -7.3 318 802 1000.2 NA 0.0000 9999 1210 0 0 0
2017/11/04 18:02:00 BASE 3.08 224 6.07 230 -5.5 88 -7.2 323 809 1000.2 NA 0.0000 9999 1310 0 0 0
2017/11/04 18:03:00 BASE 2.51 211 6.07 230 -5.5 88 -7.2 327 815 1000.2 NA 0.0000 9999 1770 0 0 0
2017/11/04 18:04:00 BASE 1.81 199 6.07 230 -5.5 88 -7.2 330 818 1000.2 NA 0.0000 9999 1740 0 0 0
2017/11/04 18:05:00 BASE 1.85 195 6.07 230 -5.5 87 -7.3 332 822 1000.2 NA 0.0000 9999 1670 0 0 0
2017/11/04 18:06:00 BASE 2.55 193 6.07 230 -5.5 87 -7.3 337 830 1000.2 NA 0.0000 9999 1540 0 0 0
2017/11/04 18:07:00 BASE 2.94 175 6.07 230 -5.5 87 -7.3 347 848 1000.2 NA 0.0000 9999 1540 0 0 0
2017/11/04 18:08:00 BASE 2.94 165 6.07 230 -5.5 87 -7.3 358 870 1000.3 NA 0.0000 9999 1740 0 0 0
2017/11/04 18:09:00 BASE 2.57 152 5.14 243 -5.4 87 -7.3 366 886 1000.3 NA 0.0000 9999 1710 0 0 0
2017/11/04 18:10:00 BASE 1.65 138 4.22 220 -5.4 87 -7.3 366 888 1000.3 NA 0.0000 9999 1740 0 0 0
2017/11/04 18:11:00 BASE 1.28 136 4.22 220 -5.4 86 -7.3 366 888 1000.2 NA 0.0000 9999 1710 0 0 0
2017/11/04 18:12:00 BASE 1.00 142 3.81 172 -5.4 86 -7.4 368 889 1000.2 NA 0.0000 9999 1710 0 0 0
2017/11/04 18:13:00 BASE 0.69 139 3.81 172 -5.4 85 -7.5 371 894 1000.2 NA 0.0000 9999 1740 0 0 0
2017/11/04 18:14:00 BASE 1.52 127 3.81 172 -5.4 85 -7.5 372 895 1000.2 NA 0.0000 9999 1870 0 0 0
2017/11/04 18:15:00 BASE 2.55 120 3.81 172 -5.4 85 -7.6 370 891 1000.2 NA 0.0000 9999 1570 0 0 0
2017/11/04 18:16:00 BASE 2.75 121 3.76 176 -5.4 85 -7.6 365 879 1000.2 NA 0.0000 9999 1800 0 0 0
2017/11/04 18:17:00 BASE 2.73 124 3.76 176 -5.4 84 -7.6 360 868 1000.2 NA 0.0000 9999 1740 0 0 0
2017/11/04 18:18:00 BASE 2.78 125 3.55 123 -5.4 84 -7.7 358 863 1000.2 NA 0.0000 9999 1770 0 0 0
2017/11/04 18:19:00 BASE 2.73 123 3.55 123 -5.5 84 -7.8 355 854 1000.2 NA 0.0000 9999 1770 0 0 0
2017/11/04 18:20:00 BASE 2.71 128 3.55 123 -5.5 84 -7.8 343 829 1000.2 NA 0.0000 9999 1800 0 0 0
2017/11/04 18:21:00 BASE 2.75 132 3.55 123 -5.5 83 -7.9 326 793 1000.2 NA 0.0000 9999 1870 0 0 0
2017/11/04 18:22:00 BASE 2.59 127 3.55 123 -5.5 83 -8.0 317 772 1000.2 NA 0.0000 9999 1840 0 0 0
2017/11/04 18:23:00 BASE 2.21 127 3.55 123 -5.5 82 -8.0 324 783 1000.2 NA 0.0000 9999 1800 0 0 0
2017/11/04 18:24:00 BASE 2.12 139 3.55 123 -5.5 82 -8.0 343 822 1000.3 NA 0.0000 9999 1800 0 0 0
2017/11/04 18:25:00 BASE 2.35 153 3.55 123 -5.4 82 -8.0 362 862 1000.2 NA 0.0000 9999 1840 0 0 0
2017/11/04 18:26:00 BASE 2.38 153 3.55 123 -5.4 82 -8.0 365 871 1000.2 NA 0.0000 9999 1970 0 0 0
2017/11/04 18:27:00 BASE 2.06 148 3.34 119 -5.4 82 -8.0 357 857 1000.3 NA 0.0000 9999 2070 0 0 0
2017/11/04 18:28:00 BASE 1.84 147 3.19 130 -5.3 81 -8.0 348 841 1000.3 NA 0.0000 9999 1940 0 0 0
2017/11/04 18:29:00 BASE 1.76 146 3.19 130 -5.3 81 -8.1 344 835 1000.3 NA 0.0000 9999 2070 0 0 0
2017/11/04 18:30:00 BASE 1.66 142 3.19 130 -5.3 81 -8.1 344 836 1000.3 NA 0.0000 9999 2030 0 0 0
2017/11/04 18:31:00 BASE 1.76 131 2.83 155 -5.3 81 -8.1 341 833 1000.3 NA 0.0000 9999 1970 16860 0 0
2017/11/04 18:32:00 BASE 1.86 130 2.83 155 -5.3 81 -8.1 336 824 1000.3 NA 0.0000 9999 1900 21460 0 0
2017/11/04 18:33:00 BASE 1.78 144 2.83 155 -5.3 81 -8.1 331 814 1000.3 NA 0.0000 9999 1940 0 0 0
2017/11/04 18:34:00 BASE 1.97 153 2.68 157 -5.3 81 -8.1 329 811 1000.3 NA 0.0000 9999 1840 0 0 0
2017/11/04 18:35:00 BASE 2.11 153 2.52 148 -5.3 81 -8.1 329 811 1000.3 NA 0.0000 9999 1840 0 0 0
2017/11/04 18:36:00 BASE 1.74 152 2.52 148 -5.3 80 -8.2 328 808 1000.4 NA 0.0000 9999 1800 20670 0 0
2017/11/04 18:37:00 BASE 1.65 151 2.52 148 -5.3 80 -8.2 323 800 1000.4 NA 0.0000 9999 1840 20800 21750 0
2017/11/04 18:38:00 BASE 1.94 142 2.52 148 -5.3 80 -8.2 316 785 1000.4 NA 0.0000 9999 1800 0 0 0
2017/11/04 18:39:00 BASE 1.86 136 2.52 148 -5.3 80 -8.2 307 769 1000.4 NA 0.0000 9999 1770 0 0 0
2017/11/04 18:40:00 BASE 1.33 132 2.52 148 -5.3 80 -8.3 300 756 1000.4 NA 0.0000 9999 1770 0 0 0
2017/11/04 18:41:00 BASE 0.59 131 2.52 148 -5.3 80 -8.2 295 747 1000.4 NA 0.0000 9999 1770 0 0 0
2017/11/04 18:42:00 BASE 0.72 132 2.37 154 -5.3 80 -8.2 292 741 1000.4 NA 0.0000 9999 1640 0 0 0
2017/11/04 18:43:00 BASE 0.77 132 2.37 154 -5.3 80 -8.1 289 735 1000.5 NA 0.0000 9999 1740 0 0 0
2017/11/04 18:44:00 BASE 0.45 128 2.26 137 -5.3 81 -8.1 287 731 1000.4 NA 0.0000 9999 1740 0 0 0
2017/11/04 18:45:00 BASE 0.63 119 2.26 137 -5.3 81 -8.1 286 728 1000.5 NA 0.0000 9999 1840 0 0 0
2017/11/04 18:46:00 BASE 0.93 112 2.26 137 -5.3 81 -8.1 284 724 1000.5 NA 0.0000 9999 1740 0 0 0
2017/11/04 18:47:00 BASE 1.28 116 2.21 140 -5.4 81 -8.2 281 721 1000.5 NA 0.0000 9999 1770 0 0 0
2017/11/04 18:48:00 BASE 1.23 119 2.01 143 -5.4 80 -8.2 280 719 1000.5 NA 0.0000 9999 1770 0 0 0
2017/11/04 18:49:00 BASE 0.57 123 1.65 113 -5.4 80 -8.3 279 717 1000.5 NA 0.0000 9999 1800 0 0 0
2017/11/04 18:50:00 BASE 0.00 130 1.65 113 -5.4 80 -8.3 277 715 1000.6 NA 0.0000 9999 1740 0 0 0
2017/11/04 18:51:00 BASE 0.00 137 1.65 113 -5.4 80 -8.3 276 714 1000.5 NA 0.0000 9999 1710 0 0 0
2017/11/04 18:52:00 BASE 0.00 143 1.65 113 -5.4 80 -8.3 276 715 1000.5 NA 0.0000 9999 1670 0 0 0
2017/11/04 18:53:00 BASE 0.15 159 1.65 113 -5.4 80 -8.4 274 712 1000.5 NA 0.0000 9999 1710 0 0 0
2017/11/04 18:54:00 BASE 0.74 179 1.65 113 -5.4 80 -8.3 268 701 1000.5 NA 0.0000 9999 1710 0 0 0
2017/11/04 18:55:00 BASE 1.26 178 2.11 180 -5.4 80 -8.3 261 688 1000.5 NA 0.0000 9999 1640 0 0 0
2017/11/04 18:56:00 BASE 1.84 187 2.83 208 -5.4 80 -8.3 255 676 1000.5 NA 0.0000 9999 1310 0 0 0
2017/11/04 18:57:00 BASE 3.16 206 4.68 233 -5.4 80 -8.3 252 670 1000.5 NA 0.0000 9999 1180 0 0 0
2017/11/04 18:58:00 BASE 3.93 216 4.94 222 -5.4 81 -8.2 251 667 1000.5 NA 0.0000 9999 1250 23160 0 0
2017/11/04 18:59:00 BASE 4.36 219 5.81 219 -5.3 81 -8.0 251 664 1000.5 NA 0.0000 9999 1280 0 0 0
2017/11/04 19:00:00 BASE 4.44 215 5.81 219 -5.3 82 -7.8 249 659 1000.6 NA 0.0000 9999 1480 0 0 0
2017/11/04 19:01:00 BASE 3.85 212 5.81 219 -5.3 83 -7.7 249 660 1000.6 NA 0.0000 9999 1350 0 0 0
2017/11/04 19:02:00 BASE 3.84 219 5.81 219 -5.3 84 -7.5 251 663 1000.6 NA 0.0000 9999 1380 21490 0 0
2017/11/04 19:03:00 BASE 4.44 223 5.81 219 -5.3 85 -7.4 253 667 1000.5 NA 0.0000 9999 1350 0 0 0
2017/11/04 19:04:00 BASE 4.73 222 5.81 219 -5.3 86 -7.3 256 673 1000.5 NA 0.0000 9999 1310 0 0 0
2017/11/04 19:05:00 BASE 4.73 221 5.81 218 -5.3 87 -7.2 259 678 1000.5 NA 0.0000 9999 1380 0 0 0
2017/11/04 19:06:00 BASE 5.39 226 6.38 233 -5.3 87 -7.1 261 682 1000.5 NA 0.0000 9999 1280 0 0 0
2017/11/04 19:07:00 BASE 5.52 228 6.38 233 -5.3 88 -7.0 265 688 1000.5 NA 0.0000 9999 1440 0 0 0
2017/11/04 19:08:00 BASE 5.22 225 6.38 233 -5.4 88 -7.0 265 689 1000.5 NA 0.0000 9999 1510 0 0 0
2017/11/04 19:09:00 BASE 5.12 226 6.38 233 -5.4 89 -6.9 263 684 1000.5 NA 0.0000 9999 1440 0 0 0
2017/11/04 19:10:00 BASE 4.84 224 6.38 233 -5.4 89 -6.9 260 677 1000.5 NA 0.0000 9999 1120 0 0 0
2017/11/04 19:11:00 BASE 4.67 220 6.38 233 -5.4 89 -6.9 257 670 1000.5 NA 0.0000 9999 1280 0 0 0
2017/11/04 19:12:00 BASE 5.09 218 6.38 233 -5.4 90 -6.8 256 668 1000.4 NA 0.0000 9999 1280 0 0 0
2017/11/04 19:13:00 BASE 5.65 218 6.58 218 -5.4 90 -6.8 256 668 1000.5 NA 0.0000 9999 1410 0 0 0
2017/11/04 19:14:00 BASE 5.25 214 6.58 218 -5.4 90 -6.8 254 665 1000.5 NA 0.0000 9999 1250 0 0 0
2017/11/04 19:15:00 BASE 4.80 215 6.58 218 -5.4 90 -6.8 251 659 1000.5 NA 0.0000 9999 1210 0 0 0
2017/11/04 19:16:00 BASE 4.94 220 6.58 218 -5.4 90 -6.8 247 650 1000.5 NA 0.0000 9999 1150 0 0 0
2017/11/04 19:17:00 BASE 5.21 222 6.58 218 -5.5 90 -6.9 244 642 1000.5 NA 0.0000 9999 1150 0 0 0
2017/11/04 19:18:00 BASE 5.21 224 6.58 218 -5.5 90 -6.8 238 629 1000.5 NA 0.0000 9999 1210 0 0 0
2017/11/04 19:19:00 BASE 5.25 229 6.58 218 -5.5 90 -6.8 232 618 1000.5 NA 0.0000 9999 1120 0 0 0
2017/11/04 19:20:00 BASE 5.42 230 6.58 218 -5.5 91 -6.8 232 616 1000.6 NA 0.0000 9999 1180 0 0 0
2017/11/04 19:21:00 BASE 5.19 228 6.58 218 -5.5 91 -6.7 234 619 1000.7 NA 0.0000 9999 1350 0 0 0
2017/11/04 19:22:00 BASE 5.41 225 6.74 222 -5.5 91 -6.7 235 622 1000.7 NA 0.0000 9999 1280 0 0 0
2017/11/04 19:23:00 BASE 5.68 222 6.74 222 -5.5 91 -6.7 237 624 1000.7 NA 0.0000 9999 1180 0 0 0
2017/11/04 19:24:00 BASE 5.10 221 6.74 222 -5.5 91 -6.7 235 620 1000.7 NA 0.0000 9999 1280 0 0 0
2017/11/04 19:25:00 BASE 4.30 223 6.74 222 -5.5 91 -6.7 230 607 1000.7 NA 0.0000 9999 1310 0 0 0
2017/11/04 19:26:00 BASE 4.33 223 6.74 222 -5.5 91 -6.7 224 594 1000.7 NA 0.0000 9999 1080 0 0 0
2017/11/04 19:27:00 BASE 5.06 221 6.74 222 -5.5 91 -6.7 220 585 1000.7 NA 0.0000 9999 1050 22470 0 0
2017/11/04 19:28:00 BASE 5.14 227 6.74 222 -5.5 92 -6.7 220 582 1000.7 NA 0.0000 9999 1180 0 0 0
2017/11/04 19:29:00 BASE 4.91 234 6.74 222 -5.5 92 -6.7 222 586 1000.7 NA 0.0000 9999 1180 0 0 0
2017/11/04 19:30:00 BASE 4.71 237 6.74 222 -5.6 92 -6.6 226 592 1000.8 NA 0.0000 9999 1180 0 0 0
2017/11/04 19:31:00 BASE 4.83 242 6.74 222 -5.6 92 -6.7 229 597 1000.8 NA 0.0000 9999 1210 24380 0 0
2017/11/04 19:32:00 BASE 5.21 241 6.28 212 -5.6 92 -6.7 231 601 1000.8 NA 0.0000 9999 1250 0 0 0
2017/11/04 19:33:00 BASE 5.50 238 6.74 243 -5.6 92 -6.7 238 615 1000.7 NA 0.0000 9999 1280 0 0 0
2017/11/04 19:34:00 BASE 5.43 240 6.74 243 -5.6 92 -6.7 249 635 1000.7 NA 0.0000 9999 1280 0 0 0
2017/11/04 19:35:00 BASE 5.07 231 6.74 243 -5.6 92 -6.7 255 646 1000.7 NA 0.0000 9999 1540 0 0 0
2017/11/04 19:36:00 BASE 5.67 221 6.94 231 -5.6 92 -6.6 254 643 1000.7 NA 0.0000 9999 1540 0 0 0
2017/11/04 19:37:00 BASE 6.25 219 6.94 231 -5.5 92 -6.6 251 636 1000.7 NA 0.0000 9999 1480 0 0 0
2017/11/04 19:38:00 BASE 5.84 219 6.94 231 -5.5 92 -6.6 249 631 1000.7 NA 0.0000 9999 1350 0 0 0
2017/11/04 19:39:00 BASE 5.03 222 6.94 231 -5.5 92 -6.6 253 635 1000.7 NA 0.0000 9999 1250 0 0 0
2017/11/04 19:40:00 BASE 4.49 226 6.94 231 -5.5 92 -6.6 256 638 1000.8 NA 0.0000 9999 1250 0 0 0
2017/11/04 19:41:00 BASE 4.47 231 6.94 231 -5.5 91 -6.7 254 636 1000.8 NA 0.0000 9999 1670 0 0 0
2017/11/04 19:42:00 BASE 4.18 235 6.94 231 -5.5 91 -6.7 250 629 1000.8 NA 0.0000 9999 1380 1940 0 0
2017/11/04 19:43:00 BASE 3.76 236 6.94 231 -5.5 91 -6.7 246 623 1000.8 NA 0.0000 9999 1380 0 0 0
2017/11/04 19:44:00 BASE 3.96 232 6.94 231 -5.5 92 -6.6 246 623 1000.8 NA 0.0000 9999 1250 0 0 0
2017/11/04 19:45:00 BASE 4.33 219 6.94 231 -5.5 92 -6.6 245 623 1000.8 NA 0.0000 9999 1610 0 0 0
2017/11/04 19:46:00 BASE 4.53 212 6.79 218 -5.4 92 -6.5 242 618 1000.8 NA 0.0000 9999 1250 0 0 0
2017/11/04 19:47:00 BASE 4.90 219 6.74 219 -5.4 92 -6.5 236 607 1000.8 NA 0.0000 9999 1380 0 0 0
2017/11/04 19:48:00 BASE 4.95 224 5.56 230 -5.4 92 -6.5 228 593 1000.9 NA 0.0000 9999 1510 0 0 0
2017/11/04 19:49:00 BASE 4.54 225 5.56 230 -5.4 92 -6.5 222 580 1000.9 NA 0.0000 9999 1180 1670 0 0
2017/11/04 19:50:00 BASE 4.07 226 5.56 230 -5.4 92 -6.6 218 572 1000.9 NA 0.0000 9999 1180 0 0 0
2017/11/04 19:51:00 BASE 4.22 229 5.56 230 -5.5 91 -6.6 219 572 1000.9 NA 0.0000 9999 1150 0 0 0
2017/11/04 19:52:00 BASE 4.76 231 5.56 230 -5.5 91 -6.7 221 573 1000.9 NA 0.0000 9999 1150 0 0 0
2017/11/04 19:53:00 BASE 5.07 228 5.86 221 -5.5 91 -6.7 225 579 1000.9 NA 0.0000 9999 1250 0 0 0
2017/11/04 19:54:00 BASE 5.24 225 6.58 214 -5.5 91 -6.7 230 587 1000.9 NA 0.0000 9999 1250 0 0 0
2017/11/04 19:55:00 BASE 5.05 223 6.58 214 -5.4 91 -6.7 234 592 1000.9 NA 0.0000 9999 1410 0 0 0
2017/11/04 19:56:00 BASE 5.17 225 6.58 214 -5.4 91 -6.7 237 597 1000.9 NA 0.0000 9999 1410 0 0 0
2017/11/04 19:57:00 BASE 5.64 229 7.00 219 -5.4 91 -6.6 241 604 1000.9 NA 0.0000 9999 1350 0 0 0
2017/11/04 19:58:00 BASE 5.93 223 7.05 221 -5.4 91 -6.6 245 611 1000.9 NA 0.0000 9999 1440 0 0 0
2017/11/04 19:59:00 BASE 5.99 217 7.05 221 -5.4 91 -6.6 251 623 1000.9 NA 0.0000 9999 1540 0 0 0
2017/11/04 20:00:00 BASE 5.62 219 7.05 221 -5.4 91 -6.7 260 640 1001.0 NA 0.0000 9999 1570 0 0 0
2017/11/04 20:01:00 BASE 5.07 222 7.05 221 -5.4 90 -6.7 270 657 1001.0 NA 0.0000 9999 1670 0 0 0
2017/11/04 20:02:00 BASE 4.76 227 7.05 221 -5.4 90 -6.7 280 675 1001.0 NA 0.0000 9999 1570 17680 0 0
2017/11/04 20:03:00 BASE 4.77 231 7.05 221 -5.4 90 -6.8 281 673 1001.0 NA 0.0000 9999 1570 0 0 0
2017/11/04 20:04:00 BASE 4.86 227 7.05 221 -5.4 90 -6.8 277 665 1001.0 NA 0.0000 9999 1640 0 0 0
2017/11/04 20:05:00 BASE 4.48 220 7.05 221 -5.3 89 -6.8 268 647 1001.0 NA 0.0000 9999 1740 0 0 0
2017/11/04 20:06:00 BASE 3.88 222 7.05 221 -5.3 89 -6.8 263 639 1001.0 NA 0.0000 9999 1840 2660 0 0
2017/11/04 20:07:00 BASE 4.01 227 7.05 221 -5.3 89 -6.8 261 639 1001.1 NA 0.0000 9999 1510 2300 0 0
2017/11/04 20:08:00 BASE 4.44 227 7.00 219 -5.2 89 -6.7 258 637 1001.1 NA 0.0000 9999 1480 0 0 0
2017/11/04 20:09:00 BASE 4.81 225 6.53 218 -5.2 89 -6.7 253 628 1001.1 NA 0.0000 9999 1570 0 0 0
2017/11/04 20:10:00 BASE 4.93 223 5.76 221 -5.2 89 -6.7 247 618 1001.2 NA 0.0000 9999 1540 0 0 0
2017/11/04 20:11:00 BASE 4.50 228 5.76 221 -5.3 89 -6.8 246 613 1001.3 NA 0.0000 9999 1350 0 0 0
2017/11/04 20:12:00 BASE 3.66 235 5.76 221 -5.3 89 -6.8 252 623 1001.3 NA 0.0000 9999 1380 0 0 0
2017/11/04 20:13:00 BASE 3.30 230 5.76 221 -5.3 89 -6.9 263 641 1001.3 NA 0.0000 9999 1480 0 0 0
2017/11/04 20:14:00 BASE 4.10 223 5.76 221 -5.3 89 -6.9 274 661 1001.3 NA 0.0000 9999 1740 0 0 0
2017/11/04 20:15:00 BASE 4.53 223 5.76 221 -5.3 88 -6.9 282 675 1001.3 NA 0.0000 9999 1900 0 0 0
2017/11/04 20:16:00 BASE 4.70 219 5.76 221 -5.3 88 -6.9 289 685 1001.3 NA 0.0000 9999 1940 0 0 0
2017/11/04 20:17:00 BASE 4.93 217 5.76 221 -5.2 88 -6.9 301 707 1001.3 NA 0.0000 9999 2070 0 0 0
2017/11/04 20:18:00 BASE 4.92 226 5.76 221 -5.2 88 -6.8 321 743 1001.3 NA 0.0000 9999 1510 0 0 0
2017/11/04 20:19:00 BASE 5.04 224 5.81 217 -5.1 89 -6.7 340 779 1001.3 NA 0.0000 9999 1800 24050 0 0
2017/11/04 20:20:00 BASE 5.09 218 6.38 217 -5.1 89 -6.6 401 897 1001.3 NA 0.0000 9999 2070 0 0 0
2017/11/04 20:21:00 BASE 5.46 220 6.38 217 -5.1 89 -6.6 350 791 1001.3 NA 0.0000 9999 2130 0 0 0
2017/11/04 20:22:00 BASE 5.80 223 6.38 217 -5.0 89 -6.6 405 909 1001.3 NA 0.0000 9999 2000 0 0 0
2017/11/04 20:23:00 BASE 5.85 226 6.38 217 -5.0 89 -6.6 634 1317 1001.3 NA 0.0000 9999 2000 0 0 0
2017/11/04 20:24:00 BASE 5.58 227 6.38 217 -5.0 88 -6.6 326 733 1001.3 NA 0.0000 9999 2230 0 0 0
2017/11/04 20:25:00 BASE 4.96 227 6.38 217 -5.0 88 -6.7 290 665 1001.4 NA 0.0000 9999 2030 0 0 0
2017/11/04 20:26:00 BASE 4.52 228 6.38 217 -5.0 88 -6.7 274 633 1001.4 NA 0.0000 9999 2200 0 0 0
2017/11/04 20:27:00 BASE 4.72 232 6.38 217 -5.1 88 -6.7 258 600 1001.4 NA 0.0000 9999 2070 0 0 0
2017/11/04 20:28:00 BASE 4.55 236 6.38 217 -5.1 88 -6.8 243 572 1001.4 NA 0.0000 9999 1970 0 0 0
2017/11/04 20:29:00 BASE 4.02 238 6.38 217 -5.1 88 -6.8 236 561 1001.4 NA 0.0000 9999 2330 0 0 0
2017/11/04 20:30:00 BASE 4.05 235 6.28 223 -5.2 88 -6.8 237 567 1001.4 NA 0.0000 9999 2200 0 0 0
2017/11/04 20:31:00 BASE 4.50 231 6.28 223 -5.2 88 -6.8 239 574 1001.4 NA 0.0000 9999 1770 21290 0 0
2017/11/04 20:32:00 BASE 4.53 231 6.02 230 -5.2 89 -6.8 238 574 1001.5 NA 0.0000 9999 1710 0 0 0
2017/11/04 20:33:00 BASE 3.75 230 5.92 235 -5.3 89 -6.9 235 572 1001.5 NA 0.0000 9999 2030 0 0 0
2017/11/04 20:34:00 BASE 3.32 226 5.56 225 -5.3 89 -6.9 236 577 1001.5 NA 0.0000 9999 1380 2100 0 0
2017/11/04 20:35:00 BASE 3.45 227 5.56 225 -5.3 88 -6.9 239 582 1001.5 NA 0.0000 9999 1440 0 0 0
2017/11/04 20:36:00 BASE 4.01 232 5.45 223 -5.3 88 -6.9 237 576 1001.5 NA 0.0000 9999 1710 0 0 0
2017/11/04 20:37:00 BASE 4.56 231 5.45 223 -5.2 88 -6.9 235 569 1001.5 NA 0.0000 9999 1710 0 0 0
2017/11/04 20:38:00 BASE 4.86 226 5.61 226 -5.2 88 -6.8 241 583 1001.5 NA 0.0000 9999 1640 0 0 0
2017/11/04 20:39:00 BASE 5.24 226 6.17 233 -5.1 88 -6.8 228 550 1001.5 NA 0.0000 9999 1870 0 0 0
2017/11/04 20:40:00 BASE 5.56 225 6.17 233 -5.2 88 -6.8 219 530 1001.5 NA 0.0000 9999 1800 0 0 0
2017/11/04 20:41:00 BASE 5.46 221 6.17 233 -5.2 88 -6.8 203 497 1001.5 NA 0.0000 9999 1870 0 0 0
2017/11/04 20:42:00 BASE 5.06 216 6.17 233 -5.2 88 -6.9 192 476 1001.5 NA 0.0000 9999 2260 0 0 0
2017/11/04 20:43:00 BASE 4.53 215 6.17 233 -5.3 87 -7.1 190 472 1001.5 NA 0.0000 9999 1900 0 0 0
2017/11/04 20:44:00 BASE 4.14 217 6.17 233 -5.3 87 -7.1 187 468 1001.5 NA 0.0000 9999 2260 0 0 0
2017/11/04 20:45:00 BASE 4.24 216 6.17 233 -5.3 86 -7.2 183 460 1001.5 NA 0.0000 9999 1480 2360 0 0
2017/11/04 20:46:00 BASE 4.25 222 6.17 233 -5.3 86 -7.2 181 456 1001.5 NA 0.0000 9999 1350 0 0 0
2017/11/04 20:47:00 BASE 4.27 228 6.17 233 -5.3 86 -7.2 184 460 1001.5 NA 0.0000 9999 1280 0 0 0
2017/11/04 20:48:00 BASE 4.71 226 6.17 233 -5.3 87 -7.1 188 465 1001.5 NA 0.0000 9999 1310 0 0 0
2017/11/04 20:49:00 BASE 4.85 224 6.12 219 -5.3 87 -7.1 187 463 1001.5 NA 0.0000 9999 1610 2170 0 0
2017/11/04 20:50:00 BASE 4.65 228 5.66 222 -5.3 88 -7.0 186 462 1001.5 NA 0.0000 9999 1480 0 0 0
2017/11/04 20:51:00 BASE 4.60 230 5.50 228 -5.3 88 -7.0 186 463 1001.5 NA 0.0000 9999 1710 0 0 0
2017/11/04 20:52:00 BASE 4.27 232 5.50 228 -5.3 88 -7.0 185 462 1001.5 NA 0.0000 9999 1480 0 0 0
2017/11/04 20:53:00 BASE 4.06 235 5.50 228 -5.3 88 -7.0 183 460 1001.5 NA 0.0000 9999 1540 0 0 0
2017/11/04 20:54:00 BASE 4.69 231 5.66 219 -5.3 88 -7.0 181 455 1001.5 NA 0.0000 9999 1610 0 0 0
2017/11/04 20:55:00 BASE 4.95 222 5.76 219 -5.3 88 -7.0 179 450 1001.5 NA 0.0000 9999 1610 0 0 0
2017/11/04 20:56:00 BASE 4.66 220 5.76 219 -5.3 87 -7.1 176 444 1001.5 NA 0.0000 9999 1640 0 0 0
2017/11/04 20:57:00 BASE 5.07 219 6.07 217 -5.3 87 -7.1 175 439 1001.5 NA 0.0000 9999 1740 0 0 0
2017/11/04 20:58:00 BASE 5.62 218 6.43 219 -5.3 87 -7.1 174 436 1001.5 NA 0.0000 9999 1510 0 0 0
2017/11/04 20:59:00 BASE 5.85 222 6.53 226 -5.3 87 -7.0 174 434 1001.6 NA 0.0000 9999 1640 0 0 0
2017/11/04 21:00:00 BASE 5.92 227 6.53 226 -5.3 88 -7.0 173 431 1001.6 NA 0.0000 9999 1840 0 0 0
2017/11/04 21:01:00 BASE 5.58 230 6.53 226 -5.3 88 -7.0 171 427 1001.6 NA 0.0000 9999 1710 22210 0 0
2017/11/04 21:02:00 BASE 5.19 229 6.53 226 -5.3 88 -7.0 169 424 1001.6 NA 0.0000 9999 1740 0 0 0
2017/11/04 21:03:00 BASE 5.32 230 6.53 226 -5.3 88 -7.0 170 426 1001.6 NA 0.0000 9999 1350 0 0 0
2017/11/04 21:04:00 BASE 5.80 235 6.69 237 -5.3 88 -6.9 175 434 1001.6 NA 0.0000 9999 1350 0 0 0
2017/11/04 21:05:00 BASE 6.02 239 6.69 237 -5.3 88 -6.9 180 443 1001.6 NA 0.0000 9999 1280 24480 0 0
2017/11/04 21:06:00 BASE 6.00 238 6.69 237 -5.3 89 -6.9 186 452 1001.6 NA 0.0000 9999 1840 0 0 0
2017/11/04 21:07:00 BASE 6.06 237 7.05 235 -5.4 89 -6.9 193 465 1001.7 NA 0.0000 9999 1940 0 0 0
2017/11/04 21:08:00 BASE 5.79 235 7.05 235 -5.4 89 -6.9 203 482 1001.7 NA 0.0000 9999 2030 0 0 0
2017/11/04 21:09:00 BASE 5.75 236 7.05 235 -5.4 89 -6.9 207 488 1001.7 NA 0.0000 9999 2000 0 0 0
2017/11/04 21:10:00 BASE 5.96 238 7.05 235 -5.4 89 -6.9 201 472 1001.7 NA 0.0000 9999 2100 24480 0 0
2017/11/04 21:11:00 BASE 5.78 239 7.05 235 -5.4 89 -6.9 185 439 1001.7 NA 0.0000 9999 2130 0 0 0
2017/11/04 21:12:00 BASE 5.79 239 7.05 235 -5.4 89 -6.9 167 402 1001.8 NA 0.0000 9999 2100 0 0 0
2017/11/04 21:13:00 BASE 5.68 236 7.05 235 -5.4 89 -7.0 155 381 1001.8 NA 0.0000 9999 2170 0 0 0
2017/11/04 21:14:00 BASE 4.50 232 7.05 235 -5.5 89 -7.0 150 373 1001.8 NA 0.0000 9999 2100 0 0 0
2017/11/04 21:15:00 BASE 4.11 235 7.05 235 -5.5 89 -7.0 148 370 1001.8 NA 0.0000 9999 2130 0 0 0
2017/11/04 21:16:00 BASE 4.90 234 7.05 235 -5.5 89 -7.0 144 365 1001.8 NA 0.0000 9999 1350 2100 0 0
2017/11/04 21:17:00 BASE 4.75 228 7.00 238 -5.5 89 -7.0 141 358 1001.8 NA 0.0000 9999 1410 2170 0 0
2017/11/04 21:18:00 BASE 4.52 229 7.00 238 -5.5 89 -7.0 140 356 1001.8 NA 0.0000 9999 1480 0 0 0
2017/11/04 21:19:00 BASE 4.49 232 7.00 238 -5.5 89 -7.0 140 358 1001.9 NA 0.0000 9999 1440 0 0 0
2017/11/04 21:20:00 BASE 3.87 237 7.00 238 -5.5 89 -7.0 141 360 1001.9 NA 0.0000 9999 1380 0 0 0
2017/11/04 21:21:00 BASE 3.19 241 7.00 238 -5.5 89 -7.0 145 367 1001.9 NA 0.0000 9999 1350 0 0 0
2017/11/04 21:22:00 BASE 3.32 232 7.00 238 -5.5 89 -7.0 153 381 1001.8 NA 0.0000 9999 1350 0 0 0
2017/11/04 21:23:00 BASE 4.50 222 6.17 215 -5.5 89 -7.0 164 401 1001.8 NA 0.0000 9999 1480 0 0 0
2017/11/04 21:24:01 BASE 5.75 220 7.15 215 -5.4 89 -7.0 176 422 1001.8 NA 0.0000 9999 1640 0 0 0
2017/11/04 21:25:00 BASE 5.79 216 7.15 215 -5.4 89 -6.9 186 439 1001.8 NA 0.0000 9999 1670 0 0 0
2017/11/04 21:26:00 BASE 5.21 215 7.15 215 -5.4 89 -6.9 192 448 1001.8 NA 0.0000 9999 1770 0 0 0
2017/11/04 21:27:00 BASE 5.37 225 7.15 215 -5.4 89 -6.9 193 450 1001.8 NA 0.0000 9999 1570 0 0 0
2017/11/04 21:28:00 BASE 5.61 234 7.15 215 -5.4 89 -6.9 198 458 1001.8 NA 0.0000 9999 1940 0 0 0
2017/11/04 21:29:00 BASE 5.44 241 7.15 215 -5.4 89 -6.9 201 463 1001.8 NA 0.0000 9999 1940 0 0 0
2017/11/04 21:30:00 BASE 5.00 240 7.15 215 -5.4 89 -6.9 196 454 1001.8 NA 0.0000 9999 1640 0 0 0
2017/11/04 21:31:00 BASE 4.32 228 7.15 215 -5.4 89 -6.9 183 428 1001.8 NA 0.0000 9999 1740 0 0 0
2017/11/04 21:32:00 BASE 4.37 222 7.15 215 -5.4 89 -6.9 173 408 1001.8 NA 0.0000 9999 1840 0 0 0
2017/11/04 21:33:00 BASE 4.85 217 7.15 215 -5.4 89 -6.9 169 399 1001.8 NA 0.0000 9999 1870 0 0 0
2017/11/04 21:34:00 BASE 4.77 214 6.38 223 -5.4 89 -6.9 167 394 1001.8 NA 0.0000 9999 1970 0 0 0
2017/11/04 21:35:00 BASE 4.54 215 6.38 223 -5.4 89 -7.0 162 381 1001.9 NA 0.0000 9999 1940 0 0 0
2017/11/04 21:36:00 BASE 4.17 219 6.38 223 -5.4 88 -7.0 155 366 1002.0 NA 0.0000 9999 2070 0 0 0
2017/11/04 21:37:00 BASE 4.01 228 6.28 213 -5.4 88 -7.1 148 353 1002.0 NA 0.0000 9999 1380 2490 0 0
2017/11/04 21:38:00 BASE 3.98 228 6.28 213 -5.4 88 -7.1 142 341 1002.0 NA 0.0000 9999 2130 0 0 0
2017/11/04 21:39:00 BASE 3.84 224 6.28 213 -5.4 88 -7.1 139 335 1002.0 NA 0.0000 9999 1970 0 0 0
2017/11/04 21:40:00 BASE 3.72 227 6.28 213 -5.4 88 -7.0 137 332 1002.0 NA 0.0000 9999 1480 22900 0 0
2017/11/04 21:41:00 BASE 3.78 229 6.28 213 -5.4 89 -7.0 132 323 1002.0 NA 0.0000 9999 1570 0 0 0
2017/11/04 21:42:00 BASE 3.86 232 6.07 217 -5.4 89 -7.0 127 314 1002.1 NA 0.0000 9999 1870 0 0 0
2017/11/04 21:43:00 BASE 3.61 239 5.04 211 -5.4 89 -7.0 126 313 1002.1 NA 0.0000 9999 1380 2070 0 0
2017/11/04 21:44:00 BASE 3.61 241 4.89 213 -5.4 88 -7.1 129 320 1002.0 NA 0.0000 9999 1440 0 0 0
2017/11/04 21:45:00 BASE 3.88 235 4.68 229 -5.4 88 -7.1 136 330 1002.0 NA 0.0000 9999 1410 0 0 0
2017/11/04 21:46:00 BASE 4.42 234 5.45 232 -5.4 88 -7.1 142 340 1001.9 NA 0.0000 9999 1410 0 0 0
2017/11/04 21:47:00 BASE 5.07 232 5.71 228 -5.4 88 -7.0 144 343 1001.8 NA 0.0000 9999 1670 0 0 0
2017/11/04 21:48:00 BASE 5.45 228 5.92 221 -5.4 88 -7.0 141 335 1001.8 NA 0.0000 9999 1640 0 0 0
2017/11/04 21:49:00 BASE 5.42 228 6.02 230 -5.4 88 -7.0 134 321 1001.9 NA 0.0000 9999 1640 0 0 0
2017/11/04 21:50:00 BASE 4.92 227 6.02 230 -5.4 88 -7.0 129 312 1001.9 NA 0.0000 9999 1970 0 0 0
2017/11/04 21:51:00 BASE 4.26 222 6.02 230 -5.4 88 -7.0 130 312 1002.0 NA 0.0000 9999 1840 0 0 0
2017/11/04 21:52:00 BASE 4.17 216 6.02 230 -5.4 88 -7.1 131 315 1001.9 NA 0.0000 9999 1900 0 0 0
2017/11/04 21:53:00 BASE 4.05 213 6.02 230 -5.4 88 -7.1 132 315 1002.0 NA 0.0000 9999 1800 0 0 0
2017/11/04 21:54:00 BASE 3.69 219 6.02 230 -5.4 88 -7.1 132 314 1002.0 NA 0.0000 9999 1610 0 0 0
2017/11/04 21:55:00 BASE 3.76 223 6.02 230 -5.4 88 -7.1 132 315 1002.0 NA 0.0000 9999 2070 0 0 0
2017/11/04 21:56:00 BASE 4.50 221 6.02 230 -5.4 88 -7.0 133 316 1002.0 NA 0.0000 9999 2070 0 0 0
2017/11/04 21:57:00 BASE 4.90 222 6.02 230 -5.4 88 -7.1 137 323 1002.0 NA 0.0000 9999 1970 0 0 0
2017/11/04 21:58:00 BASE 4.63 222 6.02 230 -5.4 88 -7.1 141 329 1002.0 NA 0.0000 9999 1840 0 0 0
2017/11/04 21:59:00 BASE 4.19 228 5.71 219 -5.4 87 -7.1 143 330 1002.1 NA 0.0000 9999 1900 0 0 0
2017/11/04 22:00:00 BASE 3.82 234 5.71 219 -5.4 87 -7.2 137 316 1002.1 NA 0.0000 9999 1710 0 0 0
2017/11/04 22:01:00 BASE 4.30 234 5.71 219 -5.4 87 -7.2 125 294 1002.1 NA 0.0000 9999 2070 0 0 0
2017/11/04 22:02:00 BASE 4.64 236 5.71 219 -5.4 87 -7.2 116 274 1002.1 NA 0.0000 9999 1770 2230 0 0
2017/11/04 22:03:00 BASE 4.68 236 5.71 219 -5.4 87 -7.2 108 260 1002.1 NA 0.0000 9999 1840 0 0 0
2017/11/04 22:04:00 BASE 4.70 236 5.71 219 -5.4 87 -7.3 101 247 1002.1 NA 0.0000 9999 2100 0 0 0
2017/11/04 22:05:00 BASE 3.94 240 5.71 219 -5.5 87 -7.3 94 232 1002.1 NA 0.0000 9999 2100 0 0 0
2017/11/04 22:06:00 BASE 3.60 233 5.45 240 -5.5 87 -7.4 88 221 1002.1 NA 0.0000 9999 2070 0 0 0
2017/11/04 22:07:00 BASE 3.98 215 5.45 240 -5.5 86 -7.4 84 214 1002.1 NA 0.0000 9999 2070 2790 0 0
2017/11/04 22:08:00 BASE 3.84 212 5.45 240 -5.5 86 -7.5 83 213 1002.2 NA 0.0000 9999 2530 0 0 0
2017/11/04 22:09:00 BASE 3.55 213 5.45 240 -5.5 85 -7.7 86 218 1002.1 NA 0.0000 9999 2590 0 0 0
2017/11/04 22:10:00 BASE 3.35 205 5.45 240 -5.5 84 -7.8 90 226 1002.1 NA 0.0000 9999 2460 0 0 0
2017/11/04 22:11:00 BASE 3.26 196 5.45 240 -5.5 83 -7.9 92 231 1002.1 NA 0.0000 9999 2330 0 0 0
2017/11/04 22:12:00 BASE 3.32 189 5.45 240 -5.5 82 -8.1 95 235 1002.1 NA 0.0000 9999 2030 22210 0 0
2017/11/04 22:13:00 BASE 3.41 185 5.04 222 -5.5 81 -8.2 97 239 1002.1 NA 0.0000 9999 1900 0 0 0
2017/11/04 22:14:00 BASE 3.67 183 4.78 209 -5.4 80 -8.3 98 241 1002.1 NA 0.0000 9999 1770 0 0 0
2017/11/04 22:15:00 BASE 3.86 184 4.78 209 -5.4 80 -8.4 99 242 1002.1 NA 0.0000 9999 1770 0 0 0
2017/11/04 22:16:00 BASE 3.75 185 4.78 209 -5.4 79 -8.4 101 245 1002.1 NA 0.0000 9999 1900 0 0 0
2017/11/04 22:17:00 BASE 3.70 185 4.37 178 -5.4 79 -8.4 104 249 1002.1 NA 0.0000 9999 1900 0 0 0
2017/11/04 22:18:00 BASE 3.52 189 4.37 178 -5.4 79 -8.5 107 254 1002.2 NA 0.0000 9999 1970 0 0 0
2017/11/04 22:19:00 BASE 3.51 195 4.89 200 -5.4 79 -8.5 110 257 1002.2 NA 0.0000 9999 2000 0 0 0
2017/11/04 22:20:00 BASE 3.96 194 4.89 200 -5.4 79 -8.4 113 261 1002.2 NA 0.0000 9999 2100 0 0 0
2017/11/04 22:21:00 BASE 4.66 189 5.71 189 -5.4 79 -8.4 115 263 1002.2 NA 0.0000 9999 2100 0 0 0
2017/11/04 22:22:00 BASE 5.28 190 5.81 191 -5.4 79 -8.4 110 252 1002.2 NA 0.0000 9999 2100 0 0 0
2017/11/04 22:23:00 BASE 5.34 193 6.12 201 -5.4 79 -8.5 97 227 1002.2 NA 0.0000 9999 2100 0 0 0
2017/11/04 22:24:00 BASE 5.30 201 6.12 201 -5.4 79 -8.5 85 206 1002.2 NA 0.0000 9999 2200 0 0 0
2017/11/04 22:25:00 BASE 5.00 203 6.12 201 -5.4 78 -8.6 83 202 1002.2 NA 0.0000 9999 2070 0 0 0
2017/11/04 22:26:00 BASE 4.33 199 6.12 201 -5.4 78 -8.7 86 209 1002.2 NA 0.0000 9999 2030 0 0 0
2017/11/04 22:27:00 BASE 3.70 194 6.12 201 -5.4 77 -8.8 90 216 1002.2 NA 0.0000 9999 1970 0 0 0
2017/11/04 22:28:00 BASE 3.20 185 6.12 201 -5.4 77 -8.9 90 216 1002.2 NA 0.0000 9999 1900 0 0 0
2017/11/04 22:29:00 BASE 2.74 185 6.12 201 -5.4 76 -8.9 89 214 1002.2 NA 0.0000 9999 2000 0 0 0
2017/11/04 22:30:00 BASE 2.29 195 6.12 201 -5.4 76 -8.9 89 212 1002.2 NA 0.0000 9999 1970 0 0 0
2017/11/04 22:31:00 BASE 2.33 199 6.12 201 -5.4 76 -8.9 89 211 1002.2 NA 0.0000 9999 1940 0 0 0
2017/11/04 22:32:00 BASE 2.99 207 6.12 201 -5.4 77 -8.8 89 210 1002.2 NA 0.0000 9999 1900 0 0 0
2017/11/04 22:33:00 BASE 3.40 212 5.71 209 -5.4 77 -8.7 86 205 1002.2 NA 0.0000 9999 1900 0 0 0
2017/11/04 22:34:00 BASE 3.77 211 5.25 201 -5.3 78 -8.5 83 199 1002.2 NA 0.0000 9999 2000 0 0 0
2017/11/04 22:35:00 BASE 4.25 214 5.09 210 -5.3 79 -8.4 81 195 1002.2 NA 0.0000 9999 1970 0 0 0
2017/11/04 22:36:00 BASE 4.34 218 5.09 210 -5.3 80 -8.3 81 193 1002.2 NA 0.0000 9999 1870 0 0 0
2017/11/04 22:37:00 BASE 4.17 220 5.09 210 -5.4 80 -8.2 80 191 1002.3 NA 0.0000 9999 1870 0 0 0
2017/11/04 22:38:00 BASE 3.71 219 5.09 210 -5.4 80 -8.2 79 188 1002.3 NA 0.0000 9999 1870 0 0 0
2017/11/04 22:39:00 BASE 3.75 214 5.09 210 -5.4 80 -8.3 79 187 1002.3 NA 0.0000 9999 1870 0 0 0
2017/11/04 22:40:00 BASE 4.58 215 5.86 220 -5.4 80 -8.2 79 187 1002.3 NA 0.0000 9999 1870 0 0 0
2017/11/04 22:41:00 BASE 5.33 225 6.12 227 -5.4 81 -8.2 79 185 1002.3 NA 0.0000 9999 1900 0 0 0
2017/11/04 22:42:00 BASE 5.41 229 6.17 225 -5.4 81 -8.1 76 179 1002.3 NA 0.0000 9999 1900 0 0 0
2017/11/04 22:43:00 BASE 4.99 230 6.17 225 -5.4 81 -8.1 73 174 1002.3 NA 0.0000 9999 1840 21950 0 0
2017/11/04 22:44:00 BASE 4.56 230 6.17 225 -5.4 82 -8.0 68 165 1002.4 NA 0.0000 9999 1940 0 0 0
2017/11/04 22:45:00 BASE 4.19 230 6.17 225 -5.4 82 -8.0 64 157 1002.4 NA 0.0000 9999 1940 0 0 0
2017/11/04 22:46:00 BASE 4.17 233 6.17 225 -5.5 82 -8.0 63 154 1002.5 NA 0.0000 9999 1710 0 0 0
2017/11/04 22:47:00 BASE 4.19 224 6.17 225 -5.5 82 -8.1 61 150 1002.5 NA 0.0000 9999 1940 0 0 0
2017/11/04 22:48:00 BASE 4.16 210 6.17 225 -5.4 82 -8.1 57 142 1002.5 NA 0.0000 9999 2130 0 0 0
2017/11/04 22:49:00 BASE 3.81 195 6.17 225 -5.5 81 -8.1 53 135 1002.5 NA 0.0000 9999 1770 2490 0 0
2017/11/04 22:50:00 BASE 3.16 192 6.17 225 -5.5 81 -8.2 51 130 1002.5 NA 0.0000 9999 1870 0 0 0
2017/11/04 22:51:00 BASE 2.95 217 6.17 225 -5.5 81 -8.3 50 129 1002.5 NA 0.0000 9999 1740 0 0 0
2017/11/04 22:52:00 BASE 2.62 229 5.14 209 -5.5 81 -8.3 49 126 1002.5 NA 0.0000 9999 1900 0 0 0
2017/11/04 22:53:00 BASE 2.83 230 5.14 209 -5.4 81 -8.2 49 125 1002.5 NA 0.0000 9999 1870 0 0 0
2017/11/04 22:54:00 BASE 3.63 238 5.14 209 -5.4 81 -8.1 50 126 1002.5 NA 0.0000 9999 1570 0 0 0
2017/11/04 22:55:00 BASE 3.92 236 5.14 209 -5.4 82 -8.0 51 127 1002.5 NA 0.0000 9999 1610 0 0 0
2017/11/04 22:56:00 BASE 4.02 231 5.14 209 -5.4 83 -7.8 51 127 1002.4 NA 0.0000 9999 1610 0 0 0
2017/11/04 22:57:00 BASE 4.07 230 5.14 209 -5.4 84 -7.8 51 126 1002.4 NA 0.0000 9999 1540 0 0 0
2017/11/04 22:58:00 BASE 3.91 233 4.94 243 -5.4 84 -7.8 51 124 1002.3 NA 0.0000 9999 1510 0 0 0
2017/11/04 22:59:00 BASE 3.65 232 4.94 243 -5.5 84 -7.7 50 123 1002.3 NA 0.0000 9999 1610 0 0 0
2017/11/04 23:00:00 BASE 3.55 229 4.94 243 -5.5 84 -7.7 49 121 1002.3 NA 0.0000 9999 1640 0 0 0
2017/11/04 23:01:00 BASE 3.83 231 4.94 243 -5.5 85 -7.7 48 119 1002.3 NA 0.0000 9999 1740 0 0 0
2017/11/04 23:02:00 BASE 4.05 230 4.94 243 -5.5 85 -7.7 49 119 1002.3 NA 0.0000 9999 1710 0 0 0
2017/11/04 23:03:00 BASE 4.55 226 5.76 223 -5.5 85 -7.7 49 119 1002.3 NA 0.0000 9999 1640 0 0 0
2017/11/04 23:04:00 BASE 5.01 216 6.48 195 -5.5 84 -7.7 48 116 1002.4 NA 0.0000 9999 1800 0 0 0
2017/11/04 23:05:00 BASE 4.83 210 6.48 195 -5.5 84 -7.7 46 112 1002.4 NA 0.0000 9999 1610 0 0 0
2017/11/04 23:06:00 BASE 4.44 211 6.48 195 -5.5 84 -7.8 44 108 1002.5 NA 0.0000 9999 1710 0 0 0
2017/11/04 23:07:00 BASE 3.95 212 6.48 195 -5.5 84 -7.8 41 104 1002.5 NA 0.0000 9999 1800 0 0 0
2017/11/04 23:08:00 BASE 3.80 214 6.48 195 -5.5 84 -7.8 38 99 1002.5 NA 0.0000 9999 1710 0 0 0
2017/11/04 23:09:00 BASE 3.52 216 6.48 195 -5.5 83 -7.9 36 93 1002.5 NA 0.0000 9999 1640 0 0 0
2017/11/04 23:10:00 BASE 2.93 215 6.48 195 -5.5 83 -7.8 34 90 1002.5 NA 0.0000 9999 1710 0 0 0
2017/11/04 23:11:00 BASE 2.86 207 6.48 195 -5.5 83 -7.8 32 87 1002.5 NA 0.0000 9999 1670 0 0 0
2017/11/04 23:12:00 BASE 3.24 205 6.48 195 -5.5 84 -7.8 30 83 1002.5 NA 0.0000 9999 1870 0 0 0
2017/11/04 23:13:00 BASE 3.08 207 6.48 195 -5.5 84 -7.8 28 78 1002.5 NA 0.0000 9999 1870 0 0 0
2017/11/04 23:14:00 BASE 2.53 204 5.14 212 -5.5 84 -7.8 25 74 1002.5 NA 0.0000 9999 1770 0 0 0
2017/11/04 23:15:00 BASE 2.25 198 4.58 208 -5.5 84 -7.8 24 71 1002.5 NA 0.0000 9999 1710 0 0 0
2017/11/04 23:16:00 BASE 2.06 207 4.12 212 -5.6 83 -7.9 23 68 1002.5 NA 0.0000 9999 1610 0 0 0
2017/11/04 23:17:00 BASE 2.37 226 4.12 212 -5.6 83 -8.0 22 66 1002.5 NA 0.0000 9999 1510 0 0 0
2017/11/04 23:18:00 BASE 2.71 232 3.76 211 -5.6 83 -8.0 21 63 1002.5 NA 0.0000 9999 1410 0 0 0
2017/11/04 23:19:00 BASE 2.51 230 3.76 211 -5.5 83 -7.9 20 61 1002.5 NA 0.0000 9999 1380 0 0 0
2017/11/04 23:20:00 BASE 2.81 230 3.76 211 -5.5 84 -7.8 20 59 1002.5 NA 0.0000 9999 1310 0 0 0
2017/11/04 23:21:00 BASE 3.13 227 3.76 211 -5.5 84 -7.7 20 58 1002.5 NA 0.0000 9999 1310 0 0 0
2017/11/04 23:22:00 BASE 3.41 227 4.06 226 -5.5 85 -7.6 20 58 1002.5 NA 0.0000 9999 1410 0 0 0
2017/11/04 23:23:00 BASE 3.53 228 4.06 226 -5.5 86 -7.5 19 56 1002.6 NA 0.0000 9999 1350 1970 0 0
2017/11/04 23:24:00 BASE 2.93 230 4.06 226 -5.5 86 -7.4 18 54 1002.6 NA 0.0000 9999 1670 0 0 0
2017/11/04 23:25:00 BASE 2.73 244 4.17 256 -5.5 87 -7.3 17 52 1002.5 NA 0.0000 9999 1570 0 0 0
2017/11/04 23:26:00 BASE 2.83 247 4.17 252 -5.5 87 -7.3 18 53 1002.5 NA 0.0000 9999 1510 0 0 0
2017/11/04 23:27:00 BASE 2.59 242 4.17 252 -5.5 88 -7.3 19 54 1002.5 NA 0.0000 9999 1540 0 0 0
2017/11/04 23:28:00 BASE 2.44 248 4.17 252 -5.5 88 -7.2 20 55 1002.5 NA 0.0000 9999 1640 0 0 0
2017/11/04 23:29:00 BASE 2.62 247 4.17 252 -5.5 88 -7.2 21 56 1002.5 NA 0.0000 9999 1670 0 0 0
2017/11/04 23:30:00 BASE 3.20 237 4.17 235 -5.5 88 -7.2 21 56 1002.5 NA 0.0000 9999 1740 0 0 0
2017/11/04 23:31:00 BASE 3.88 228 5.76 229 -5.5 88 -7.2 20 54 1002.5 NA 0.0000 9999 1800 0 0 0
2017/11/04 23:32:00 BASE 5.00 223 6.48 219 -5.4 88 -7.1 20 53 1002.5 NA 0.0000 9999 1740 0 0 0
2017/11/04 23:33:00 BASE 5.32 225 6.48 219 -5.4 88 -7.2 20 53 1002.5 NA 0.0000 9999 1710 0 0 0
2017/11/04 23:34:00 BASE 5.16 232 6.48 219 -5.4 88 -7.2 21 54 1002.5 NA 0.0000 9999 1710 0 0 0
2017/11/04 23:35:00 BASE 5.38 232 6.48 219 -5.4 88 -7.2 22 55 1002.5 NA 0.0000 9999 1640 0 0 0
2017/11/04 23:36:00 BASE 5.03 223 6.48 219 -5.4 88 -7.2 22 55 1002.5 NA 0.0000 9999 1770 0 0 0
2017/11/04 23:37:00 BASE 4.48 216 6.48 219 -5.4 88 -7.2 22 55 1002.6 NA 0.0000 9999 1710 0 0 0
2017/11/04 23:38:00 BASE 3.70 217 6.48 219 -5.5 88 -7.2 22 53 1002.6 NA 0.0000 9999 1570 0 0 0
2017/11/04 23:39:00 BASE 3.15 224 6.48 219 -5.5 88 -7.2 22 53 1002.6 NA 0.0000 9999 1410 0 0 0
2017/11/04 23:40:00 BASE 3.50 228 6.48 219 -5.5 88 -7.2 23 54 1002.5 NA 0.0000 9999 1510 0 0 0
2017/11/04 23:41:00 BASE 4.31 230 6.48 219 -5.5 88 -7.2 23 54 1002.5 NA 0.0000 9999 1710 0 0 0
2017/11/04 23:42:00 BASE 4.57 226 5.92 233 -5.5 88 -7.1 23 54 1002.5 NA 0.0000 9999 1800 0 0 0
2017/11/04 23:43:00 BASE 4.83 220 6.22 215 -5.4 88 -7.1 22 52 1002.5 NA 0.0000 9999 1900 0 0 0
2017/11/04 23:44:00 BASE 4.88 217 6.22 215 -5.4 88 -7.1 21 51 1002.5 NA 0.0000 9999 1840 0 0 0
2017/11/04 23:45:00 BASE 4.40 214 6.22 215 -5.4 88 -7.1 20 50 1002.6 NA 0.0000 9999 1900 0 0 0
2017/11/04 23:46:00 BASE 4.11 220 6.22 215 -5.4 87 -7.2 20 49 1002.6 NA 0.0000 9999 1900 0 0 0
2017/11/04 23:47:00 BASE 3.87 226 6.22 215 -5.4 87 -7.3 20 48 1002.6 NA 0.0000 9999 1710 0 0 0
2017/11/04 23:48:00 BASE 3.49 223 6.22 215 -5.4 86 -7.4 20 47 1002.6 NA 0.0000 9999 1710 0 0 0
2017/11/04 23:49:00 BASE 3.27 227 6.22 215 -5.4 86 -7.5 20 47 1002.6 NA 0.0000 9999 1800 0 0 0
2017/11/04 23:50:00 BASE 3.94 234 6.22 215 -5.4 85 -7.6 20 46 1002.6 NA 0.0000 9999 1710 0 0 0
2017/11/04 23:51:00 BASE 4.74 233 6.22 215 -5.4 85 -7.6 20 46 1002.6 NA 0.0000 9999 1670 0 0 0
2017/11/04 23:52:00 BASE 4.21 226 6.22 215 -5.4 84 -7.6 19 45 1002.6 NA 0.0000 9999 1710 0 0 0
2017/11/04 23:53:00 BASE 3.30 226 5.45 209 -5.4 84 -7.6 18 43 1002.6 NA 0.0000 9999 1710 0 0 0
2017/11/04 23:54:00 BASE 3.27 231 5.40 223 -5.4 85 -7.6 18 42 1002.6 NA 0.0000 9999 1570 0 0 0
2017/11/04 23:55:00 BASE 3.41 231 5.40 223 -5.4 85 -7.6 17 41 1002.6 NA 0.0000 9999 1480 0 0 0
2017/11/04 23:56:00 BASE 3.35 229 5.40 223 -5.4 85 -7.5 17 40 1002.6 NA 0.0000 9999 1800 0 0 0
2017/11/04 23:57:00 BASE 3.41 226 5.40 223 -5.4 85 -7.5 17 39 1002.6 NA 0.0000 9999 1480 0 0 0
2017/11/04 23:58:00 BASE 3.55 229 5.40 223 -5.4 86 -7.4 16 39 1002.6 NA 0.0000 9999 1540 0 0 0
2017/11/04 23:59:00 BASE 3.82 228 5.40 223 -5.4 86 -7.4 16 38 1002.6 NA 0.0000 9999 1800 0 0 0